[[{"header":{"parameterUnit":"m.s-1","parameterCategory":1,"la1":31.0,"la2":29.5877,"lo1":-88.7671,"lo2":-86.6584,"dy":0.0162,"dx":0.0185,"nx":115,"ny":88,"refTime":"2024-05-08T12:00:00:Z","depth":0,"parameterNumber":2,"parameterNumberName":"U-component_of_WINDS"},"data":[0.0,0.0,0.0,0.0,0.0,0.0,0.0,0.0,0.0,0.0,0.0,0.0,0.0,0.0,0.0,0.0,0.0,0.0,0.0,0.0,0.0,0.0,0.0,0.0,0.0,0.0,0.0,0.0,0.0,0.0,0.0,0.0,0.0,0.0,0.0,0.0,0.0,0.0,0.0,0.0,0.0,0.0,0.0,0.0,0.0,0.0,0.0,0.0,0.0,0.0,0.0,0.0,0.0,0.0,0.0,0.0,0.0,0.0,0.0,0.0,0.0,0.0,0.0,0.0,0.0,0.0,0.0,0.0,0.0,0.0,0.0,0.0,0.0,0.0,0.0,0.0,0.0,0.0,0.0,0.0,0.0,0.0,0.0,0.0,0.0,0.0,0.0,0.0,0.0,0.0,0.0,0.0,0.0,0.0,0.0,0.0,0.0,0.0,0.0,0.0,0.0,0.0,0.0,0.0,0.0,0.0,0.0,0.0,0.0,0.0,0.0,0.0,0.0,0.0,0.0,0.0,0.0,0.0,0.0,0.0,0.0,0.0,0.0,0.0,0.0,0.0,0.0,0.0,0.0,0.0,0.0,0.0,0.0,0.0,0.0,0.0,0.0,0.0,0.0,0.0,0.0,0.0,0.0,0.0,0.0,0.0,0.0,0.0,0.0,0.0,0.0,0.0,0.0,0.0,0.0,0.0,0.0,0.0,0.0,0.0,0.0,0.0,0.0,0.0,0.0,0.0,0.0,0.0,0.0,0.0,0.0,0.0,0.0,0.0,0.0,0.0,0.0,0.0,0.0,0.0,0.0,0.0,0.0,0.0,0.0,0.0,0.0,0.0,0.0,0.0,0.0,0.0,0.0,0.0,0.0,0.0,0.0,0.0,0.0,0.0,0.0,0.0,0.0,0.0,0.0,0.0,0.0,0.0,0.0,0.0,0.0,0.0,0.0,0.0,0.0,0.0,0.0,0.0,0.0,0.0,0.0,0.0,0.0,0.0,0.0,0.0,0.0,0.0,0.0,0.0,0.0,0.0,0.0,0.0,0.0,0.0,0.0,0.0,0.0,0.0,0.0,0.0,0.0,0.0,0.0,0.0,0.0,0.0,0.0,0.0,0.0,0.0,0.0,0.0,0.0,0.0,0.0,0.0,0.0,0.0,0.0,0.0,0.0,0.0,0.0,0.0,0.0,0.0,0.0,0.0,0.0,0.0,0.0,0.0,0.0,0.0,0.0,0.0,0.0,0.0,0.0,0.0,0.0,0.0,0.0,0.0,0.0,0.0,0.0,0.0,0.0,0.0,0.0,0.0,0.0,0.0,0.0,0.0,0.0,0.0,0.0,0.0,0.0,0.0,0.0,0.0,0.0,0.0,0.0,0.0,0.0,0.0,0.0,0.0,0.0,0.0,0.0,0.0,0.0,0.0,0.0,0.0,0.0,0.0,0.0,0.0,0.0,0.0,0.0,0.0,0.0,0.0,0.0,0.0,0.0,0.0,0.0,0.0,0.0,0.0,0.0,0.0,0.0,0.0,0.0,0.0,0.0,0.0,0.0,0.0,0.0,0.0,0.0,0.0,0.0,0.0,0.0,0.0,0.0,0.0,0.0,0.0,0.0,0.0,0.0,0.0,0.0,0.0,0.0,0.0,0.0,0.0,0.0,0.0,0.0,0.0,0.0,0.0,0.0,0.0,0.0,0.0,0.0,0.0,0.0,0.0,0.0,0.0,0.0,0.0,0.0,0.0,0.0,0.0,0.0,0.0,0.0,0.0,0.0,0.0,0.0,0.0,0.0,0.0,0.0,0.0,0.0,0.0,0.0,0.0,0.0,0.0,0.0,0.0,0.0,0.0,0.0,0.0,0.0,0.0,0.0,0.0,0.0,0.0,0.0,0.0,0.0,0.0,0.0,0.0,0.0,0.0,0.0,0.0,0.0,0.0,0.0,0.0,0.0,0.0,0.0,0.0,0.0,0.0,0.0,0.0,0.0,0.0,0.0,0.0,0.0,0.0,0.0,0.0,0.0,0.0,0.0,0.0,0.0,0.0,0.0,0.0,0.0,0.0,0.0,0.0,0.0,0.0,0.0,0.0,0.0,0.0,0.0,0.0,0.0,0.0,0.0,0.0,0.0,0.0,0.0,0.0,0.0,0.0,0.0,0.0,0.0,0.0,0.0,0.0,0.0,0.0,0.0,0.0,0.0,0.0,0.0,0.0,0.0,0.0,0.0,0.0,0.0,0.0,0.0,0.0,0.0,0.0,0.0,0.0,0.0,0.0,0.0,0.0,0.0,0.0,0.0,0.0,0.0,0.0,0.0,0.0,0.0,0.0,0.0,0.0,0.0,0.0,0.0,0.0,0.0,0.0,0.0,0.0,0.0,0.0,0.0,0.0,0.0,0.0,0.0,0.0,0.0,0.0,0.0,0.0,0.0,0.0,0.0,0.0,0.0,0.0,0.0,0.0,0.0,0.0,0.0,0.0,0.0,0.0,0.0,0.0,0.0,0.0,0.0,0.0,0.0,0.0,0.0,0.0,0.0,0.0,0.0,0.0,0.0,0.0,0.0,0.0,0.0,0.0,0.0,0.0,0.0,0.0,0.0,0.0,0.0,0.0,0.0,0.0,0.0,0.0,0.0,0.0,0.0,0.0,0.0,0.0,0.0,0.0,0.0,0.0,0.0,0.0,0.0,0.0,0.0,0.0,0.0,0.0,0.0,0.0,0.0,0.0,0.0,0.0,0.0,0.0,0.0,0.0,0.0,0.0,0.0,0.0,0.0,0.0,0.0,0.0,0.0,0.0,0.0,0.0,0.0,0.0,0.0,0.0,0.0,0.0,0.0,0.0,0.0,0.0,0.0,0.0,0.0,0.0,0.0,0.0,0.0,0.0,0.0,0.0,0.0,0.0,0.0,0.0,0.0,0.0,0.0,0.0,0.0,0.0,0.0,0.0,0.0,0.0,0.0,0.0,0.0,0.0,0.0,0.0,0.0,0.0,0.0,0.0,0.0,0.0,0.0,0.0,0.0,0.0,0.0,0.0,0.0,0.0,0.0,0.0,0.0,0.0,0.0,0.0,0.0,0.0,0.0,0.0,0.0,0.0,0.0,0.0,0.0,0.0,0.0,0.0,0.0,0.0,0.0,0.0,0.0,0.0,0.0,0.0,0.0,0.0,0.0,0.0,0.0,0.0,0.0,0.0,0.0,0.0,0.0,0.0,0.0,0.0,0.0,0.0,0.0,0.0,0.0,0.0,0.0,0.0,0.0,0.0,0.0,0.0,0.0,0.0,0.0,0.0,0.0,0.0,0.0,0.0,0.0,0.0,0.0,0.0,0.0,0.0,0.0,0.0,0.0,0.0,0.0,0.0,0.0,0.0,0.0,0.0,0.0,0.0,0.0,0.0,0.0,0.0,0.0,0.0,0.0,0.0,0.0,0.0,0.0,0.0,0.0,0.0,0.0,0.0,0.0,0.0,0.0,0.0,0.0,0.0,0.0,0.0,0.0,0.0,0.0,0.0,0.0,0.0,0.0,0.0,0.0,0.0,0.0,0.0,0.0,0.0,0.0,0.0,0.0,0.0,0.0,0.0,0.0,0.0,0.0,0.0,0.0,0.0,0.0,0.0,0.0,0.0,0.0,0.0,0.0,0.0,0.0,0.0,0.0,0.0,0.0,0.0,0.0,0.0,0.0,0.0,0.0,0.0,0.0,0.0,0.0,0.0,0.0,0.0,0.0,0.0,0.0,0.0,0.0,0.0,0.0,0.0,0.0,0.0,0.0,0.0,0.0,0.0,0.0,0.0,0.0,0.0,0.0,0.0,0.0,0.0,0.0,0.0,0.0,0.0,0.0,0.0,0.0,0.0,0.0,0.0,0.0,0.0,0.0,0.0,0.0,0.0,0.0,0.0,0.0,0.0,0.0,0.0,0.0,0.0,0.0,0.0,0.0,0.0,0.0,0.0,0.0,0.0,0.0,0.0,0.0,0.0,0.0,0.0,0.0,0.0,0.0,0.0,0.0,0.0,0.0,0.0,0.0,0.0,0.0,0.0,0.0,0.0,0.0,0.0,0.0,0.0,0.0,0.0,0.0,0.0,0.0,0.0,0.0,0.0,0.0,0.0,0.0,0.0,0.0,0.0,0.0,0.0,0.0,0.0,0.0,0.0,0.0,0.0,0.0,0.0,0.0,0.0,0.0,0.0,0.0,0.0,0.0,0.0,0.0,0.0,0.0,0.0,0.0,0.0,0.0,0.0,0.0,0.0,0.0,0.0,0.0,0.0,0.0,0.0,-3.3136,0.0,0.0,0.0,0.0,0.0,0.0,0.0,0.0,0.0,0.0,0.0,0.0,0.0,0.0,0.0,0.0,0.0,0.0,0.0,0.0,0.0,0.0,0.0,0.0,0.0,0.0,0.0,0.0,0.0,0.0,0.0,0.0,0.0,0.0,0.0,0.0,0.0,0.0,0.0,0.0,0.0,0.0,0.0,0.0,0.0,0.0,0.0,0.0,0.0,0.0,0.0,0.0,0.0,0.0,0.0,0.0,0.0,0.0,0.0,0.0,0.0,0.0,0.0,0.0,0.0,0.0,0.0,0.0,0.0,0.0,0.0,0.0,0.0,0.0,0.0,0.0,0.0,0.0,0.0,0.0,0.0,0.0,0.0,0.0,0.0,0.0,0.0,0.0,0.0,0.0,0.0,0.0,0.0,0.0,0.0,0.0,0.0,0.0,0.0,0.0,0.0,0.0,0.0,0.0,0.0,0.0,0.0,0.0,0.0,0.0,-3.3154,-3.324,-3.3283,-3.3326,-3.3454,0.0,0.0,0.0,0.0,0.0,0.0,0.0,0.0,0.0,0.0,0.0,0.0,0.0,0.0,0.0,0.0,0.0,0.0,0.0,0.0,0.0,0.0,0.0,0.0,0.0,0.0,0.0,0.0,0.0,0.0,0.0,0.0,0.0,0.0,0.0,0.0,0.0,0.0,0.0,0.0,0.0,0.0,0.0,0.0,0.0,0.0,0.0,0.0,0.0,0.0,0.0,0.0,0.0,0.0,0.0,0.0,0.0,0.0,0.0,0.0,0.0,0.0,0.0,0.0,0.0,0.0,0.0,0.0,0.0,0.0,0.0,0.0,0.0,0.0,0.0,0.0,0.0,0.0,0.0,0.0,0.0,0.0,0.0,0.0,0.0,0.0,0.0,0.0,0.0,0.0,0.0,0.0,0.0,0.0,0.0,0.0,0.0,0.0,0.0,0.0,0.0,0.0,0.0,0.0,0.0,0.0,0.0,0.0,0.0,0.0,0.0,0.0,-3.3641,-3.3769,-3.3852,0.0,0.0,0.0,0.0,0.0,0.0,0.0,0.0,0.0,0.0,0.0,0.0,0.0,0.0,0.0,0.0,0.0,0.0,0.0,0.0,0.0,0.0,0.0,0.0,0.0,0.0,0.0,0.0,0.0,0.0,0.0,0.0,0.0,0.0,0.0,0.0,0.0,0.0,0.0,0.0,0.0,0.0,0.0,0.0,0.0,0.0,0.0,0.0,0.0,0.0,0.0,0.0,0.0,0.0,0.0,0.0,0.0,0.0,0.0,0.0,0.0,0.0,0.0,0.0,0.0,0.0,0.0,0.0,0.0,0.0,0.0,0.0,0.0,0.0,0.0,0.0,0.0,0.0,0.0,0.0,0.0,0.0,0.0,0.0,0.0,0.0,0.0,0.0,0.0,0.0,0.0,0.0,0.0,0.0,0.0,0.0,0.0,0.0,0.0,0.0,0.0,0.0,0.0,0.0,0.0,0.0,0.0,0.0,0.0,0.0,-3.403,-3.3709,-3.4384,0.0,-3.4366,0.0,0.0,0.0,0.0,0.0,0.0,0.0,0.0,0.0,0.0,0.0,0.0,0.0,0.0,0.0,0.0,0.0,0.0,0.0,0.0,0.0,0.0,0.0,0.0,0.0,0.0,0.0,0.0,0.0,0.0,0.0,0.0,0.0,0.0,0.0,0.0,0.0,0.0,0.0,0.0,0.0,0.0,0.0,0.0,0.0,0.0,0.0,0.0,0.0,0.0,0.0,0.0,0.0,0.0,0.0,0.0,0.0,0.0,0.0,0.0,0.0,0.0,0.0,0.0,0.0,0.0,0.0,0.0,0.0,0.0,0.0,0.0,0.0,0.0,0.0,0.0,0.0,0.0,0.0,0.0,0.0,0.0,0.0,0.0,0.0,0.0,0.0,0.0,0.0,0.0,0.0,0.0,0.0,0.0,0.0,0.0,0.0,0.0,0.0,0.0,0.0,0.0,0.0,0.0,0.0,0.0,0.0,0.0,0.0,0.0,-3.52,-3.5185,-3.5526,-3.5706,0.0,0.0,0.0,0.0,0.0,0.0,0.0,0.0,0.0,0.0,0.0,0.0,0.0,0.0,0.0,0.0,0.0,0.0,0.0,0.0,0.0,0.0,0.0,0.0,0.0,0.0,0.0,0.0,0.0,0.0,0.0,0.0,0.0,0.0,0.0,0.0,0.0,0.0,0.0,0.0,0.0,0.0,0.0,0.0,0.0,0.0,0.0,0.0,0.0,0.0,0.0,0.0,0.0,0.0,0.0,0.0,0.0,0.0,0.0,0.0,0.0,0.0,0.0,0.0,0.0,0.0,0.0,0.0,0.0,0.0,0.0,0.0,0.0,0.0,0.0,0.0,0.0,0.0,0.0,0.0,0.0,0.0,0.0,0.0,0.0,0.0,0.0,0.0,0.0,0.0,0.0,0.0,0.0,0.0,0.0,0.0,0.0,0.0,0.0,0.0,0.0,0.0,0.0,0.0,0.0,0.0,0.0,0.0,0.0,0.0,-3.6015,-3.6534,-3.697,-3.688,-3.6974,-3.7222,0.0,0.0,0.0,0.0,0.0,0.0,0.0,0.0,0.0,0.0,0.0,0.0,0.0,0.0,0.0,0.0,0.0,0.0,0.0,0.0,0.0,0.0,0.0,0.0,0.0,0.0,0.0,0.0,0.0,0.0,0.0,0.0,0.0,0.0,0.0,0.0,0.0,0.0,0.0,0.0,0.0,0.0,0.0,0.0,0.0,0.0,0.0,0.0,0.0,0.0,0.0,0.0,0.0,0.0,0.0,0.0,0.0,0.0,0.0,0.0,0.0,0.0,0.0,0.0,0.0,0.0,0.0,0.0,0.0,0.0,0.0,0.0,0.0,0.0,0.0,0.0,0.0,0.0,0.0,0.0,0.0,0.0,0.0,0.0,0.0,0.0,0.0,0.0,0.0,0.0,0.0,0.0,0.0,0.0,0.0,0.0,0.0,0.0,0.0,0.0,0.0,0.0,0.0,0.0,0.0,0.0,0.0,0.0,-3.6175,-3.7113,-3.8038,-3.8901,-3.8449,-3.8325,0.0,0.0,0.0,0.0,0.0,0.0,0.0,0.0,0.0,0.0,0.0,0.0,0.0,0.0,0.0,0.0,0.0,0.0,0.0,0.0,0.0,0.0,0.0,0.0,0.0,0.0,0.0,0.0,0.0,0.0,0.0,0.0,0.0,0.0,0.0,0.0,0.0,0.0,0.0,0.0,0.0,0.0,0.0,0.0,0.0,0.0,0.0,0.0,0.0,0.0,0.0,0.0,0.0,0.0,0.0,0.0,0.0,0.0,0.0,0.0,0.0,0.0,0.0,0.0,0.0,0.0,0.0,0.0,0.0,0.0,0.0,0.0,0.0,0.0,0.0,0.0,0.0,0.0,0.0,0.0,0.0,0.0,0.0,0.0,0.0,0.0,0.0,0.0,0.0,0.0,0.0,0.0,0.0,0.0,0.0,0.0,0.0,0.0,0.0,0.0,0.0,0.0,0.0,0.0,0.0,0.0,0.0,0.0,0.0,-3.774,-3.8681,-3.9621,-4.052,-3.9941,-3.9808,0.0,0.0,0.0,0.0,0.0,0.0,0.0,0.0,0.0,0.0,0.0,0.0,0.0,0.0,0.0,0.0,0.0,0.0,0.0,0.0,0.0,0.0,0.0,0.0,0.0,0.0,0.0,0.0,0.0,0.0,0.0,0.0,0.0,0.0,0.0,0.0,0.0,0.0,0.0,0.0,0.0,0.0,0.0,0.0,0.0,0.0,0.0,0.0,0.0,0.0,0.0,0.0,0.0,0.0,0.0,0.0,0.0,0.0,0.0,0.0,0.0,0.0,0.0,0.0,0.0,0.0,0.0,0.0,0.0,0.0,0.0,0.0,0.0,0.0,0.0,0.0,0.0,0.0,0.0,0.0,0.0,0.0,0.0,0.0,0.0,0.0,0.0,0.0,0.0,0.0,0.0,0.0,0.0,0.0,0.0,0.0,0.0,0.0,0.0,0.0,0.0,0.0,0.0,0.0,0.0,0.0,0.0,0.0,0.0,-3.9513,0.0,-4.0859,-4.166,-4.1299,-4.1203,0.0,0.0,0.0,0.0,0.0,0.0,0.0,0.0,0.0,0.0,0.0,0.0,0.0,0.0,0.0,0.0,0.0,0.0,0.0,0.0,0.0,0.0,0.0,0.0,0.0,0.0,0.0,0.0,0.0,0.0,0.0,0.0,0.0,0.0,0.0,0.0,0.0,0.0,0.0,0.0,0.0,0.0,0.0,0.0,0.0,0.0,0.0,0.0,0.0,0.0,0.0,0.0,0.0,0.0,0.0,0.0,0.0,0.0,0.0,0.0,0.0,0.0,0.0,0.0,0.0,0.0,0.0,0.0,0.0,0.0,0.0,0.0,0.0,0.0,0.0,0.0,0.0,0.0,0.0,0.0,0.0,0.0,0.0,0.0,0.0,0.0,0.0,0.0,0.0,0.0,0.0,0.0,0.0,0.0,0.0,0.0,0.0,0.0,0.0,0.0,0.0,0.0,0.0,0.0,0.0,0.0,0.0,0.0,-4.0257,-4.1382,-4.1453,-4.1817,-4.2421,-4.2421,-4.2514,0.0,0.0,0.0,0.0,0.0,0.0,0.0,0.0,0.0,0.0,0.0,0.0,0.0,0.0,0.0,0.0,0.0,0.0,0.0,0.0,0.0,0.0,0.0,0.0,0.0,0.0,0.0,0.0,0.0,0.0,0.0,0.0,0.0,0.0,0.0,0.0,0.0,0.0,0.0,0.0,0.0,0.0,0.0,0.0,0.0,0.0,0.0,0.0,0.0,0.0,0.0,0.0,0.0,0.0,0.0,0.0,0.0,0.0,0.0,0.0,0.0,0.0,0.0,0.0,0.0,0.0,0.0,0.0,0.0,0.0,0.0,0.0,0.0,0.0,0.0,0.0,0.0,0.0,0.0,0.0,0.0,0.0,0.0,0.0,0.0,0.0,0.0,0.0,0.0,0.0,0.0,0.0,0.0,0.0,0.0,0.0,0.0,0.0,0.0,0.0,0.0,0.0,0.0,0.0,0.0,0.0,0.0,0.0,0.0,-4.3383,-4.3425,-4.3637,-4.4169,-4.3726,-4.3612,0.0,0.0,0.0,0.0,0.0,0.0,0.0,0.0,0.0,0.0,0.0,0.0,0.0,0.0,0.0,0.0,0.0,0.0,0.0,0.0,0.0,0.0,0.0,0.0,0.0,0.0,0.0,0.0,0.0,0.0,0.0,0.0,0.0,0.0,0.0,0.0,0.0,0.0,0.0,0.0,0.0,0.0,0.0,0.0,0.0,0.0,0.0,0.0,0.0,0.0,0.0,0.0,0.0,0.0,0.0,0.0,0.0,0.0,0.0,0.0,0.0,0.0,0.0,0.0,0.0,0.0,0.0,0.0,0.0,0.0,0.0,0.0,0.0,0.0,0.0,0.0,0.0,0.0,0.0,0.0,0.0,0.0,0.0,0.0,0.0,0.0,0.0,0.0,0.0,0.0,0.0,0.0,0.0,0.0,0.0,0.0,0.0,0.0,0.0,0.0,0.0,0.0,0.0,0.0,0.0,0.0,0.0,0.0,0.0,-4.6109,-4.5255,-4.4983,-4.5376,-4.4956,-4.4708,-4.4559,0.0,0.0,0.0,0.0,0.0,0.0,0.0,0.0,0.0,0.0,0.0,0.0,0.0,0.0,0.0,0.0,0.0,0.0,0.0,0.0,0.0,0.0,0.0,0.0,0.0,0.0,0.0,0.0,0.0,0.0,0.0,0.0,0.0,0.0,0.0,0.0,0.0,0.0,0.0,0.0,0.0,0.0,0.0,0.0,0.0,0.0,0.0,0.0,0.0,0.0,0.0,0.0,0.0,0.0,0.0,0.0,0.0,0.0,0.0,0.0,0.0,0.0,0.0,0.0,0.0,0.0,0.0,0.0,0.0,0.0,0.0,0.0,0.0,0.0,0.0,0.0,0.0,0.0,0.0,0.0,0.0,0.0,0.0,0.0,0.0,0.0,0.0,0.0,0.0,0.0,0.0,0.0,0.0,0.0,0.0,0.0,0.0,0.0,0.0,0.0,0.0,0.0,0.0,0.0,0.0,0.0,0.0,0.0,-4.9384,-4.7217,-4.6122,-4.6214,-4.6184,-4.5829,0.0,0.0,0.0,0.0,0.0,0.0,0.0,0.0,0.0,0.0,0.0,0.0,0.0,0.0,0.0,0.0,0.0,0.0,0.0,0.0,0.0,0.0,0.0,0.0,0.0,0.0,0.0,0.0,0.0,0.0,0.0,0.0,0.0,0.0,0.0,0.0,0.0,0.0,0.0,0.0,0.0,0.0,0.0,0.0,0.0,0.0,0.0,0.0,0.0,0.0,0.0,0.0,0.0,0.0,0.0,0.0,0.0,0.0,0.0,0.0,0.0,0.0,0.0,0.0,0.0,0.0,0.0,0.0,0.0,0.0,0.0,0.0,0.0,0.0,0.0,0.0,0.0,0.0,0.0,0.0,0.0,0.0,0.0,0.0,0.0,0.0,0.0,0.0,0.0,0.0,0.0,0.0,0.0,0.0,0.0,0.0,0.0,0.0,0.0,0.0,0.0,0.0,0.0,0.0,0.0,0.0,0.0,0.0,0.0,-5.0468,-5.0288,-4.9708,-4.8767,-4.8234,-4.7651,0.0,0.0,0.0,0.0,0.0,0.0,0.0,0.0,0.0,0.0,0.0,0.0,0.0,0.0,0.0,0.0,0.0,0.0,0.0,0.0,0.0,0.0,0.0,0.0,0.0,0.0,0.0,0.0,0.0,0.0,0.0,0.0,0.0,0.0,0.0,0.0,0.0,0.0,0.0,0.0,0.0,0.0,0.0,0.0,0.0,0.0,0.0,0.0,0.0,0.0,0.0,0.0,0.0,0.0,0.0,0.0,0.0,0.0,0.0,0.0,0.0,0.0,0.0,0.0,0.0,0.0,0.0,0.0,0.0,0.0,0.0,0.0,0.0,0.0,0.0,0.0,0.0,0.0,0.0,0.0,0.0,0.0,0.0,0.0,0.0,0.0,0.0,0.0,0.0,0.0,0.0,0.0,0.0,0.0,0.0,0.0,0.0,0.0,0.0,0.0,0.0,0.0,0.0,0.0,0.0,0.0,0.0,0.0,-5.0715,-5.2417,-5.2544,-5.2406,-5.2114,-5.0516,-4.9344,0.0,0.0,0.0,0.0,0.0,0.0,0.0,0.0,0.0,0.0,0.0,0.0,0.0,0.0,0.0,0.0,0.0,0.0,0.0,0.0,0.0,0.0,0.0,0.0,0.0,0.0,0.0,0.0,0.0,0.0,0.0,0.0,0.0,0.0,0.0,0.0,0.0,0.0,0.0,0.0,0.0,0.0,0.0,0.0,0.0,0.0,0.0,0.0,0.0,0.0,0.0,0.0,0.0,0.0,0.0,0.0,0.0,0.0,0.0,0.0,0.0,0.0,0.0,0.0,0.0,0.0,0.0,0.0,0.0,0.0,0.0,0.0,0.0,0.0,0.0,0.0,0.0,0.0,0.0,0.0,0.0,0.0,0.0,0.0,0.0,0.0,0.0,0.0,0.0,0.0,0.0,0.0,0.0,0.0,0.0,0.0,0.0,0.0,0.0,0.0,0.0,0.0,0.0,0.0,0.0,0.0,0.0,0.0,-5.2417,-5.4603,-5.4351,-5.468,-5.5596,-5.2893,-5.0977,0.0,0.0,0.0,0.0,0.0,0.0,0.0,0.0,0.0,0.0,0.0,0.0,0.0,0.0,0.0,0.0,0.0,0.0,0.0,0.0,0.0,0.0,0.0,0.0,0.0,0.0,0.0,0.0,0.0,0.0,0.0,0.0,0.0,0.0,0.0,0.0,0.0,0.0,0.0,0.0,0.0,0.0,0.0,0.0,0.0,0.0,0.0,0.0,0.0,0.0,0.0,0.0,0.0,0.0,0.0,0.0,0.0,0.0,0.0,0.0,0.0,0.0,0.0,0.0,0.0,0.0,0.0,0.0,0.0,0.0,0.0,0.0,0.0,0.0,0.0,0.0,0.0,0.0,0.0,0.0,0.0,0.0,0.0,0.0,0.0,0.0,0.0,0.0,0.0,0.0,0.0,0.0,0.0,0.0,0.0,0.0,0.0,0.0,0.0,0.0,0.0,0.0,0.0,0.0,0.0,0.0,0.0,0.0,-5.4221,-5.5802,-5.6806,-5.725,-5.7058,-5.485,-5.3068,0.0,0.0,0.0,0.0,0.0,0.0,0.0,0.0,0.0,0.0,0.0,0.0,0.0,0.0,0.0,0.0,0.0,0.0,0.0,0.0,0.0,0.0,0.0,0.0,0.0,0.0,0.0,0.0,0.0,0.0,0.0,0.0,0.0,0.0,0.0,0.0,0.0,0.0,0.0,0.0,0.0,0.0,0.0,0.0,0.0,0.0,0.0,0.0,-4.291,0.0,0.0,0.0,0.0,0.0,0.0,0.0,0.0,0.0,0.0,0.0,0.0,0.0,0.0,0.0,0.0,0.0,0.0,0.0,0.0,0.0,0.0,0.0,0.0,0.0,0.0,0.0,0.0,0.0,0.0,0.0,0.0,0.0,0.0,0.0,0.0,0.0,0.0,0.0,0.0,0.0,0.0,0.0,0.0,0.0,0.0,0.0,0.0,0.0,0.0,0.0,0.0,0.0,0.0,0.0,0.0,0.0,0.0,0.0,-5.5963,-5.7753,-5.8306,-5.8705,-5.8887,-5.7219,-5.5495,0.0,0.0,0.0,0.0,0.0,0.0,0.0,0.0,0.0,0.0,0.0,0.0,0.0,0.0,0.0,0.0,0.0,0.0,0.0,0.0,0.0,0.0,0.0,0.0,0.0,0.0,0.0,0.0,0.0,0.0,0.0,0.0,0.0,0.0,0.0,0.0,0.0,0.0,0.0,0.0,0.0,0.0,0.0,0.0,0.0,0.0,0.0,0.0,0.0,0.0,0.0,0.0,0.0,0.0,0.0,0.0,0.0,0.0,0.0,0.0,0.0,0.0,0.0,0.0,0.0,0.0,0.0,0.0,0.0,0.0,0.0,0.0,0.0,0.0,0.0,0.0,0.0,0.0,0.0,0.0,0.0,0.0,0.0,0.0,0.0,0.0,0.0,0.0,0.0,0.0,0.0,0.0,0.0,0.0,0.0,0.0,0.0,0.0,0.0,0.0,0.0,0.0,0.0,0.0,0.0,0.0,0.0,-5.5931,-5.772,-5.9647,-5.9503,-5.9785,-6.0577,-5.9477,-5.7983,-5.6179,0.0,0.0,0.0,0.0,0.0,0.0,0.0,0.0,0.0,0.0,0.0,0.0,0.0,0.0,0.0,0.0,0.0,0.0,0.0,0.0,0.0,0.0,0.0,0.0,0.0,0.0,0.0,0.0,0.0,0.0,0.0,0.0,0.0,0.0,0.0,0.0,0.0,0.0,-4.262,-4.312,0.0,0.0,0.0,0.0,0.0,0.0,0.0,0.0,-4.5274,0.0,0.0,0.0,0.0,0.0,0.0,0.0,0.0,0.0,0.0,0.0,0.0,0.0,0.0,0.0,0.0,0.0,0.0,0.0,0.0,0.0,0.0,0.0,0.0,0.0,0.0,0.0,0.0,0.0,0.0,0.0,0.0,0.0,0.0,0.0,0.0,0.0,0.0,0.0,0.0,0.0,0.0,0.0,0.0,0.0,0.0,0.0,0.0,0.0,0.0,0.0,0.0,0.0,0.0,0.0,0.0,-5.5866,-5.7999,-5.94,-5.996,-6.0953,-6.1272,-6.0881,-6.0835,-6.0102,-5.847,0.0,0.0,0.0,0.0,0.0,0.0,0.0,0.0,0.0,0.0,0.0,0.0,0.0,0.0,0.0,0.0,0.0,0.0,0.0,0.0,0.0,0.0,0.0,0.0,0.0,0.0,0.0,0.0,0.0,0.0,0.0,0.0,0.0,0.0,0.0,0.0,0.0,0.0,0.0,-4.4077,-4.4347,0.0,0.0,0.0,0.0,0.0,0.0,0.0,0.0,-4.5244,0.0,0.0,0.0,0.0,0.0,0.0,0.0,0.0,0.0,0.0,0.0,0.0,0.0,0.0,0.0,0.0,0.0,0.0,0.0,0.0,0.0,0.0,0.0,0.0,0.0,0.0,0.0,0.0,0.0,0.0,0.0,0.0,0.0,0.0,0.0,0.0,0.0,0.0,0.0,0.0,0.0,0.0,0.0,0.0,0.0,0.0,0.0,0.0,0.0,0.0,0.0,0.0,0.0,0.0,0.0,-5.7486,-5.9152,-6.0329,-6.1019,-6.1709,-6.1908,-6.1683,-6.1462,-6.0757,0.0,0.0,0.0,0.0,0.0,0.0,0.0,0.0,0.0,0.0,0.0,0.0,0.0,0.0,0.0,0.0,0.0,0.0,0.0,0.0,0.0,0.0,0.0,0.0,0.0,0.0,0.0,0.0,0.0,0.0,0.0,0.0,0.0,0.0,0.0,0.0,0.0,0.0,0.0,0.0,-4.4616,-4.4945,-4.5274,0.0,0.0,0.0,0.0,0.0,0.0,-4.6322,-4.6232,0.0,0.0,0.0,0.0,0.0,0.0,0.0,0.0,0.0,0.0,0.0,0.0,0.0,0.0,0.0,0.0,0.0,0.0,0.0,0.0,0.0,0.0,0.0,0.0,0.0,0.0,0.0,0.0,0.0,0.0,0.0,0.0,0.0,0.0,0.0,0.0,0.0,0.0,0.0,0.0,0.0,0.0,0.0,0.0,0.0,0.0,0.0,0.0,0.0,0.0,0.0,0.0,0.0,0.0,0.0,-5.8705,-6.0011,-6.1107,-6.1963,-6.2037,-6.2189,-6.2381,-6.1806,-6.1061,0.0,0.0,0.0,0.0,0.0,0.0,0.0,0.0,0.0,0.0,0.0,0.0,0.0,0.0,0.0,0.0,0.0,0.0,0.0,0.0,0.0,0.0,0.0,0.0,0.0,0.0,0.0,0.0,0.0,0.0,0.0,0.0,0.0,0.0,0.0,0.0,0.0,0.0,0.0,0.0,0.0,-4.5544,-4.5693,-4.5813,0.0,0.0,0.0,0.0,-4.7608,-4.7698,0.0,0.0,0.0,0.0,0.0,0.0,0.0,0.0,0.0,0.0,0.0,0.0,0.0,0.0,0.0,0.0,0.0,0.0,0.0,0.0,0.0,0.0,0.0,0.0,0.0,0.0,0.0,0.0,0.0,0.0,0.0,0.0,0.0,0.0,0.0,0.0,0.0,0.0,0.0,0.0,0.0,0.0,0.0,0.0,0.0,0.0,0.0,0.0,0.0,0.0,0.0,0.0,0.0,0.0,0.0,0.0,-5.9172,-6.0912,-6.1856,-6.1997,-6.2229,-6.2381,-6.2415,-6.2313,-6.1603,0.0,0.0,0.0,0.0,0.0,0.0,0.0,0.0,0.0,0.0,0.0,0.0,0.0,0.0,0.0,0.0,0.0,0.0,0.0,0.0,0.0,0.0,0.0,0.0,0.0,0.0,0.0,0.0,0.0,0.0,0.0,0.0,0.0,0.0,0.0,0.0,0.0,0.0,0.0,0.0,0.0,-4.6411,-4.698,-4.7578,-4.7967,0.0,0.0,-4.897,-4.909,-4.909,0.0,0.0,0.0,0.0,0.0,0.0,0.0,0.0,0.0,0.0,0.0,0.0,0.0,0.0,0.0,0.0,0.0,0.0,0.0,0.0,0.0,0.0,0.0,0.0,0.0,0.0,0.0,0.0,0.0,0.0,0.0,0.0,0.0,0.0,0.0,0.0,0.0,0.0,0.0,0.0,0.0,0.0,0.0,0.0,0.0,0.0,0.0,0.0,0.0,0.0,0.0,0.0,0.0,0.0,0.0,-5.9773,-6.0281,-6.1969,-6.283,-6.283,-6.2984,-6.3024,-6.3024,-6.2618,-6.167,0.0,0.0,0.0,0.0,0.0,0.0,0.0,0.0,0.0,0.0,0.0,0.0,0.0,0.0,0.0,0.0,0.0,0.0,0.0,0.0,0.0,0.0,0.0,0.0,0.0,0.0,0.0,0.0,0.0,0.0,0.0,0.0,0.0,0.0,0.0,0.0,0.0,0.0,0.0,0.0,0.0,0.0,-4.8547,-4.901,0.0,0.0,0.0,-4.9464,-4.9299,0.0,0.0,0.0,0.0,0.0,0.0,0.0,0.0,0.0,0.0,0.0,0.0,0.0,0.0,0.0,0.0,0.0,0.0,0.0,0.0,0.0,0.0,0.0,0.0,0.0,0.0,0.0,0.0,0.0,0.0,0.0,0.0,0.0,0.0,0.0,0.0,0.0,0.0,0.0,0.0,0.0,0.0,0.0,0.0,0.0,0.0,0.0,0.0,0.0,0.0,0.0,0.0,0.0,0.0,0.0,0.0,0.0,-6.1491,-6.29,-6.3758,-6.3928,-6.3848,-6.378,-6.3577,-6.2995,0.0,0.0,0.0,0.0,0.0,0.0,0.0,0.0,0.0,0.0,0.0,0.0,0.0,0.0,0.0,0.0,0.0,0.0,0.0,0.0,0.0,0.0,0.0,0.0,0.0,0.0,0.0,-4.4766,0.0,0.0,0.0,0.0,0.0,0.0,0.0,0.0,0.0,0.0,0.0,0.0,0.0,0.0,-4.904,-4.9611,-5.0031,-5.0166,0.0,0.0,-5.005,-4.9869,-4.9899,-4.9839,0.0,0.0,0.0,0.0,0.0,0.0,0.0,0.0,0.0,0.0,0.0,0.0,0.0,0.0,0.0,0.0,0.0,0.0,0.0,0.0,0.0,0.0,0.0,0.0,0.0,0.0,0.0,0.0,-5.5681,0.0,0.0,0.0,0.0,0.0,0.0,0.0,0.0,0.0,0.0,0.0,0.0,0.0,0.0,0.0,0.0,0.0,0.0,0.0,0.0,0.0,0.0,0.0,0.0,0.0,-6.2105,-6.2893,-6.3645,-6.443,-6.5152,-6.4914,-6.4455,-6.3809,-6.3543,-6.2753,0.0,0.0,0.0,0.0,0.0,0.0,0.0,0.0,0.0,0.0,0.0,0.0,0.0,0.0,0.0,0.0,0.0,0.0,0.0,0.0,0.0,0.0,0.0,0.0,0.0,0.0,0.0,0.0,0.0,0.0,0.0,0.0,0.0,0.0,0.0,0.0,0.0,0.0,0.0,0.0,0.0,-4.9642,-4.9938,-5.0514,-5.0939,0.0,0.0,-5.1452,-5.1452,-5.1452,-5.1241,-5.0638,0.0,0.0,0.0,0.0,0.0,0.0,0.0,0.0,0.0,0.0,0.0,0.0,0.0,0.0,0.0,0.0,0.0,0.0,0.0,0.0,0.0,0.0,0.0,0.0,0.0,-5.7036,0.0,0.0,-5.707,0.0,0.0,0.0,0.0,0.0,0.0,0.0,0.0,0.0,0.0,0.0,0.0,0.0,0.0,0.0,0.0,0.0,0.0,0.0,0.0,0.0,0.0,0.0,0.0,-6.2487,-6.3649,-6.4401,-6.5186,-6.5938,-6.5738,-6.5447,-6.5175,-6.4532,-6.3497,0.0,0.0,0.0,0.0,0.0,0.0,0.0,0.0,0.0,0.0,0.0,0.0,0.0,0.0,0.0,0.0,0.0,0.0,0.0,0.0,0.0,0.0,0.0,0.0,0.0,0.0,0.0,0.0,-4.7758,-4.8147,-4.8117,0.0,0.0,0.0,0.0,0.0,0.0,0.0,0.0,0.0,0.0,-5.1097,-5.1748,-5.2202,0.0,0.0,-5.2244,-5.2246,-5.2033,-5.2033,-5.1942,-5.1698,-5.1558,0.0,0.0,0.0,0.0,0.0,0.0,0.0,0.0,0.0,0.0,0.0,0.0,0.0,0.0,0.0,0.0,0.0,0.0,0.0,0.0,0.0,0.0,0.0,0.0,0.0,0.0,0.0,0.0,0.0,0.0,0.0,0.0,0.0,0.0,0.0,0.0,0.0,0.0,0.0,0.0,0.0,0.0,0.0,0.0,0.0,0.0,0.0,0.0,0.0,0.0,0.0,0.0,-6.3549,-6.4786,-6.5504,-6.6294,-6.697,-6.677,-6.6506,-6.6187,-6.5433,-6.4424,0.0,0.0,0.0,0.0,0.0,0.0,0.0,0.0,0.0,0.0,0.0,0.0,0.0,0.0,0.0,0.0,0.0,0.0,0.0,0.0,0.0,0.0,0.0,0.0,0.0,0.0,0.0,0.0,-4.903,-4.9299,-4.9299,0.0,0.0,0.0,0.0,0.0,0.0,0.0,0.0,0.0,0.0,-5.256,-5.3476,-5.3634,-5.3646,-5.3627,-5.3224,-5.2802,-5.2667,-5.2622,-5.2622,-5.2622,0.0,0.0,0.0,0.0,0.0,0.0,0.0,0.0,0.0,0.0,0.0,0.0,0.0,0.0,0.0,0.0,0.0,0.0,0.0,0.0,0.0,0.0,0.0,0.0,0.0,0.0,0.0,-5.7881,0.0,0.0,-5.7949,0.0,0.0,0.0,0.0,0.0,0.0,0.0,0.0,0.0,0.0,0.0,0.0,0.0,0.0,0.0,0.0,0.0,0.0,0.0,0.0,0.0,0.0,-6.564,-6.644,-6.7171,-6.7825,-6.8362,-6.8162,-6.7655,-6.6804,-6.6227,-6.561,-6.4869,0.0,0.0,0.0,0.0,0.0,0.0,0.0,0.0,0.0,0.0,0.0,0.0,0.0,0.0,0.0,0.0,0.0,0.0,0.0,0.0,0.0,0.0,0.0,0.0,0.0,0.0,-4.9299,-4.9329,-4.9359,0.0,0.0,0.0,0.0,0.0,0.0,0.0,0.0,0.0,0.0,-5.281,-5.3772,-5.4913,-5.4514,-5.4324,-5.4956,-5.4122,-5.3409,-5.3409,-5.3409,-5.3377,0.0,0.0,0.0,0.0,0.0,0.0,0.0,0.0,0.0,0.0,0.0,0.0,0.0,0.0,0.0,0.0,0.0,0.0,0.0,0.0,0.0,0.0,0.0,0.0,0.0,0.0,0.0,-5.937,-5.937,0.0,0.0,0.0,0.0,0.0,0.0,0.0,0.0,0.0,0.0,0.0,-6.0855,-6.1843,0.0,0.0,0.0,0.0,0.0,0.0,0.0,0.0,0.0,0.0,0.0,0.0,-6.7089,-6.8386,-6.8667,-6.9325,-7.0318,-7.0158,-6.9743,-6.9176,-6.8248,-6.6991,-6.5447,0.0,0.0,0.0,0.0,0.0,0.0,0.0,0.0,0.0,0.0,0.0,0.0,0.0,0.0,0.0,0.0,0.0,0.0,0.0,0.0,0.0,0.0,0.0,0.0,0.0,-5.0593,0.0,0.0,0.0,0.0,0.0,0.0,0.0,0.0,0.0,0.0,0.0,-5.2653,-5.3263,-5.3882,-5.4677,-5.5878,-5.5866,-5.576,0.0,0.0,0.0,0.0,0.0,0.0,0.0,0.0,0.0,0.0,0.0,0.0,0.0,0.0,-5.5642,-5.4493,-5.4677,-5.4998,-5.4998,0.0,0.0,0.0,0.0,0.0,0.0,0.0,0.0,0.0,0.0,0.0,0.0,0.0,0.0,-6.008,0.0,-6.008,0.0,0.0,0.0,0.0,0.0,0.0,0.0,0.0,-6.2451,-6.2912,-6.2948,-6.4043,-6.4883,0.0,-6.6249,-6.5823,0.0,0.0,0.0,0.0,0.0,0.0,0.0,0.0,-6.8717,-6.9778,-7.0308,-7.0939,-7.1663,-7.1469,-7.1124,-7.0758,-6.9673,-6.8213,-6.626,-6.4722,-6.37,0.0,0.0,0.0,0.0,0.0,0.0,0.0,0.0,0.0,0.0,0.0,0.0,0.0,0.0,0.0,0.0,0.0,0.0,0.0,0.0,0.0,0.0,0.0,-5.1788,0.0,0.0,0.0,0.0,0.0,0.0,0.0,0.0,0.0,-5.2743,-5.3388,-5.4115,-5.4687,-5.5377,-5.6214,-5.7335,0.0,0.0,0.0,0.0,0.0,0.0,0.0,-5.7387,-5.7387,-5.7767,-5.8059,-5.8059,-5.8059,-5.8141,-5.8543,0.0,0.0,-5.6849,-5.7005,-5.7331,-5.7331,-5.7364,-5.7487,-5.7657,-5.7536,-5.7448,0.0,0.0,0.0,0.0,0.0,0.0,0.0,0.0,-6.0431,-6.0317,0.0,-6.0351,0.0,0.0,0.0,0.0,0.0,-6.2607,0.0,0.0,-6.5563,-6.6586,-6.659,-6.7306,-6.7688,-6.7757,-6.8095,-6.8395,-6.8529,-6.8064,0.0,0.0,0.0,0.0,0.0,0.0,-7.0582,-7.0725,-7.2084,-7.2691,-7.2436,-7.2144,-7.1809,-7.142,-7.0591,-6.9206,-6.7392,-6.6972,-6.6136,-6.4715,-6.3294,0.0,0.0,0.0,0.0,0.0,0.0,0.0,0.0,0.0,0.0,0.0,0.0,0.0,0.0,0.0,0.0,0.0,0.0,0.0,0.0,-5.2819,0.0,0.0,0.0,0.0,0.0,0.0,0.0,0.0,0.0,0.0,-5.379,-5.4735,-5.5751,-5.6218,0.0,0.0,0.0,0.0,-5.8626,-5.9273,-5.8647,-5.8055,-5.8055,-5.8296,-5.8536,-5.8495,0.0,0.0,-5.9079,-5.9112,-5.9186,-5.9285,-5.9425,-5.9252,-5.9053,-5.894,-5.8906,-5.894,-5.8973,-5.9053,-5.9245,-5.9385,-5.951,-6.4794,0.0,0.0,0.0,0.0,-6.2557,-6.2771,-6.2897,-6.3333,-6.3532,-6.3532,-6.3498,0.0,0.0,0.0,0.0,0.0,0.0,-6.5595,-6.5667,-6.7338,-6.8152,-6.8152,-6.9445,-7.0353,-7.0891,-7.1254,-7.1769,-7.2509,-7.238,-7.1063,-6.8742,0.0,0.0,0.0,0.0,-7.2485,-7.353,-7.3895,-7.4189,-7.4365,-7.4292,-7.3525,-7.2031,-7.127,-7.0241,-6.8821,-6.7989,-6.7151,-6.6203,-6.5256,0.0,0.0,0.0,0.0,0.0,0.0,0.0,0.0,0.0,0.0,0.0,0.0,0.0,0.0,0.0,0.0,0.0,0.0,0.0,-5.5108,-5.5171,-5.5171,0.0,0.0,0.0,0.0,0.0,0.0,0.0,0.0,0.0,-5.6584,-5.667,-5.7012,0.0,0.0,-5.901,-6.0104,-6.0044,-6.0137,-6.0746,-6.1028,0.0,0.0,-6.1574,-6.2065,-6.2107,-6.2349,-6.2515,-6.2515,-6.2515,-6.2431,-6.2099,-6.2038,-6.1944,-6.1452,-6.0677,-6.0144,-6.0144,-6.0512,-6.1079,-6.1628,-6.1884,-6.2213,-6.7303,-6.4944,-6.4519,-6.4392,-6.4426,-6.4624,-6.47,-6.4684,-6.505,-6.5141,-6.5062,-6.5062,-6.5215,-6.5451,-6.5959,0.0,0.0,0.0,-6.832,-6.8391,-6.9919,-7.0623,-7.0693,-7.1729,-7.2528,-7.2995,-7.3252,-7.3665,-7.4269,-7.4368,-7.3323,-7.1282,0.0,0.0,-7.2657,-7.3398,-7.4203,-7.5077,-7.5373,-7.5534,-7.562,-7.5334,-7.4496,-7.3042,-7.24,-7.1435,-7.0132,-6.9347,-6.8421,-6.7286,-6.6542,-6.5392,0.0,0.0,0.0,0.0,0.0,0.0,0.0,0.0,0.0,0.0,0.0,-5.5038,-5.5038,0.0,0.0,0.0,-5.6103,-5.6294,-5.671,-5.6742,0.0,0.0,0.0,0.0,0.0,0.0,0.0,-5.813,-5.8744,-5.9404,-5.9952,-5.9876,-5.969,-5.9622,-6.0381,-6.1158,-6.1877,0.0,-6.2037,-6.239,-6.2816,-6.3075,-6.2949,-6.345,-6.3919,-6.4003,-6.4161,-6.4244,-6.4244,-6.4278,-6.4117,-6.3829,-6.3735,-6.364,-6.3322,-6.2655,-6.1957,-6.1452,-6.1883,-6.2556,-6.2993,-6.3451,-6.3869,-6.9521,-6.9183,-6.8373,-6.7621,-6.7059,-6.6805,-6.6436,-6.6056,-6.5899,-6.5774,-6.5647,-6.5647,-6.5799,-6.614,-6.7374,0.0,-6.8092,-7.0271,-7.1268,-7.1339,-7.2862,-7.3562,-7.3596,-7.4127,-7.4456,-7.4456,-7.465,-7.4749,-7.4785,-7.5013,-7.5074,-7.5001,-7.4811,-7.4676,-7.4566,-7.5265,-7.5666,-7.5739,-7.64,-7.6639,-7.6311,-7.5585,-7.4931,-7.422,-7.3627,-7.2665,-7.1343,-7.084,-6.9814,-6.8064,-6.7354,-6.6609,-6.573,0.0,0.0,0.0,0.0,0.0,0.0,0.0,0.0,0.0,0.0,0.0,0.0,0.0,0.0,-5.7878,-5.7975,0.0,-5.804,-5.804,0.0,0.0,0.0,-5.804,-5.804,-5.921,-6.0065,-6.0359,0.0,0.0,-6.3415,-6.3739,-6.3315,-6.185,-6.3008,-6.3994,-6.407,-6.4036,-6.417,-6.4204,-6.4304,-6.4372,-6.4606,-6.4774,-6.4941,-6.5005,-6.485,-6.4911,-6.4843,-6.4809,-6.4816,-6.4681,-6.4681,-6.4613,-6.4613,-6.4404,-6.4174,-6.2821,-6.3125,-6.3592,-6.3761,-6.4235,-6.4749,-7.2076,-7.1983,-7.1629,-7.003,-6.7722,-6.8046,-6.7793,-6.7269,-6.7715,-6.8189,-6.8582,-6.8547,-6.9129,-7.0074,-7.0857,-7.1188,-7.1224,-7.2334,-7.286,-7.2932,-7.4299,-7.4925,-7.4958,-7.5963,-7.6413,-7.6449,-7.7228,-7.7615,-7.7652,-7.827,-7.8301,-7.7683,-7.7615,-7.6924,-7.5751,-7.5775,-7.6115,-7.6737,-7.6793,-7.6639,-7.6275,-7.5691,-7.5044,-7.4446,-7.3707,-7.2908,-7.2099,-7.1591,-7.0561,-6.891,-6.8639,-6.7692,-6.5797,-6.5358,0.0,0.0,0.0,0.0,0.0,0.0,0.0,0.0,0.0,-5.832,-5.836,0.0,-5.9053,0.0,-6.1297,-6.1923,-6.1923,-6.1966,0.0,0.0,-6.1923,-6.1923,-6.1966,-6.222,-6.2537,-6.2752,-6.36,-6.4328,-6.4619,-6.5804,-6.6503,-6.6057,-6.4967,-6.4285,-6.4409,-6.4922,-6.5462,-6.6036,-6.6576,-6.7192,-6.7656,-6.7901,-6.7717,-6.7218,-6.7083,-6.6948,-6.6373,-6.6305,-6.6102,-6.5561,-6.5425,-6.5222,-6.4749,-6.4613,-6.4512,-6.414,-6.4241,-6.4512,-6.5053,-6.529,-6.5595,-7.3588,-7.3525,-7.3393,-7.2247,-7.043,-6.9873,-6.9212,-6.8707,-6.9444,-6.9852,-7.0043,-7.0546,-7.116,-7.1847,-7.2794,-7.3226,-7.3405,-7.4286,-7.4738,-7.4875,-7.5738,-7.6327,-7.6728,-7.7422,-7.795,-7.8317,-7.8888,-7.9103,-7.914,-7.958,-7.958,-7.914,-7.914,-7.8662,-7.7745,-7.6955,-7.6747,-7.7186,-7.7358,-7.7498,-7.7525,-7.6689,-7.5908,-7.532,-7.4159,-7.3183,-7.2467,-7.1994,-7.109,-6.9698,-6.9586,-6.8707,-6.6779,-6.6373,-6.5865,0.0,0.0,0.0,0.0,0.0,0.0,0.0,0.0,0.0,0.0,0.0,-6.1517,-6.2316,-6.3115,-6.3715,-6.4091,-6.4124,-6.4257,-6.459,-6.4581,-6.4624,-6.4624,-6.489,-6.5134,-6.5263,-6.5985,-6.6507,-6.6705,-6.7627,-6.8297,-6.8263,-6.7217,-6.6449,-6.6601,-6.6981,-6.7354,-6.7793,-6.8166,-6.8571,-6.9045,-6.9079,-6.8977,-6.8538,-6.8436,-6.8301,-6.7895,-6.7827,-6.7557,-6.6846,-6.6677,-6.644,-6.5764,-6.5595,-6.5595,-6.5595,-6.5595,-6.5628,-6.5662,-6.5967,-6.6339,-7.442,-7.4324,-7.4324,-7.4167,-7.3763,-7.1917,-7.0832,-7.0345,-7.1055,-7.1193,-7.1004,-7.2186,-7.2723,-7.2831,-7.4011,-7.4684,-7.4893,-7.5952,-7.6548,-7.6825,-7.7144,-7.7709,-7.8478,-7.8673,-7.9103,-7.9764,-7.991,-7.9947,-7.9947,-8.0021,-8.0021,-7.9947,-7.991,-7.991,-7.9727,-7.8369,-7.7604,-7.7604,-7.8212,-7.8711,-7.9172,-7.8046,-7.7055,-7.6296,-7.4826,-7.3612,-7.2644,-7.221,-7.1426,-7.0273,-7.0195,-6.9519,-6.8132,-6.7455,-6.6812,0.0,-6.5425,0.0,0.0,0.0,0.0,0.0,0.0,0.0,0.0,-6.391,-6.4413,-6.4481,-6.4615,-6.4917,-6.5554,-6.5588,-6.5856,-6.6493,-6.6594,-6.6594,-6.6594,-6.7131,-6.75,-6.75,-6.8415,-6.9052,-6.9019,-6.9397,-6.9654,-6.9789,-6.9755,-6.9654,-6.962,-6.935,-6.9147,-6.9248,-6.9316,-6.9485,-6.9519,-6.9451,-6.9417,-6.9282,-6.9248,-6.9214,-6.9045,-6.9011,-6.8842,-6.8199,-6.7996,-6.776,-6.7083,-6.6948,-6.688,-6.6745,-6.6711,-6.6542,-6.6068,-6.6339,-6.6779,-7.4896,-7.5055,-7.4994,-7.4961,-7.4958,-7.3783,-7.2988,-7.251,-7.2653,-7.2976,-7.3403,-7.444,-7.4941,-7.5118,-7.568,-7.6061,-7.6228,-7.6733,-7.7295,-7.7984,-7.8244,-7.8741,-7.9512,-7.9543,-7.9653,-7.9869,-8.0461,-8.0791,-8.0791,-8.1415,-8.1415,-8.0791,-8.0791,-8.0461,-7.98,0.0,0.0,0.0,-7.9438,-7.9425,-7.9208,-7.8693,-7.7738,-7.6332,-7.5395,0.0,-7.2678,-7.221,-7.1426,-7.0273,-7.0195,0.0,0.0,0.0,0.0,0.0,0.0,0.0,0.0,0.0,0.0,0.0,-6.6931,-6.601,-6.4491,-6.5504,-6.6517,-6.7091,-6.7732,-6.8205,-6.8306,-6.834,-6.8408,-6.8509,-6.8543,-6.8543,-6.8543,-6.8678,-6.8745,-6.8779,-6.9972,-7.0782,-7.085,-7.1887,-7.2597,-7.2462,-7.2631,-7.2665,-7.2563,-7.1075,-7.006,-7.0026,-7.0534,-7.0872,-7.0906,-7.0872,-7.0601,-7.0195,-6.9992,-6.9789,-6.9316,-6.9147,-6.9113,-6.8876,-6.8876,-6.8639,-6.7861,-6.7692,-6.7489,-6.6914,-6.6812,-6.6779,-6.6643,-6.6711,-6.6812,-7.5254,0.0,-7.5426,-7.553,0.0,-7.5128,-7.4742,-7.4538,-7.4174,-7.4394,-7.5046,-7.5942,-7.6443,-7.6615,-7.7323,-7.781,-7.8041,-7.8236,-7.8583,-7.9013,-7.9145,-7.9617,-8.0388,-8.0388,-8.0608,-8.0975,-8.1379,-8.1599,-8.1599,-8.2003,-8.2003,-8.1599,-8.1599,-8.1379,-8.1012,-8.1379,-8.1195,-8.0388,-8.0388,-8.041,-8.0339,-7.9774,-7.8853,-7.766,0.0,0.0,0.0,0.0,0.0,0.0,0.0,0.0,0.0,0.0,0.0,-6.9113,-6.8707,-6.8504,-6.847,-6.8166,-6.8098,-6.847,-6.8842,-6.8402,-6.6914,-6.7523,-6.8233,-6.8977,-6.9417,-6.9925,-7.0635,-7.0737,-7.0872,-7.121,-7.1278,-7.1278,-7.1278,-7.1244,-7.1278,-7.1312,-7.1921,-7.2394,-7.2394,-7.2969,-7.3443,-7.3477,-7.3477,-7.351,-7.3409,-7.2563,-7.1819,-7.1819,-7.209,-7.2225,-7.1921,-7.1853,-7.1582,-7.0939,-7.0737,-7.0601,-7.0263,-7.0195,-7.0094,-6.9755,-6.9654,-6.9383,-6.8673,-6.8199,-6.7793,-6.7421,-6.7049,-6.6846,-6.6812,-6.6812,-6.6812,-7.5298,-7.5334,-7.5657,-7.5907,-7.5978,-7.6227,-7.6402,-7.6433,0.0,0.0,0.0,-7.719,-7.7655,-7.793,-7.8719,-7.9245,-7.954,-7.9572,-7.9709,-8.0021,-7.9984,-8.0424,-8.1195,-8.1232,-8.1562,-8.215,-8.2186,-8.2186,-8.2186,-8.2333,-8.2406,-8.2406,-8.2553,-8.259,-8.2663,-8.3287,-8.2957,-8.1709,-8.1489,-8.1546,-8.1795,-8.0861,-7.997,-7.9026,-7.7776,-7.6362,-7.4733,-7.4024,-7.3186,-7.2087,-7.1819,-7.1413,-7.0838,-7.077,-7.05,-6.9925,-6.9891,-6.9857,-6.9891,-6.9891,-6.9891,-6.9891,-7.0432,-7.0398,-6.9553,-6.962,-6.9992,-7.0703,-7.077,-7.1278,-7.2462,-7.2597,-7.2834,-7.3409,-7.3477,-7.3443,-7.3443,-7.3477,-7.3341,-7.3477,-7.351,-7.368,-7.3646,-7.3815,-7.3883,-7.3883,-7.3984,-7.3883,-7.3815,-7.3578,-7.3274,-7.3274,-7.324,-7.3206,-7.2766,-7.2597,-7.2293,-7.165,-7.1515,-7.1481,-7.1345,-7.1312,-7.1075,-7.0466,-7.0398,-7.006,-6.9451,-6.8842,-6.8233,-6.7963,-6.7421,-6.6948,-6.6846,-6.6812,-6.6812,-7.4555,-7.4707,-7.5607,-7.6152,-7.6553,-7.7234,-7.7847,-7.8269,-7.7507,-7.7285,-7.7601,-7.84,-7.8896,-7.9227,-7.9369,-7.954,-7.9769,-7.9769,-8.0167,0.0,-8.0828,-8.1269,-8.2003,-8.2039,-8.2076,-8.2186,-8.2186,-8.2186,-8.226,-8.2884,-8.3251,-8.3324,-8.3911,-8.4242,-8.4278,-8.4389,-8.4315,-8.4095,-8.3398,-8.2938,-8.2636,-8.1661,-8.0442,-7.9062,-7.8345,-7.7173,-7.5499,-7.4818,-7.4169,-7.3617,-7.3344,-7.3138,-7.3037,-7.2969,-7.2969,-7.2868,-7.2868,-7.2868,-7.2868,-7.2868,-7.2868,-7.2868,-7.2969,-7.2462,-7.1176,-7.1582,-7.2225,-7.2935,-7.2935,-7.3105,-7.3341,-7.3375,-7.3443,-7.351,-7.351,-7.3477,-7.3612,-7.3646,-7.368,-7.3713,-7.4052,-7.4492,-7.4559,-7.4965,-7.5236,-7.5337,-7.5134,-7.5303,-7.5067,-7.4289,-7.3578,-7.3477,-7.3477,-7.3443,-7.3375,-7.3341,-7.3003,-7.236,-7.2191,-7.1954,-7.1379,-7.1312,-7.1244,-7.1142,-7.1075,-7.0804,-7.0161,-6.9992,-6.9282,-6.8301,-6.7793,-6.7523,-6.6981,-6.6812,-6.6812,-7.4703,-7.5323,-7.5873,-7.6324,-7.6669,-7.7328,-7.7879,-7.8243,-7.8529,-7.8626,-7.8638,-7.9301,-7.9834,-8.0166,-8.0605,-8.0886,-8.1085,-8.1085,-8.1269,-8.1636,-8.1672,-8.1856,-8.215,-8.2186,-8.2443,-8.2847,-8.2847,-8.3067,-8.3508,-8.3875,-8.4058,-8.4095,-8.4425,-8.4829,-8.5233,-8.5233,-8.549,-8.5857,-8.4682,-8.3924,-8.3649,-8.3039,-8.2287,-8.1266,-8.0655,-7.9544,-7.7902,-7.6669,-7.5626,-7.4719,-7.3945,-7.3477,-7.3477,-7.3477,-7.3477,-7.3477,-7.3477,-7.3477,-7.3477,-7.3477,-7.3477,-7.3477,-7.3849,-7.3849,-7.3172,-7.3037,-7.3308,-7.4018,-7.4086,-7.4255,-7.4627,-7.4695,-7.4695,-7.4695,-7.5067,-7.5337,-7.5405,-7.5709,-7.5912,-7.5912,-7.5879,-7.5845,-7.5845,-7.5777,-7.5709,-7.5676,-7.5676,-7.5676,-7.5676,-7.5134,-7.4695,-7.4695,-7.4695,-7.4492,-7.4187,-7.4119,-7.3646,-7.2597,-7.2394,-7.209,-7.1481,-7.1312,-7.1312,-7.1312,-7.1312,-7.1176,-7.0804,-7.0432,-6.9722,-6.891,-6.8132,-6.7658,-6.7049,-6.6812,-6.6677,-7.4914,-7.5722,-7.6063,-7.6485,-7.6987,-7.7582,-7.793,-7.8228,-7.9248,-7.9611,-7.9628,-8.0244,-8.067,-8.1007,-8.1696,-8.2055,-8.2186,-8.2186,-8.2186,-8.2186,-8.237,-8.248,-8.2517,-8.2627,-8.3067,-8.3618,-8.3691,-8.3985,-8.4572,-8.4792,-8.4976,-8.5123,-8.5123,-8.5453,-8.6077,-8.6077,-8.6371,-8.6885,-8.5783,-8.4948,-8.4556,-8.4237,-8.3701,-8.315,-8.2464,-8.1495,-7.9986,-7.8518,-7.725,-7.6165,-7.5077,-7.4424,-7.4255,-7.4255,-7.4187,-7.4018,-7.3984,-7.3984,-7.3984,-7.3984,-7.3984,-7.4018,-7.4695,-7.5134,-7.5067,-7.4762,-7.4559,-7.483,-7.483,-7.5134,-7.5777,-7.5946,-7.6014,-7.6217,-7.6758,-7.7063,-7.7198,-7.7638,-7.801,-7.7908,-7.7468,-7.713,-7.7029,-7.6454,-7.5946,-7.5743,-7.5676,-7.5676,-7.5676,-7.5676,-7.5676,-7.5676,-7.5676,-7.5439,-7.4965,-7.4864,-7.4322,-7.3071,-7.2766,-7.2428,-7.1819,-7.1481,-7.1312,-7.1312,-7.1312,-7.1278,-7.1244,-7.0872,-7.0128,-6.9248,-6.8605,-6.7929,-6.7015,-6.6643,-6.6305,-7.4713,-7.5103,-7.6019,-7.7058,-7.8007,-7.8541,-7.8791,-7.9068,-7.964,-8.0141,-8.0551,-8.1192,-8.1574,-8.1776,-8.2051,-8.219,-8.2223,-8.2186,-8.2223,-8.2333,-8.2957,-8.3324,-8.3361,-8.4022,-8.4425,-8.4499,-8.4499,-8.4572,-8.4756,-8.538,-8.604,-8.6701,-8.6775,-8.6775,-8.6885,-8.6885,-8.6921,-8.7031,-8.6885,-8.6341,-8.5396,-8.4492,-8.3701,-8.3114,-8.2538,-8.1744,-8.0907,-7.9768,-7.8924,-7.8455,-7.7794,-7.7232,-7.6657,-7.6555,-7.6251,-7.5574,-7.5506,-7.5473,-7.5506,-7.5473,-7.5506,-7.554,-7.6217,-7.6657,-7.6657,-7.7164,-7.6927,-7.6014,-7.5642,-7.598,-7.6657,-7.6792,-7.6995,-7.7502,-7.7773,-7.7874,-7.7908,-7.7942,-7.801,-7.801,-7.801,-7.7874,-7.7807,-7.7198,-7.6487,-7.5912,-7.5743,-7.5676,-7.5676,-7.5676,-7.5676,-7.5676,-7.5676,-7.5676,-7.554,-7.5574,-7.51,-7.439,-7.3781,-7.3071,-7.236,-7.1684,-7.1312,-7.1312,-7.1312,-7.1312,-7.1244,-7.1176,-7.0635,-6.9282,-6.8707,-6.8436,-6.7184,-6.6339,-6.5662,-7.5174,-7.5845,-7.6289,-7.6913,-7.7641,-7.8244,-7.8539,-7.8664,-7.9236,-7.9921,-8.0739,-8.1343,-8.1703,-8.1959,-8.2465,-8.2784,-8.2957,-8.3398,-8.3618,-8.3618,-8.3985,-8.4095,-8.4168,-8.4425,-8.4829,-8.527,-8.5306,-8.5563,-8.6004,-8.6371,-8.6701,-8.6995,-8.7031,-8.7031,-8.7031,-8.7031,-8.7031,-8.7031,-8.7031,-8.6813,-8.6343,-8.5769,-8.5228,-8.486,-8.4173,-8.3488,-8.2623,-8.1285,-8.0225,-7.9582,-7.8715,-7.807,-7.757,-7.7536,-7.7401,-7.7063,-7.7063,-7.7063,-7.7029,-7.7063,-7.7063,-7.7063,-7.7367,-7.7536,-7.7536,-7.7841,-7.7671,-7.7198,-7.7063,-7.7198,-7.7502,-7.7536,-7.7671,-7.7976,-7.8348,-7.8653,-7.8653,-7.9025,-7.9295,-7.9261,-7.8923,-7.8653,-7.8483,-7.7638,-7.6826,-7.6386,-7.6048,-7.5709,-7.5676,-7.5676,-7.5676,-7.5676,-7.5676,-7.5676,-7.5676,-7.5676,-7.5371,-7.4728,-7.3984,-7.324,-7.2563,-7.1785,-7.1312,-7.1312,-7.1244,-7.1075,-7.0669,-7.0567,-7.0195,-6.8944,-6.7929,-6.7523,-6.6914,-6.6203,-6.5493,-7.5659,-7.6368,-7.6449,-7.6725,-7.7088,-7.7884,-7.8215,-7.838,-7.9233,-8.0111,-8.0886,-8.1484,-8.1885,-8.2207,-8.2926,-8.3388,-8.3701,-8.4248,-8.4575,-8.4609,-8.4792,-8.4903,-8.4939,-8.5196,-8.5563,-8.604,-8.6114,-8.6444,-8.6958,-8.7031,-8.7031,-8.7031,-8.7031,-8.7031,-8.7031,-8.7031,-8.7031,-8.7031,-8.7031,-8.7031,-8.6925,-8.6609,-8.6247,-8.5988,-8.5222,-8.4456,-8.3697,-8.2212,-8.1113,-8.0453,-7.9445,-7.868,-7.8314,-7.828,-7.8213,-7.801,-7.801,-7.801,-7.801,-7.801,-7.801,-7.801,-7.8145,-7.8314,-7.8314,-7.8483,-7.8585,-7.8585,-7.8585,-7.8551,-7.8314,-7.828,-7.8348,-7.8585,-7.9126,-7.9397,-7.9431,-7.9904,-8.0141,-8.0141,-7.9667,-7.9295,-7.8991,-7.8044,-7.7164,-7.686,-7.6183,-7.5676,-7.5676,-7.5676,-7.5676,-7.5676,-7.5676,-7.5676,-7.5676,-7.5676,-7.5405,-7.4931,-7.4221,-7.3308,-7.2699,-7.1988,-7.1312,-7.1312,-7.1176,-7.0906,-7.0432,-7.0094,-6.9519,-6.8301,-6.7387,-6.6914,-6.6846,-6.6068,-6.529,-7.5818,-7.6122,-7.6402,-7.6563,-7.6656,-7.7811,-7.8314,-7.8473,-8.0011,-8.0914,-8.1204,-8.1866,-8.2389,-8.2814,-8.341,-8.3879,-8.4229,-8.4373,-8.455,-8.4795,-8.5416,-8.5747,-8.5783,-8.6518,-8.6885,-8.6848,-8.6848,-8.6921,-8.7031,-8.7031,-8.7031,-8.7031,-8.7031,-8.7031,-8.7031,-8.7031,-8.7031,-8.7031,-8.7031,-8.7031,-8.6925,-8.6609,-8.621,-8.5801,-8.4988,-8.4171,-8.3262,-8.2245,-8.1448,-8.0985,-8.039,-7.9785,-7.916,-7.9058,-7.8754,-7.8179,-7.8044,-7.8044,-7.8077,-7.8111,-7.8111,-7.8145,-7.872,-7.9058,-7.9092,-7.9566,-7.987,-8.004,-7.9904,-7.9701,-7.9194,-7.9058,-7.9329,-7.9837,-8.004,-8.0107,-8.0107,-8.0107,-8.0175,-8.0209,-8.0107,-7.9803,-7.9228,-7.845,-7.7638,-7.6995,-7.6251,-7.5709,-7.5676,-7.5676,-7.5676,-7.5676,-7.5676,-7.5676,-7.5676,-7.5676,-7.5676,-7.5168,-7.4255,-7.3409,-7.2935,-7.2428,-7.1751,-7.1142,-7.0737,-7.0398,-7.0128,-6.9553,-6.8774,-6.7895,-6.7286,-6.688,-6.6576,-6.5493,-6.4749,-7.6062,-7.6632,-7.6836,-7.7216,-7.7741,-7.8298,-7.8635,-7.8901,-7.9602,-8.0434,-8.1296,-8.1852,-8.2601,-8.3519,-8.3884,-8.4263,-8.4681,-8.5227,-8.5625,-8.5943,-8.6235,-8.6451,-8.6628,-8.6885,-8.7031,-8.7031,-8.7031,-8.7031,-8.7031,-8.7031,-8.7031,-8.7031,-8.7031,-8.7031,-8.7031,-8.7031,-8.7031,-8.7031,-8.7031,-8.7031,-8.6997,-8.6609,-8.621,-8.5801,-8.5143,-8.4415,-8.3654,-8.2691,-8.1861,-8.1214,-8.0724,-8.0274,-7.9837,-7.9803,-7.9701,-7.9431,-7.9397,-7.9397,-7.9397,-7.9397,-7.9397,-7.9431,-7.9634,-7.9803,-7.9837,-8.004,-8.0209,-8.0209,-8.0209,-8.004,-7.9904,-7.9803,-7.9904,-8.0141,-8.0209,-8.0209,-8.0209,-8.0209,-8.0209,-8.0209,-8.0209,-8.0073,-7.9634,-7.8754,-7.7908,-7.7536,-7.6521,-7.5811,-7.5676,-7.5676,-7.5676,-7.5676,-7.5676,-7.5676,-7.5676,-7.5676,-7.554,-7.4897,-7.4153,-7.3341,-7.2732,-7.2056,-7.1379,-7.1075,-7.0567,-6.9823,-6.9485,-6.8504,-6.7793,-6.7489,-6.688,-6.6677,-6.617,-6.5256,-6.4546,-7.6758,-7.7246,-7.7392,-7.7711,-7.8235,-7.8749,-7.9044,-7.9269,-7.9806,-8.0558,-8.1435,-8.1923,-8.2682,-8.3454,-8.3783,-8.413,-8.4622,-8.5395,-8.6063,-8.6465,-8.6501,-8.668,-8.6856,-8.6891,-8.6962,-8.6997,-8.7031,-8.7031,-8.7031,-8.7031,-8.7031,-8.7031,-8.7031,-8.7031,-8.7031,-8.7031,-8.7031,-8.7031,-8.7031,-8.7031,-8.6925,-8.6609,-8.6247,-8.5763,-8.5143,-8.4415,-8.3654,-8.2691,-8.1861,-8.1228,-8.0724,-8.041,-8.0209,-8.0209,-8.0209,-8.0209,-8.0175,-8.0209,-8.0209,-8.0209,-8.0175,-8.0209,-8.0209,-8.0209,-8.0209,-8.0209,-8.0209,-8.0209,-8.0209,-8.0209,-8.0209,-8.0175,-8.0209,-8.0209,-8.0209,-8.0209,-8.0209,-8.0209,-8.0209,-8.0209,-8.0209,-8.0209,-8.004,-7.8822,-7.8145,-7.7976,-7.6657,-7.5743,-7.5676,-7.5676,-7.5676,-7.5676,-7.5676,-7.554,-7.5337,-7.5202,-7.5168,-7.4627,-7.3984,-7.3206,-7.2462,-7.1751,-7.121,-7.0906,-7.0297,-6.9451,-6.8538,-6.7523,-6.7083,-6.688,-6.6779,-6.6643,-6.5933,-6.5155,-6.441,-7.7942,-7.7976,-7.7976,-7.8093,-7.8345,-7.9118,-7.9488,-7.9771,-8.0706,-8.1249,-8.1616,-8.2118,-8.244,-8.2771,-8.2996,-8.3437,-8.3925,-8.4666,-8.5417,-8.6026,-8.61,-8.632,-8.668,-8.6715,-8.6821,-8.6997,-8.6997,-8.696,-8.696,-8.6925,-8.6962,-8.6997,-8.6925,-8.6927,-8.6997,-8.696,-8.696,-8.696,-8.6997,-8.7031,-8.6962,-8.6609,-8.6247,-8.5763,-8.4988,-8.4129,-8.3253,-8.2234,-8.1517,-8.1019,-8.051,-8.0209,-8.0209,-8.0209,-8.0209,-8.0209,-8.0209,-8.0209,-8.0209,-8.0209,-8.0209,-8.0209,-8.0209,-8.0209,-8.0209,-8.0209,-8.0209,-8.0209,-8.0209,-8.0209,-8.0209,-8.0209,-8.0209,-8.0209,-8.0209,-8.0209,-8.0209,-8.0209,-8.0209,-8.0209,-8.0209,-8.0209,-7.9904,-7.8923,-7.8044,-7.7739,-7.669,-7.5676,-7.5676,-7.5676,-7.5676,-7.5608,-7.5473,-7.5236,-7.4897,-7.4593,-7.4593,-7.439,-7.3747,-7.3037,-7.2293,-7.1616,-7.1041,-7.0635,-6.962,-6.8774,-6.7861,-6.6981,-6.6948,-6.6812,-6.6711,-6.6406,-6.5595,-6.4783,-6.414,-7.7841,-7.872,-7.8754,-7.9058,-7.9498,-7.9869,-8.0121,-8.027,-8.0706,-8.097,-8.1214,-8.1517,-8.1672,-8.1849,-8.2048,-8.2418,-8.2871,-8.3191,-8.4052,-8.53,-8.561,-8.5914,-8.6283,-8.6572,-8.6821,-8.6925,-8.6856,-8.6786,-8.6786,-8.668,-8.6609,-8.6609,-8.6609,-8.6609,-8.6609,-8.6715,-8.6786,-8.6821,-8.6925,-8.7031,-8.696,-8.6609,-8.621,-8.5763,-8.4948,-8.4087,-8.3253,-8.2222,-8.1469,-8.1005,-8.051,-8.0209,-8.0209,-8.0209,-8.0209,-8.0209,-8.0209,-8.0209,-8.0209,-8.0209,-8.0209,-8.0209,-8.0209,-8.0209,-8.0209,-8.0209,-8.0209,-8.0209,-8.0209,-8.0209,-8.0209,-8.0209,-8.0209,-8.0209,-8.0209,-8.0209,-8.0209,-8.0209,-8.0209,-8.0209,-8.0209,-8.0209,-7.9938,-7.8889,-7.801,-7.7807,-7.6623,-7.5709,-7.5676,-7.5642,-7.5439,-7.51,-7.4965,-7.4695,-7.4153,-7.3781,-7.3646,-7.3578,-7.3138,-7.2699,-7.2056,-7.1413,-7.0838,-6.9992,-6.8977,-6.8098,-6.7184,-6.6812,-6.6812,-6.6609,-6.6406,-6.5831,-6.5087,-6.4444,-6.3802,-7.8247,-7.9126,-7.9397,-7.9769,-8.0175,-8.0209,-8.0309,-8.046,-8.046,-8.061,-8.0823,-8.097,-8.1117,-8.118,-8.1373,-8.166,-8.1955,-8.2002,-8.2746,-8.4129,-8.4788,-8.53,-8.5763,-8.6247,-8.6572,-8.6715,-8.668,-8.6573,-8.6465,-8.6356,-8.6247,-8.6174,-8.621,-8.6174,-8.6174,-8.6356,-8.6465,-8.6501,-8.668,-8.6786,-8.6715,-8.6393,-8.5988,-8.5495,-8.4742,-8.3911,-8.304,-8.2048,-8.1373,-8.097,-8.051,-8.0209,-8.0209,-8.0209,-8.0209,-8.0209,-8.0209,-8.0209,-8.0209,-8.0209,-8.0209,-8.0209,-8.0209,-8.0209,-8.0209,-8.0209,-8.0209,-8.0209,-8.0209,-8.0209,-8.0209,-8.0209,-8.0209,-8.0209,-8.0209,-8.0209,-8.0209,-8.0209,-8.0209,-8.0209,-8.0209,-8.0073,-7.96,-7.8855,-7.7874,-7.7502,-7.6521,-7.5676,-7.5642,-7.5439,-7.5033,-7.4627,-7.4356,-7.3916,-7.3274,-7.2935,-7.2732,-7.2597,-7.236,-7.209,-7.165,-7.1041,-7.0466,-6.9214,-6.8132,-6.7658,-6.6846,-6.6812,-6.6812,-6.6474,-6.6136,-6.5527,-6.4884,-6.414,-6.3497,-7.9058,-7.9194,-7.9904,-8.0175,-8.0209,-8.0209,-8.0209,-8.0209,-8.0209,-8.036,-8.056,-8.0576,-8.0675,-8.0906,-8.0921,-8.1068,-8.1228,-8.1325,-8.1603,-8.2471,-8.3356,-8.4207,-8.4865,-8.5366,-8.57,-8.5992,-8.6028,-8.5956,-8.559,-8.5589,-8.5842,-8.5506,-8.5506,-8.565,-8.5689,-8.5914,-8.6026,-8.6063,-8.6247,-8.6393,-8.6356,-8.5951,-8.5572,-8.5143,-8.4332,-8.3524,-8.2726,-8.1802,-8.1131,-8.0906,-8.046,-8.0209,-8.0209,-8.0209,-8.0209,-8.0209,-8.0209,-8.0209,-8.0209,-8.0209,-8.0209,-8.0209,-8.0209,-8.0209,-8.0209,-8.0209,-8.0209,-8.0209,-8.0209,-8.0209,-8.0209,-8.0209,-8.0209,-8.0209,-8.0209,-8.0209,-8.0209,-8.0209,-8.0209,-8.0209,-8.0175,-7.9938,-7.9295,-7.8483,-7.7773,-7.7029,-7.6251,-7.5777,-7.5405,-7.51,-7.4695,-7.4221,-7.3646,-7.3172,-7.2496,-7.2326,-7.2124,-7.2022,-7.1853,-7.165,-7.1244,-7.0635,-6.9857,-6.8571,-6.759,-6.7117,-6.6846,-6.6812,-6.6677,-6.6373,-6.5933,-6.5358,-6.4613,-6.3768,-6.3193,-7.8619,-7.916,-7.9904,-8.0209,-8.0209,-8.0209,-8.0209,-8.0209,-8.0209,-8.0259,-8.0309,-8.0309,-8.036,-8.041,-8.046,-8.0526,-8.0724,-8.074,-8.0692,-8.0867,-8.1411,-8.239,-8.3259,-8.3574,-8.3949,-8.4245,-8.4243,-8.3913,-8.3689,-8.368,-8.3738,-8.4044,-8.4044,-8.433,-8.4801,-8.5114,-8.5417,-8.5531,-8.5801,-8.5914,-8.5876,-8.5533,-8.5143,-8.4666,-8.3961,-8.3138,-8.2315,-8.1359,-8.0709,-8.046,-8.0309,-8.0209,-8.0209,-8.0209,-8.0209,-8.0209,-8.0209,-8.0209,-8.0209,-8.0209,-8.0209,-8.0209,-8.0209,-8.0209,-8.0209,-8.0209,-8.0209,-8.0209,-8.0209,-8.0209,-8.0209,-8.0209,-8.0209,-8.0209,-8.0209,-8.0209,-8.0209,-8.0209,-8.0209,-8.0209,-8.0175,-7.9769,-7.9126,-7.8382,-7.7638,-7.6927,-7.6149,-7.5473,-7.51,-7.4593,-7.4153,-7.3274,-7.2665,-7.2259,-7.1887,-7.1684,-7.1548,-7.1515,-7.1447,-7.1379,-7.0838,-7.0128,-6.9214,-6.8132,-6.7421,-6.688,-6.6812,-6.6812,-6.6542,-6.6271,-6.5493,-6.485,-6.4005,-6.3193,-6.2854,-7.8247,-7.8754,-7.9769,-8.0209,-8.0209,-8.0209,-8.0209,-8.0209,-8.0209,-8.0209,-8.0209,-8.0209,-8.0209,-8.0209,-8.0209,-8.0309,-8.0376,-8.0071,-7.9945,-7.9905,-7.9879,-8.0753,-8.1947,-8.2303,-8.2503,-8.2886,-8.2809,-8.2613,-8.2378,-8.2183,-8.2267,-8.23,-8.2365,-8.2578,-8.2903,-8.3417,-8.3875,-8.417,-8.4597,-8.494,-8.5189,-8.4864,-8.4497,-8.4003,-8.3358,-8.2464,-8.1517,-8.0872,-8.051,-8.0225,-8.0209,-8.0209,-8.0209,-8.0209,-8.0209,-8.0209,-8.0209,-8.0209,-8.0209,-8.0209,-8.0209,-8.0209,-8.0209,-8.0209,-8.0209,-8.0209,-8.0209,-8.0209,-8.0209,-8.0209,-8.0209,-8.0209,-8.0209,-8.0209,-8.0209,-8.0209,-8.0209,-8.0209,-8.0209,-8.0141,-7.9904,-7.9464,-7.8754,-7.801,-7.7266,-7.6487,-7.5642,-7.5134,-7.4695,-7.4153,-7.351,-7.2699,-7.209,-7.1751,-7.1616,-7.1481,-7.1345,-7.1244,-7.0804,-7.0838,-7.0161,-6.9451,-6.8571,-6.7692,-6.7151,-6.6812,-6.6812,-6.6745,-6.644,-6.5967,-6.5121,-6.4343,-6.3599,-6.2922,-6.255,-7.801,-7.8111,-7.96,-8.0209,-8.0209,-8.0209,-8.0209,-8.0209,-8.0209,-8.0209,-8.0209,-8.0209,-8.0209,-8.0209,-8.0209,-8.0209,-8.0141,-7.9582,-7.9223,-7.8919,-7.8635,-7.9093,-8.0549,-8.0883,-8.1165,-8.1524,-8.1818,-8.147,-8.1042,-8.1025,-8.0986,-8.0759,-8.0665,-8.0692,-8.1059,-8.1338,-8.1831,-8.2446,-8.3105,-8.3631,-8.3976,-8.3854,-8.3576,-8.3227,-8.2372,-8.1612,-8.0921,-8.056,-8.046,-8.0209,-8.0209,-8.0209,-8.0209,-8.0209,-8.0209,-8.0209,-8.0209,-8.0209,-8.0209,-8.0209,-8.0209,-8.0209,-8.0209,-8.0209,-8.0209,-8.0209,-8.0209,-8.0209,-8.0209,-8.0209,-8.0209,-8.0209,-8.0209,-8.0209,-8.0209,-8.0175,-8.0107,-8.0141,-8.0175,-8.0073,-7.9464,-7.8822,-7.801,-7.7299,-7.6623,-7.5777,-7.5067,-7.4627,-7.4052,-7.3375,-7.2834,-7.2259,-7.1785,-7.1379,-7.1345,-7.1345,-7.1176,-7.1007,-7.0331,-6.9958,-6.9248,-6.8538,-6.7793,-6.7151,-6.6914,-6.6812,-6.6812,-6.6643,-6.6373,-6.573,-6.4884,-6.4208,-6.3531,-6.2888,-6.2415,-7.801,-7.8111,-7.96,-8.0209,-8.0209,-8.0209,-8.0209,-8.0209,-8.0209,-8.0209,-8.0209,-8.0209,-8.0209,-8.0209,-8.0209,-8.0209,-8.004,-7.9295,-7.8665,-7.7584,-7.6931,-7.6999,-7.7985,-7.8667,-7.9143,-7.9387,-7.9393,-7.9233,-7.9016,-7.8979,-7.8868,-7.9172,-7.9019,-7.9172,-7.9748,-8.008,-8.0544,-8.0867,-8.1715,-8.2247,-8.2513,-8.2655,-8.2611,-8.2326,-8.1469,-8.0921,-8.0625,-8.041,-8.0259,-8.0209,-8.0209,-8.0209,-8.0209,-8.0209,-8.0209,-8.0209,-8.0209,-8.0209,-8.0209,-8.0209,-8.0209,-8.0209,-8.0209,-8.0209,-8.0209,-8.0209,-8.0209,-8.0209,-8.0209,-8.0209,-8.0209,-8.0209,-8.0209,-8.0209,-8.0141,-7.9938,-7.96,-7.9837,-7.9904,-7.9464,-7.9126,-7.8585,-7.7367,-7.7063,-7.6251,-7.5168,-7.4525,-7.4052,-7.3375,-7.2665,-7.2225,-7.1819,-7.1616,-7.1312,-7.1244,-7.1109,-7.077,-7.0432,-6.9755,-6.9079,-6.8368,-6.7996,-6.7421,-6.7083,-6.688,-6.6812,-6.6812,-6.6609,-6.6339,-6.5527,-6.4647,-6.3903,-6.3226,-6.2685,-6.2415,-7.801,-7.8145,-7.96,-8.0209,-8.0209,-8.0209,-8.0209,-8.0209,-8.0209,-8.0209,-8.0209,-8.0209,-8.0209,-8.0209,-8.0175,-8.004,-7.9464,-7.8517,-7.7483,-7.6659,-7.6211,-7.6262,-7.6461,-7.7065,-7.7553,-7.7858,-7.7937,-7.7772,-7.7553,-7.7456,-7.7565,-7.7685,-7.7537,-7.7675,-7.8053,-7.8476,-7.8795,-7.9197,-7.9848,-8.0409,-8.0817,-8.1159,-8.1397,-8.1352,-8.0872,-8.056,-8.041,-8.0309,-8.0209,-8.0209,-8.0209,-8.0209,-8.0209,-8.0209,-8.0209,-8.0209,-8.0209,-8.0209,-8.0209,-8.0209,-8.0209,-8.0209,-8.0209,-8.0209,-8.0209,-8.0209,-8.0209,-8.0209,-8.0209,-8.0209,-8.0209,-8.0209,-8.0209,-8.0107,-7.987,-7.9532,-7.9261,-7.9464,-7.9397,-7.872,-7.8247,-7.7739,-7.713,-7.6589,-7.5879,-7.4762,-7.4086,-7.3578,-7.2902,-7.2225,-7.1819,-7.1515,-7.1413,-7.1278,-7.121,-7.0906,-7.0297,-6.9755,-6.9011,-6.8301,-6.7557,-6.7354,-6.7218,-6.6981,-6.6812,-6.6812,-6.6779,-6.6542,-6.6068,-6.5155,-6.4275,-6.3531,-6.2956,-6.255,-6.2415,-7.801,-7.8111,-7.9566,-8.0209,-8.0209,-8.0209,-8.0209,-8.0209,-8.0209,-8.0209,-8.0209,-8.0209,-8.0209,-8.0209,-8.0209,-7.9735,-7.8788,-7.7671,-7.6671,-7.596,-7.5967,-7.5994,-7.6135,-7.6368,-7.6645,-7.6929,-7.7099,-7.7009,-7.6839,-7.6702,-7.6725,-7.6529,-7.6436,-7.6573,-7.6517,-7.6667,-7.7148,-7.7755,-7.8259,-7.8695,-7.9281,-7.9737,-8.0076,-8.0301,-8.0542,-8.0376,-8.0309,-8.0209,-8.0209,-8.0209,-8.0209,-8.0209,-8.0209,-8.0209,-8.0209,-8.0209,-8.0209,-8.0209,-8.0209,-8.0209,-8.0209,-8.0209,-8.0209,-8.0209,-8.0209,-8.0209,-8.0209,-8.0209,-8.0209,-8.0209,-8.0209,-8.0209,-8.0141,-7.9938,-7.9431,-7.9058,-7.8788,-7.8788,-7.8382,-7.7942,-7.7502,-7.7063,-7.642,-7.5811,-7.5134,-7.4458,-7.3747,-7.3071,-7.236,-7.1887,-7.1548,-7.1379,-7.1312,-7.0973,-7.0872,-7.0669,-7.006,-6.9147,-6.8368,-6.776,-6.7083,-6.7015,-6.7015,-6.6948,-6.6812,-6.6812,-6.6643,-6.6271,-6.5662,-6.4749,-6.4038,-6.3396,-6.2888,-6.2482,-6.2415,-7.801,-7.8111,-7.9566,-8.0209,-8.0209,-8.0209,-8.0209,-8.0209,-8.0209,-8.0209,-8.0209,-8.0209,-8.0209,-8.0209,-8.0209,-7.9464,-7.8314,-7.7198,-7.642,-7.5811,-7.5805,-7.5805,-7.5852,-7.5899,-7.5994,-7.6041,-7.6368,-7.6553,-7.6461,-7.6356,-7.6228,-7.6088,-7.5994,-7.5899,-7.5947,-7.6088,-7.6297,-7.665,-7.7212,-7.7728,-7.7955,-7.8415,-7.9026,-7.9479,-7.9937,-8.0158,-8.0225,-8.0209,-8.0209,-8.0209,-8.0209,-8.0209,-8.0209,-8.0209,-8.0209,-8.0209,-8.0209,-8.0209,-8.0209,-8.0209,-8.0209,-8.0209,-8.0209,-8.0209,-8.0209,-8.0209,-8.0209,-8.0209,-8.0209,-8.0209,-8.0209,-8.0073,-7.9837,-7.9464,-7.9025,-7.8551,-7.7705,-7.7367,-7.7266,-7.6927,-7.669,-7.6454,-7.5743,-7.5033,-7.4322,-7.3713,-7.3138,-7.2496,-7.1853,-7.1582,-7.1413,-7.1312,-7.1312,-7.0872,-7.0432,-7.0229,-6.9789,-6.8673,-6.7929,-6.7624,-6.7083,-6.6914,-6.6812,-6.6812,-6.6812,-6.6812,-6.6542,-6.6102,-6.5459,-6.4681,-6.3971,-6.326,-6.2821,-6.2415,-6.2415,-7.801,-7.8145,-7.96,-8.0209,-8.0209,-8.0209,-8.0209,-8.0209,-8.0209,-8.0209,-8.0209,-8.0209,-8.0209,-8.0209,-8.0209,-7.9363,-7.8044,-7.6724,-7.6115,-7.5709,-7.5676,-7.5676,-7.5676,-7.5676,-7.5676,-7.5757,-7.5994,-7.6088,-7.6041,-7.5947,-7.5899,-7.5852,-7.5757,-7.5709,-7.5709,-7.5852,-7.5899,-7.6048,-7.6415,-7.6632,-7.67,-7.727,-7.804,-7.8973,-7.9431,-7.9803,-8.0175,-8.0209,-8.0209,-8.0209,-8.0209,-8.0209,-8.0209,-8.0209,-8.0209,-8.0209,-8.0209,-8.0209,-8.0209,-8.0209,-8.0209,-8.0209,-8.0209,-8.0209,-8.0209,-8.0209,-8.0209,-8.0209,-8.0175,-8.004,-7.9667,-7.9634,-7.9261,-7.8653,-7.8247,-7.7705,-7.7029,-7.6555,-7.6217,-7.5912,-7.5574,-7.527,-7.4999,-7.4255,-7.351,-7.2935,-7.2462,-7.1954,-7.1379,-7.1312,-7.1312,-7.1278,-7.121,-7.0703,-7.0128,-6.9688,-6.9282,-6.8233,-6.759,-6.7252,-6.7083,-6.688,-6.6812,-6.6812,-6.6812,-6.6812,-6.6406,-6.5967,-6.529,-6.458,-6.3632,-6.2888,-6.2618,-6.2415,-6.2415,-7.801,-7.8111,-7.96,-8.0209,-8.0209,-8.0209,-8.0209,-8.0209,-8.0209,-8.0209,-8.0209,-8.0209,-8.0209,-8.0141,-7.9904,-7.9228,-7.7908,-7.6555,-7.6014,-7.5709,-7.5676,-7.5676,-7.5676,-7.5676,-7.5676,-7.5676,-7.5757,-7.5676,-7.5723,-7.5757,-7.5676,-7.5676,-7.5676,-7.5676,-7.5709,-7.5757,-7.5676,-7.5676,-7.5676,-7.5676,-7.5879,-7.6521,-7.7401,-7.8551,-7.8822,-7.9194,-7.9803,-7.987,-8.004,-8.0141,-8.0209,-8.0209,-8.0209,-8.0209,-8.0209,-8.0209,-8.0209,-8.0209,-8.0209,-8.0209,-8.0209,-8.0209,-8.0209,-8.0209,-8.0209,-8.0209,-8.0209,-8.0209,-7.9972,-7.9735,-7.9295,-7.8991,-7.8517,-7.7908,-7.7299,-7.6792,-7.6454,-7.598,-7.5371,-7.4965,-7.4492,-7.4086,-7.3815,-7.3612,-7.2868,-7.2394,-7.1921,-7.1853,-7.1345,-7.1312,-7.1278,-7.121,-7.1041,-7.0534,-6.9925,-6.9113,-6.8538,-6.7692,-6.7252,-6.6981,-6.6914,-6.6846,-6.6812,-6.6812,-6.6812,-6.6745,-6.6271,-6.5764,-6.5087,-6.4241,-6.3193,-6.2618,-6.2448,-6.2415,-6.2415,-7.801,-7.8111,-7.96,-8.0209,-8.0209,-8.0209,-8.0209,-8.0209,-8.0209,-8.0209,-8.0209,-8.0209,-8.0209,-8.0073,-7.9532,-7.8822,-7.7908,-7.7096,-7.6284,-7.5777,-7.5676,-7.5676,-7.5676,-7.5676,-7.5676,-7.5676,-7.5676,-7.5676,-7.5676,-7.5676,-7.5676,-7.5676,-7.5676,-7.5676,-7.5676,-7.5676,-7.5676,-7.5676,-7.5676,-7.5676,-7.5811,-7.6454,-7.6927,-7.7367,-7.7841,-7.8483,-7.9126,-7.9329,-7.9566,-8.0073,-8.0175,-8.0209,-8.0209,-8.0209,-8.0209,-8.0209,-8.0209,-8.0209,-8.0209,-8.0209,-8.0209,-8.0209,-8.0209,-8.0209,-8.0209,-8.0175,-8.0175,-8.0175,-7.9701,-7.916,-7.8822,-7.845,-7.7841,-7.7266,-7.6724,-7.6318,-7.5912,-7.5202,-7.4593,-7.4119,-7.3646,-7.3105,-7.2665,-7.2529,-7.2293,-7.1819,-7.1447,-7.1413,-7.1379,-7.1345,-7.1109,-7.0973,-7.0703,-7.0229,-6.9451,-6.8673,-6.8064,-6.7218,-6.7015,-6.6812,-6.6812,-6.6812,-6.6812,-6.6812,-6.6812,-6.6677,-6.6305,-6.5696,-6.4918,-6.4106,-6.326,-6.2753,-6.2415,-6.2415,-6.2415,-7.801,-7.8111,-7.96,-8.0209,-8.0209,-8.0209,-8.0209,-8.0209,-8.0209,-8.0209,-8.0209,-8.0209,-8.0209,-8.004,-7.9431,-7.8686,-7.7942,-7.7266,-7.6454,-7.5879,-7.5709,-7.5676,-7.5676,-7.5676,-7.5676,-7.5676,-7.5676,-7.5676,-7.5676,-7.5676,-7.5676,-7.5676,-7.5676,-7.5676,-7.5676,-7.5676,-7.5676,-7.5676,-7.5676,-7.5676,-7.5777,-7.6048,-7.6454,-7.686,-7.7198,-7.7773,-7.8348,-7.8957,-7.9194,-7.9667,-7.9904,-8.0209,-8.0209,-8.0209,-8.0209,-8.0209,-8.0209,-8.0209,-8.0209,-8.0175,-8.0209,-8.0209,-8.0209,-8.0209,-8.0209,-8.0141,-7.9938,-7.96,-7.9329,-7.8788,-7.8077,-7.757,-7.6995,-7.6454,-7.6014,-7.5608,-7.51,-7.4424,-7.3781,-7.3308,-7.2834,-7.2394,-7.1988,-7.1887,-7.1853,-7.1616,-7.1379,-7.1345,-7.1345,-7.1312,-7.1007,-7.0601,-7.0263,-6.9823,-6.8977,-6.8132,-6.776,-6.7151,-6.6948,-6.6812,-6.6812,-6.6812,-6.6812,-6.6812,-6.6812,-6.6609,-6.6271,-6.5561,-6.4715,-6.4038,-6.3396,-6.2888,-6.2415,-6.2415,-6.2415,-7.8247,-7.8382,-7.9667,-8.0209,-8.0209,-8.0209,-8.0209,-8.0209,-8.0209,-8.0209,-8.0209,-8.0209,-8.0209,-8.0107,-7.9634,-7.9058,-7.8247,-7.7502,-7.6724,-7.6183,-7.5811,-7.5709,-7.5676,-7.5676,-7.5676,-7.5676,-7.5676,-7.5676,-7.5676,-7.5676,-7.5676,-7.5676,-7.5676,-7.5676,-7.5676,-7.5676,-7.5676,-7.5676,-7.5676,-7.5676,-7.5709,-7.5709,-7.6048,-7.6386,-7.669,-7.6961,-7.7671,-7.8145,-7.8483,-7.8923,-7.9228,-7.9431,-7.9464,-7.9397,-7.9431,-7.9498,-7.96,-7.9837,-7.9904,-8.0006,-8.0141,-8.0209,-8.0141,-8.0107,-7.987,-7.9904,-7.9634,-7.8889,-7.8483,-7.7874,-7.7198,-7.6792,-7.6183,-7.5608,-7.5067,-7.4661,-7.4255,-7.3612,-7.3138,-7.2834,-7.2394,-7.1954,-7.1616,-7.1447,-7.1345,-7.1345,-7.1312,-7.1312,-7.1244,-7.121,-7.077,-7.0297,-6.9485,-6.9113,-6.8504,-6.776,-6.7354,-6.7083,-6.6914,-6.6812,-6.6812,-6.6812,-6.6812,-6.6812,-6.6812,-6.6474,-6.6068,-6.529,-6.4512,-6.3869,-6.3226,-6.2753,-6.2415,-6.2415,-6.2415,-7.9025,-7.9092,-7.987,-8.0209,-8.0209,-8.0209,-8.0209,-8.0209,-8.0209,-8.0209,-8.0209,-8.0209,-8.0209,-8.0175,-8.004,-7.96,-7.8957,-7.8247,-7.7435,-7.6724,-7.6115,-7.5811,-7.5743,-7.5676,-7.5676,-7.5676,-7.5676,-7.5676,-7.5676,-7.5676,-7.5676,-7.5676,-7.5676,-7.5676,-7.5676,-7.5676,-7.5676,-7.5676,-7.5676,-7.5676,-7.5676,-7.5676,-7.5777,-7.5777,-7.5879,-7.6149,-7.6927,-7.7198,-7.7536,-7.8077,-7.8348,-7.845,-7.8551,-7.8517,-7.8517,-7.8619,-7.8957,-7.916,-7.9261,-7.9803,-8.0141,-8.0175,-8.0006,-7.9667,-7.9228,-7.9194,-7.8788,-7.8145,-7.7739,-7.7232,-7.669,-7.6251,-7.5506,-7.4999,-7.4458,-7.395,-7.3477,-7.2868,-7.2462,-7.2293,-7.1988,-7.1582,-7.1447,-7.1345,-7.1312,-7.1312,-7.1312,-7.1312,-7.1075,-7.0939,-7.0466,-6.9857,-6.8774,-6.8233,-6.7996,-6.7489,-6.7083,-6.6948,-6.6846,-6.6812,-6.6812,-6.6812,-6.6812,-6.6812,-6.6779,-6.6339,-6.5831,-6.508,-6.4295,-6.3626,-6.3018,-6.2465,-6.2263,-6.2302,-6.2341,-7.9363,-7.9803,-8.0107,-8.0209,-8.0209,-8.0209,-8.0209,-8.0209,-8.0209,-8.0209,-8.0209,-8.0209,-8.0209,-8.0209,-8.0175,-7.9803,-7.9126,-7.8855,-7.7942,-7.7164,-7.6555,-7.6149,-7.5946,-7.5676,-7.5676,-7.5676,-7.5676,-7.5676,-7.5676,-7.5676,-7.5676,-7.5676,-7.5676,-7.5676,-7.5676,-7.5676,-7.5676,-7.5676,-7.5676,-7.5676,-7.5676,-7.5676,-7.5676,-7.5676,-7.5676,-7.5811,-7.6183,-7.669,-7.6995,-7.7333,-7.7671,-7.7807,-7.7841,-7.7841,-7.7841,-7.7874,-7.8247,-7.8382,-7.8653,-7.9363,-7.9972,-7.9464,-7.9126,-7.872,-7.845,-7.8416,-7.8044,-7.7468,-7.7063,-7.669,-7.6082,-7.5506,-7.4864,-7.4458,-7.395,-7.3341,-7.2766,-7.2191,-7.1921,-7.1819,-7.165,-7.1379,-7.1345,-7.1312,-7.1312,-7.1312,-7.1312,-7.1244,-7.0939,-7.0534,-7.0026,-6.9417,-6.8368,-6.7658,-6.7421,-6.7117,-6.6812,-6.6812,-6.6812,-6.6812,-6.6812,-6.6812,-6.6812,-6.6812,-6.6677,-6.6237,-6.5621,-6.4862,-6.4079,-6.3303,-6.2683,-6.2091,-6.203,-6.215,-6.2223,-7.9735,-8.0175,-8.0209,-8.0209,-8.0209,-8.0209,-8.0209,-8.0209,-8.0209,-8.0209,-8.0209,-8.0209,-8.0209,-8.0209,-8.0175,-8.0006,-7.9498,-7.9126,-7.8314,-7.757,-7.6927,-7.6454,-7.5946,-7.5676,-7.5676,-7.5676,-7.5676,-7.5676,-7.5676,-7.5676,-7.5676,-7.5676,-7.5676,-7.5676,-7.5676,-7.5676,-7.5676,-7.5676,-7.5676,-7.5676,-7.5676,-7.5676,-7.5676,-7.5676,-7.5676,-7.5709,-7.5879,-7.6217,-7.642,-7.6657,-7.6893,-7.7198,-7.7266,-7.7299,-7.7299,-7.7367,-7.7536,-7.7671,-7.801,-7.8619,-7.9261,-7.8788,-7.8416,-7.801,-7.7739,-7.7638,-7.7333,-7.6657,-7.6487,-7.6217,-7.5473,-7.4931,-7.4221,-7.3747,-7.3206,-7.2631,-7.2191,-7.1684,-7.1548,-7.1413,-7.1312,-7.1312,-7.1312,-7.1312,-7.1312,-7.1312,-7.1312,-7.1075,-7.0601,-7.0128,-6.9451,-6.8774,-6.7963,-6.7387,-6.6914,-6.6846,-6.6812,-6.6812,-6.6812,-6.6812,-6.6812,-6.6812,-6.6812,-6.6812,-6.6576,-6.6102,-6.5478,-6.478,-6.3855,-6.2939,-6.2314,-6.175,-6.183,-6.1951,-6.1991,-8.0175,-8.0209,-8.0209,-8.0209,-8.0209,-8.0209,-8.0209,-8.0209,-8.0209,-8.0209,-8.0209,-8.0209,-8.0209,-8.0209,-8.0209,-8.0107,-7.9938,-7.9431,-7.8686,-7.7908,-7.7299,-7.6555,-7.5946,-7.5676,-7.5676,-7.5676,-7.5676,-7.5676,-7.5676,-7.5676,-7.5676,-7.5676,-7.5676,-7.5676,-7.5676,-7.5676,-7.5676,-7.5676,-7.5676,-7.5676,-7.5676,-7.5608,-7.5506,-7.5506,-7.5337,-7.5236,-7.5303,-7.5574,-7.5743,-7.5811,-7.598,-7.6149,-7.6115,-7.6082,-7.6048,-7.6048,-7.6589,-7.686,-7.6995,-7.7671,-7.7908,-7.7976,-7.7671,-7.7367,-7.7029,-7.686,-7.6589,-7.5879,-7.5709,-7.5371,-7.4931,-7.4458,-7.3646,-7.3071,-7.2563,-7.209,-7.165,-7.1447,-7.1345,-7.1312,-7.1312,-7.1312,-7.1312,-7.1312,-7.1312,-7.1312,-7.1312,-7.0973,-7.0398,-6.9789,-6.9147,-6.8368,-6.7658,-6.7252,-6.688,-6.6846,-6.6812,-6.6812,-6.6812,-6.6812,-6.6812,-6.6812,-6.6812,-6.6812,-6.6643,-6.6297,-6.5564,-6.4723,-6.3433,-6.2222,-6.1929,-6.1588,-6.1669,-6.1709,-6.1709,-8.0209,-8.0209,-8.0209,-8.0209,-8.0209,-8.0209,-8.0209,-8.0209,-8.0209,-8.0209,-8.0209,-8.0209,-8.0209,-8.0209,-8.0209,-8.0209,-8.0141,-8.004,-7.9295,-7.8044,-7.7638,-7.6792,-7.6082,-7.5676,-7.5676,-7.5676,-7.5676,-7.5676,-7.5676,-7.5676,-7.5676,-7.5676,-7.5676,-7.5676,-7.5676,-7.5676,-7.5676,-7.5676,-7.5676,-7.5676,-7.5642,-7.527,-7.4965,-7.4931,-7.4559,-7.4356,-7.4424,-7.4728,-7.4965,-7.5033,-7.5236,-7.5506,-7.554,-7.554,-7.5574,-7.5642,-7.6048,-7.6082,-7.6115,-7.6454,-7.6758,-7.686,-7.6758,-7.642,-7.6115,-7.6115,-7.5676,-7.5202,-7.4999,-7.4593,-7.4052,-7.3375,-7.2732,-7.2529,-7.209,-7.1718,-7.1379,-7.1345,-7.1312,-7.1312,-7.1312,-7.1312,-7.1312,-7.1278,-7.1244,-7.1142,-7.1109,-7.077,-7.0229,-6.9586,-6.891,-6.8132,-6.7455,-6.7083,-6.6812,-6.6812,-6.6812,-6.6812,-6.6812,-6.6812,-6.6812,-6.6812,-6.6812,-6.6812,-6.6669,-6.6534,-6.5363,-6.4128,-6.2523,-6.145,-6.1185,-6.1136,-6.1177,-6.1301,-6.1458,-8.0209,-8.0209,-8.0209,-8.0209,-8.0209,-8.0209,-8.0209,-8.0209,-8.0209,-8.0209,-8.0209,-8.0209,-8.0209,-8.0209,-8.0209,-8.0209,-8.0175,-7.987,-7.9295,-7.8044,-7.7671,-7.6792,-7.6014,-7.5676,-7.5676,-7.5676,-7.5676,-7.5676,-7.5676,-7.5676,-7.5676,-7.5676,-7.5676,-7.5676,-7.5676,-7.5676,-7.5676,-7.5608,-7.5506,-7.5236,-7.5067,-7.4695,-7.4221,-7.4086,-7.3849,-7.3544,-7.3646,-7.3883,-7.4221,-7.439,-7.4627,-7.4965,-7.4965,-7.4965,-7.4931,-7.4931,-7.4931,-7.4931,-7.4897,-7.4897,-7.5168,-7.5473,-7.5337,-7.5337,-7.5236,-7.5033,-7.4695,-7.4356,-7.4221,-7.3781,-7.3172,-7.2496,-7.2259,-7.209,-7.1751,-7.1379,-7.1312,-7.1312,-7.1312,-7.1312,-7.1312,-7.1312,-7.1312,-7.1244,-7.121,-7.1041,-7.0872,-7.0398,-6.9925,-6.9248,-6.8538,-6.7793,-6.7286,-6.6981,-6.6812,-6.6812,-6.6812,-6.6812,-6.6812,-6.6812,-6.6812,-6.6812,-6.6812,-6.6812,-6.6703,-6.6272,-6.4917,-6.3524,-6.2269,-6.1149,-6.0433,-6.0463,-6.0708,-6.0802,-6.0886,-8.0209,-8.0209,-8.0209,-8.0209,-8.0209,-8.0209,-8.0209,-8.0209,-8.0209,-8.0209,-8.0209,-8.0209,-8.0209,-8.0209,-8.0209,-8.0141,-7.9972,-7.9464,-7.8653,-7.7908,-7.7333,-7.6454,-7.598,-7.5676,-7.5676,-7.5676,-7.5676,-7.5676,-7.5676,-7.5676,-7.5676,-7.5676,-7.5676,-7.5608,-7.554,-7.5473,-7.5473,-7.5303,-7.4864,-7.4627,-7.4424,-7.3883,-7.3544,-7.3341,-7.3172,-7.3071,-7.3138,-7.3308,-7.3443,-7.3544,-7.3646,-7.3646,-7.3578,-7.3544,-7.3544,-7.3544,-7.3646,-7.3713,-7.3781,-7.3815,-7.3781,-7.4187,-7.4255,-7.4424,-7.4458,-7.4153,-7.3849,-7.3612,-7.3443,-7.2969,-7.2462,-7.2225,-7.1988,-7.1751,-7.1447,-7.1312,-7.1312,-7.1312,-7.1312,-7.1312,-7.1312,-7.1312,-7.1312,-7.1244,-7.1041,-7.0601,-7.0297,-6.9722,-6.9214,-6.8673,-6.7996,-6.7354,-6.6948,-6.6914,-6.6812,-6.6812,-6.6812,-6.6812,-6.6812,-6.6812,-6.6812,-6.6812,-6.6812,-6.6812,-6.677,-6.6095,-6.464,-6.343,-6.2309,-6.1219,-5.9957,-5.9816,-6.0033,-6.0076,-6.0173,-8.0209,-8.0209,-8.0209,-8.0209,-8.0209,-8.0209,-8.0209,-8.0209,-8.0209,-8.0209,-8.0209,-8.0209,-8.0175,-8.0209,-8.0209,-7.987,-7.9498,-7.9058,-7.8247,-7.7536,-7.6961,-7.6386,-7.5946,-7.5676,-7.5676,-7.5676,-7.5676,-7.5676,-7.5676,-7.5676,-7.5676,-7.5676,-7.5574,-7.5371,-7.5067,-7.4931,-7.4864,-7.4695,-7.4119,-7.3916,-7.3612,-7.3071,-7.2834,-7.2665,-7.2293,-7.2191,-7.2191,-7.2529,-7.2665,-7.28,-7.3747,-7.4052,-7.351,-7.3916,-7.4187,-7.3544,-7.351,-7.351,-7.3477,-7.3443,-7.3375,-7.3172,-7.324,-7.3375,-7.351,-7.3477,-7.3105,-7.2868,-7.2699,-7.2326,-7.2022,-7.1785,-7.165,-7.1515,-7.1312,-7.1312,-7.1312,-7.1312,-7.1312,-7.1312,-7.1312,-7.1312,-7.1312,-7.1142,-7.0872,-7.0297,-6.9688,-6.9045,-6.8538,-6.7996,-6.7624,-6.6981,-6.6812,-6.6812,-6.6812,-6.6812,-6.6812,-6.6812,-6.6812,-6.6812,-6.6812,-6.6812,-6.6812,-6.677,-6.6728,-6.5741,-6.4296,-6.3212,-6.2311,-6.0694,-5.9419,-5.9375,-5.9343,-5.9387,-5.9476,-8.0209,-8.0209,-8.0209,-8.0209,-8.0209,-8.0209,-8.0209,-8.0209,-8.0209,-8.0209,-8.0209,-8.0209,-8.004,-7.9769,-7.9701,-7.9363,-7.8653,-7.8213,-7.7604,-7.7198,-7.6623,-7.6149,-7.5811,-7.5676,-7.5676,-7.5676,-7.5676,-7.5676,-7.5676,-7.5642,-7.5642,-7.5236,-7.527,-7.4796,-7.4289,-7.3849,-7.368,-7.3544,-7.3341,-7.3105,-7.28,-7.236,-7.209,-7.1921,-7.1481,-7.1379,-7.1345,-7.1853,-7.2056,-7.2326,-7.351,-7.3544,-7.2969,-7.324,-7.3172,-7.2529,-7.2496,-7.2496,-7.2462,-7.2529,-7.2597,-7.2529,-7.2259,-7.2293,-7.2394,-7.2428,-7.2225,-7.2056,-7.1954,-7.1819,-7.1548,-7.1312,-7.1312,-7.1312,-7.1312,-7.1312,-7.1312,-7.1312,-7.1312,-7.1312,-7.1312,-7.1312,-7.121,-7.1041,-7.0601,-6.9789,-6.9011,-6.8267,-6.7827,-6.7455,-6.7218,-6.688,-6.6812,-6.6812,-6.6812,-6.6812,-6.6812,-6.6812,-6.6812,-6.6812,-6.6812,-6.6812,-6.6812,-6.6728,-6.6635,-6.5581,-6.4522,-6.3425,-6.2355,-6.0659,-5.9236,-5.8882,-5.8714,-5.8578,-5.876,-8.0006,-7.9972,-8.004,-7.9904,-8.0006,-7.9938,-7.9938,-8.0006,-7.9904,-8.004,-8.004,-8.0107,-7.9634,-7.9126,-7.8991,-7.8585,-7.7976,-7.7435,-7.7096,-7.6792,-7.6183,-7.5777,-7.5743,-7.5676,-7.5676,-7.5676,-7.5676,-7.5676,-7.5676,-7.5506,-7.5134,-7.4627,-7.4525,-7.4119,-7.3443,-7.2969,-7.2732,-7.2496,-7.2428,-7.2293,-7.2157,-7.1718,-7.1312,-7.1379,-7.1312,-7.1312,-7.1312,-7.1447,-7.165,-7.2157,-7.2428,-7.2529,-7.236,-7.1954,-7.165,-7.1548,-7.165,-7.165,-7.1684,-7.1684,-7.1582,-7.1515,-7.1312,-7.1481,-7.1684,-7.1785,-7.165,-7.1616,-7.1582,-7.1582,-7.1379,-7.1312,-7.1312,-7.1312,-7.1312,-7.1312,-7.1312,-7.1312,-7.1312,-7.1312,-7.1312,-7.1244,-7.0872,-7.0669,-7.0026,-6.9214,-6.8538,-6.7793,-6.732,-6.7015,-6.6914,-6.6812,-6.6812,-6.6812,-6.6812,-6.6812,-6.6812,-6.6812,-6.6812,-6.6812,-6.6812,-6.6812,-6.6812,-6.6728,-6.6643,-6.5908,-6.4929,-6.379,-6.2454,-6.083,-5.9543,-5.8522,-5.815,-5.7965,-5.8058,-7.8517,-7.8517,-7.8517,-7.8517,-7.8517,-7.8517,-7.8551,-7.8517,-7.8517,-7.8855,-7.9295,-7.9295,-7.8957,-7.8314,-7.8247,-7.7841,-7.7198,-7.686,-7.6521,-7.6217,-7.5743,-7.5709,-7.5676,-7.5676,-7.5676,-7.5676,-7.5676,-7.5574,-7.5473,-7.5168,-7.4796,-7.4492,-7.4086,-7.3375,-7.2699,-7.2293,-7.2124,-7.1751,-7.1684,-7.1684,-7.1616,-7.1515,-7.1312,-7.1312,-7.1312,-7.1312,-7.1312,-7.1345,-7.1751,-7.2259,-7.236,-7.2428,-7.2394,-7.1718,-7.1379,-7.1312,-7.1312,-7.1312,-7.1312,-7.1312,-7.1312,-7.1312,-7.1312,-7.1312,-7.1312,-7.1312,-7.1312,-7.1312,-7.1312,-7.1312,-7.1312,-7.1312,-7.1312,-7.1312,-7.1312,-7.1312,-7.1312,-7.1312,-7.1312,-7.1312,-7.1312,-7.0973,-7.0601,-7.0026,-6.9417,-6.8842,-6.8301,-6.7692,-6.7218,-6.688,-6.688,-6.6812,-6.6812,-6.6812,-6.6812,-6.6812,-6.6812,-6.6812,-6.6812,-6.6812,-6.6812,-6.6812,-6.6812,-6.6812,-6.6584,-6.5984,-6.5182,-6.3995,-6.2585,-6.1069,-5.9471,-5.8306,-5.759,-5.7258,-5.7353,-7.801,-7.801,-7.801,-7.801,-7.801,-7.801,-7.801,-7.801,-7.801,-7.8044,-7.8179,-7.8382,-7.8213,-7.757,-7.7502,-7.7096,-7.6521,-7.6352,-7.6115,-7.5811,-7.5676,-7.5676,-7.5676,-7.5676,-7.5676,-7.5676,-7.5303,-7.5134,-7.51,-7.4492,-7.4018,-7.3713,-7.3138,-7.2665,-7.2056,-7.1887,-7.1751,-7.1345,-7.1312,-7.1312,-7.1312,-7.1312,-7.1312,-7.1312,-7.1312,-7.1312,-7.1312,-7.1345,-7.1751,-7.2191,-7.2394,-7.2394,-7.2225,-7.1718,-7.1379,-7.1312,-7.1312,-7.1312,-7.1312,-7.1312,-7.1312,-7.1312,-7.1312,-7.1312,-7.1312,-7.1312,-7.1312,-7.1312,-7.1312,-7.1312,-7.1312,-7.1312,-7.1312,-7.1312,-7.1312,-7.1312,-7.1312,-7.1312,-7.1312,-7.1312,-7.1109,-7.0601,-7.0094,-6.9214,-6.8673,-6.8335,-6.7827,-6.7489,-6.7015,-6.6812,-6.6812,-6.6812,-6.6812,-6.6812,-6.6812,-6.6812,-6.6812,-6.6812,-6.6812,-6.6812,-6.6812,-6.6812,-6.6812,-6.6812,-6.6694,-6.639,-6.5478,-6.4324,-6.3067,-6.1613,-5.9804,-5.8026,-5.7322,-5.673,-5.6779,-7.7638,-7.7705,-7.7671,-7.7671,-7.7705,-7.7671,-7.7638,-7.7638,-7.7638,-7.7299,-7.6927,-7.7401,-7.7232,-7.6927,-7.6724,-7.6217,-7.5946,-7.5946,-7.5743,-7.5709,-7.5676,-7.5676,-7.5676,-7.5676,-7.5574,-7.5236,-7.4796,-7.4559,-7.4424,-7.3747,-7.3071,-7.2496,-7.2191,-7.1954,-7.1481,-7.1312,-7.1312,-7.1312,-7.1312,-7.1312,-7.1312,-7.1312,-7.1312,-7.1312,-7.1312,-7.1312,-7.1312,-7.1413,-7.1751,-7.209,-7.236,-7.2259,-7.2056,-7.1616,-7.1447,-7.1312,-7.1312,-7.1312,-7.1312,-7.1312,-7.1312,-7.1312,-7.1312,-7.1312,-7.1312,-7.1312,-7.1312,-7.1312,-7.1312,-7.1312,-7.1312,-7.1312,-7.1312,-7.1312,-7.1312,-7.1312,-7.1312,-7.1312,-7.1312,-7.1278,-7.0804,-7.0297,-6.9485,-6.8639,-6.8098,-6.7726,-6.7421,-6.7083,-6.6812,-6.6812,-6.6812,-6.6812,-6.6812,-6.6812,-6.6812,-6.6812,-6.6812,-6.6812,-6.6812,-6.6812,-6.6812,-6.6812,-6.6812,-6.6812,-6.6652,-6.6457,-6.5789,-6.4734,-6.3463,-6.2105,-6.0417,-5.8605,-5.7417,-5.6827,-5.6342,-7.6115,-7.6115,-7.6115,-7.6149,-7.6149,-7.6149,-7.6149,-7.6149,-7.6149,-7.6014,-7.5946,-7.598,-7.598,-7.5946,-7.5946,-7.5709,-7.5608,-7.5506,-7.5608,-7.5676,-7.5405,-7.554,-7.5506,-7.5236,-7.5236,-7.4762,-7.4119,-7.3781,-7.3612,-7.3003,-7.2563,-7.2326,-7.1718,-7.1481,-7.1413,-7.1312,-7.1312,-7.1312,-7.1312,-7.1312,-7.1312,-7.1312,-7.1312,-7.1312,-7.1312,-7.1312,-7.1312,-7.1312,-7.1751,-7.2157,-7.2326,-7.2022,-7.1751,-7.1447,-7.1345,-7.1312,-7.1312,-7.1312,-7.1312,-7.1312,-7.1312,-7.1312,-7.1312,-7.1312,-7.1312,-7.1312,-7.1312,-7.1312,-7.1312,-7.1312,-7.1312,-7.1312,-7.1312,-7.1312,-7.1312,-7.1312,-7.1312,-7.1278,-7.1278,-7.1007,-7.0567,-6.9925,-6.9147,-6.8368,-6.7658,-6.7354,-6.7117,-6.6812,-6.6812,-6.6812,-6.6812,-6.6812,-6.6812,-6.6812,-6.6812,-6.6812,-6.6812,-6.6812,-6.6812,-6.6812,-6.6812,-6.6812,-6.6812,-6.6812,-6.6728,-6.6567,-6.5789,-6.5,-6.3727,-6.2383,-6.0948,-5.9373,-5.8013,-5.6892,-5.639]},{"header":{"parameterUnit":"m.s-1","parameterCategory":1,"la1":31.0,"la2":29.5877,"lo1":-88.7671,"lo2":-86.6584,"dy":0.0162,"dx":0.0185,"nx":115,"ny":88,"refTime":"2024-05-08T12:00:00:Z","depth":0,"parameterNumber":3,"parameterNumberName":"V-component_of_WINDS"},"data":[0.0,0.0,0.0,0.0,0.0,0.0,0.0,0.0,0.0,0.0,0.0,0.0,0.0,0.0,0.0,0.0,0.0,0.0,0.0,0.0,0.0,0.0,0.0,0.0,0.0,0.0,0.0,0.0,0.0,0.0,0.0,0.0,0.0,0.0,0.0,0.0,0.0,0.0,0.0,0.0,0.0,0.0,0.0,0.0,0.0,0.0,0.0,0.0,0.0,0.0,0.0,0.0,0.0,0.0,0.0,0.0,0.0,0.0,0.0,0.0,0.0,0.0,0.0,0.0,0.0,0.0,0.0,0.0,0.0,0.0,0.0,0.0,0.0,0.0,0.0,0.0,0.0,0.0,0.0,0.0,0.0,0.0,0.0,0.0,0.0,0.0,0.0,0.0,0.0,0.0,0.0,0.0,0.0,0.0,0.0,0.0,0.0,0.0,0.0,0.0,0.0,0.0,0.0,0.0,0.0,0.0,0.0,0.0,0.0,0.0,0.0,0.0,0.0,0.0,0.0,0.0,0.0,0.0,0.0,0.0,0.0,0.0,0.0,0.0,0.0,0.0,0.0,0.0,0.0,0.0,0.0,0.0,0.0,0.0,0.0,0.0,0.0,0.0,0.0,0.0,0.0,0.0,0.0,0.0,0.0,0.0,0.0,0.0,0.0,0.0,0.0,0.0,0.0,0.0,0.0,0.0,0.0,0.0,0.0,0.0,0.0,0.0,0.0,0.0,0.0,0.0,0.0,0.0,0.0,0.0,0.0,0.0,0.0,0.0,0.0,0.0,0.0,0.0,0.0,0.0,0.0,0.0,0.0,0.0,0.0,0.0,0.0,0.0,0.0,0.0,0.0,0.0,0.0,0.0,0.0,0.0,0.0,0.0,0.0,0.0,0.0,0.0,0.0,0.0,0.0,0.0,0.0,0.0,0.0,0.0,0.0,0.0,0.0,0.0,0.0,0.0,0.0,0.0,0.0,0.0,0.0,0.0,0.0,0.0,0.0,0.0,0.0,0.0,0.0,0.0,0.0,0.0,0.0,0.0,0.0,0.0,0.0,0.0,0.0,0.0,0.0,0.0,0.0,0.0,0.0,0.0,0.0,0.0,0.0,0.0,0.0,0.0,0.0,0.0,0.0,0.0,0.0,0.0,0.0,0.0,0.0,0.0,0.0,0.0,0.0,0.0,0.0,0.0,0.0,0.0,0.0,0.0,0.0,0.0,0.0,0.0,0.0,0.0,0.0,0.0,0.0,0.0,0.0,0.0,0.0,0.0,0.0,0.0,0.0,0.0,0.0,0.0,0.0,0.0,0.0,0.0,0.0,0.0,0.0,0.0,0.0,0.0,0.0,0.0,0.0,0.0,0.0,0.0,0.0,0.0,0.0,0.0,0.0,0.0,0.0,0.0,0.0,0.0,0.0,0.0,0.0,0.0,0.0,0.0,0.0,0.0,0.0,0.0,0.0,0.0,0.0,0.0,0.0,0.0,0.0,0.0,0.0,0.0,0.0,0.0,0.0,0.0,0.0,0.0,0.0,0.0,0.0,0.0,0.0,0.0,0.0,0.0,0.0,0.0,0.0,0.0,0.0,0.0,0.0,0.0,0.0,0.0,0.0,0.0,0.0,0.0,0.0,0.0,0.0,0.0,0.0,0.0,0.0,0.0,0.0,0.0,0.0,0.0,0.0,0.0,0.0,0.0,0.0,0.0,0.0,0.0,0.0,0.0,0.0,0.0,0.0,0.0,0.0,0.0,0.0,0.0,0.0,0.0,0.0,0.0,0.0,0.0,0.0,0.0,0.0,0.0,0.0,0.0,0.0,0.0,0.0,0.0,0.0,0.0,0.0,0.0,0.0,0.0,0.0,0.0,0.0,0.0,0.0,0.0,0.0,0.0,0.0,0.0,0.0,0.0,0.0,0.0,0.0,0.0,0.0,0.0,0.0,0.0,0.0,0.0,0.0,0.0,0.0,0.0,0.0,0.0,0.0,0.0,0.0,0.0,0.0,0.0,0.0,0.0,0.0,0.0,0.0,0.0,0.0,0.0,0.0,0.0,0.0,0.0,0.0,0.0,0.0,0.0,0.0,0.0,0.0,0.0,0.0,0.0,0.0,0.0,0.0,0.0,0.0,0.0,0.0,0.0,0.0,0.0,0.0,0.0,0.0,0.0,0.0,0.0,0.0,0.0,0.0,0.0,0.0,0.0,0.0,0.0,0.0,0.0,0.0,0.0,0.0,0.0,0.0,0.0,0.0,0.0,0.0,0.0,0.0,0.0,0.0,0.0,0.0,0.0,0.0,0.0,0.0,0.0,0.0,0.0,0.0,0.0,0.0,0.0,0.0,0.0,0.0,0.0,0.0,0.0,0.0,0.0,0.0,0.0,0.0,0.0,0.0,0.0,0.0,0.0,0.0,0.0,0.0,0.0,0.0,0.0,0.0,0.0,0.0,0.0,0.0,0.0,0.0,0.0,0.0,0.0,0.0,0.0,0.0,0.0,0.0,0.0,0.0,0.0,0.0,0.0,0.0,0.0,0.0,0.0,0.0,0.0,0.0,0.0,0.0,0.0,0.0,0.0,0.0,0.0,0.0,0.0,0.0,0.0,0.0,0.0,0.0,0.0,0.0,0.0,0.0,0.0,0.0,0.0,0.0,0.0,0.0,0.0,0.0,0.0,0.0,0.0,0.0,0.0,0.0,0.0,0.0,0.0,0.0,0.0,0.0,0.0,0.0,0.0,0.0,0.0,0.0,0.0,0.0,0.0,0.0,0.0,0.0,0.0,0.0,0.0,0.0,0.0,0.0,0.0,0.0,0.0,0.0,0.0,0.0,0.0,0.0,0.0,0.0,0.0,0.0,0.0,0.0,0.0,0.0,0.0,0.0,0.0,0.0,0.0,0.0,0.0,0.0,0.0,0.0,0.0,0.0,0.0,0.0,0.0,0.0,0.0,0.0,0.0,0.0,0.0,0.0,0.0,0.0,0.0,0.0,0.0,0.0,0.0,0.0,0.0,0.0,0.0,0.0,0.0,0.0,0.0,0.0,0.0,0.0,0.0,0.0,0.0,0.0,0.0,0.0,0.0,0.0,0.0,0.0,0.0,0.0,0.0,0.0,0.0,0.0,0.0,0.0,0.0,0.0,0.0,0.0,0.0,0.0,0.0,0.0,0.0,0.0,0.0,0.0,0.0,0.0,0.0,0.0,0.0,0.0,0.0,0.0,0.0,0.0,0.0,0.0,0.0,0.0,0.0,0.0,0.0,0.0,0.0,0.0,0.0,0.0,0.0,0.0,0.0,0.0,0.0,0.0,0.0,0.0,0.0,0.0,0.0,0.0,0.0,0.0,0.0,0.0,0.0,0.0,0.0,0.0,0.0,0.0,0.0,0.0,0.0,0.0,0.0,0.0,0.0,0.0,0.0,0.0,0.0,0.0,0.0,0.0,0.0,0.0,0.0,0.0,0.0,0.0,0.0,0.0,0.0,0.0,0.0,0.0,0.0,0.0,0.0,0.0,0.0,0.0,0.0,0.0,0.0,0.0,0.0,0.0,0.0,0.0,0.0,0.0,0.0,0.0,0.0,0.0,0.0,0.0,0.0,0.0,0.0,0.0,0.0,0.0,0.0,0.0,0.0,0.0,0.0,0.0,0.0,0.0,0.0,0.0,0.0,0.0,0.0,0.0,0.0,0.0,0.0,0.0,0.0,0.0,0.0,0.0,0.0,0.0,0.0,0.0,0.0,0.0,0.0,0.0,0.0,0.0,0.0,0.0,0.0,0.0,0.0,0.0,0.0,0.0,0.0,0.0,0.0,0.0,0.0,0.0,0.0,0.0,0.0,0.0,0.0,0.0,0.0,0.0,0.0,0.0,0.0,0.0,0.0,0.0,0.0,0.0,0.0,0.0,0.0,0.0,0.0,0.0,0.0,0.0,0.0,0.0,0.0,0.0,0.0,0.0,0.0,0.0,0.0,0.0,0.0,0.0,0.0,0.0,0.0,0.0,0.0,0.0,0.0,0.0,0.0,0.0,0.0,0.0,0.0,0.0,0.0,0.0,0.0,0.0,0.0,0.0,0.0,0.0,0.0,0.0,0.0,0.0,0.0,0.0,0.0,0.0,0.0,0.0,0.0,0.0,0.0,0.0,0.0,0.0,0.0,0.0,0.0,0.0,0.0,0.0,0.0,0.0,0.0,0.0,0.0,0.0,0.0,0.0,0.0,0.0,0.0,0.0,0.0,0.0,0.0,0.0,0.0,0.0,0.0,0.0,0.0,0.0,0.0,0.0,0.0,3.9403,0.0,0.0,0.0,0.0,0.0,0.0,0.0,0.0,0.0,0.0,0.0,0.0,0.0,0.0,0.0,0.0,0.0,0.0,0.0,0.0,0.0,0.0,0.0,0.0,0.0,0.0,0.0,0.0,0.0,0.0,0.0,0.0,0.0,0.0,0.0,0.0,0.0,0.0,0.0,0.0,0.0,0.0,0.0,0.0,0.0,0.0,0.0,0.0,0.0,0.0,0.0,0.0,0.0,0.0,0.0,0.0,0.0,0.0,0.0,0.0,0.0,0.0,0.0,0.0,0.0,0.0,0.0,0.0,0.0,0.0,0.0,0.0,0.0,0.0,0.0,0.0,0.0,0.0,0.0,0.0,0.0,0.0,0.0,0.0,0.0,0.0,0.0,0.0,0.0,0.0,0.0,0.0,0.0,0.0,0.0,0.0,0.0,0.0,0.0,0.0,0.0,0.0,0.0,0.0,0.0,0.0,0.0,0.0,0.0,0.0,3.9337,3.9265,3.9228,3.9192,3.9083,0.0,0.0,0.0,0.0,0.0,0.0,0.0,0.0,0.0,0.0,0.0,0.0,0.0,0.0,0.0,0.0,0.0,0.0,0.0,0.0,0.0,0.0,0.0,0.0,0.0,0.0,0.0,0.0,0.0,0.0,0.0,0.0,0.0,0.0,0.0,0.0,0.0,0.0,0.0,0.0,0.0,0.0,0.0,0.0,0.0,0.0,0.0,0.0,0.0,0.0,0.0,0.0,0.0,0.0,0.0,0.0,0.0,0.0,0.0,0.0,0.0,0.0,0.0,0.0,0.0,0.0,0.0,0.0,0.0,0.0,0.0,0.0,0.0,0.0,0.0,0.0,0.0,0.0,0.0,0.0,0.0,0.0,0.0,0.0,0.0,0.0,0.0,0.0,0.0,0.0,0.0,0.0,0.0,0.0,0.0,0.0,0.0,0.0,0.0,0.0,0.0,0.0,0.0,0.0,0.0,0.0,0.0,0.0,0.0,0.0,0.0,0.0,3.9128,3.9018,3.8686,0.0,0.0,0.0,0.0,0.0,0.0,0.0,0.0,0.0,0.0,0.0,0.0,0.0,0.0,0.0,0.0,0.0,0.0,0.0,0.0,0.0,0.0,0.0,0.0,0.0,0.0,0.0,0.0,0.0,0.0,0.0,0.0,0.0,0.0,0.0,0.0,0.0,0.0,0.0,0.0,0.0,0.0,0.0,0.0,0.0,0.0,0.0,0.0,0.0,0.0,0.0,0.0,0.0,0.0,0.0,0.0,0.0,0.0,0.0,0.0,0.0,0.0,0.0,0.0,0.0,0.0,0.0,0.0,0.0,0.0,0.0,0.0,0.0,0.0,0.0,0.0,0.0,0.0,0.0,0.0,0.0,0.0,0.0,0.0,0.0,0.0,0.0,0.0,0.0,0.0,0.0,0.0,0.0,0.0,0.0,0.0,0.0,0.0,0.0,0.0,0.0,0.0,0.0,0.0,0.0,0.0,0.0,0.0,0.0,0.0,3.9669,3.8863,3.9207,0.0,3.8335,0.0,0.0,0.0,0.0,0.0,0.0,0.0,0.0,0.0,0.0,0.0,0.0,0.0,0.0,0.0,0.0,0.0,0.0,0.0,0.0,0.0,0.0,0.0,0.0,0.0,0.0,0.0,0.0,0.0,0.0,0.0,0.0,0.0,0.0,0.0,0.0,0.0,0.0,0.0,0.0,0.0,0.0,0.0,0.0,0.0,0.0,0.0,0.0,0.0,0.0,0.0,0.0,0.0,0.0,0.0,0.0,0.0,0.0,0.0,0.0,0.0,0.0,0.0,0.0,0.0,0.0,0.0,0.0,0.0,0.0,0.0,0.0,0.0,0.0,0.0,0.0,0.0,0.0,0.0,0.0,0.0,0.0,0.0,0.0,0.0,0.0,0.0,0.0,0.0,0.0,0.0,0.0,0.0,0.0,0.0,0.0,0.0,0.0,0.0,0.0,0.0,0.0,0.0,0.0,0.0,0.0,0.0,0.0,0.0,0.0,4.005,3.9594,3.9025,3.8542,0.0,0.0,0.0,0.0,0.0,0.0,0.0,0.0,0.0,0.0,0.0,0.0,0.0,0.0,0.0,0.0,0.0,0.0,0.0,0.0,0.0,0.0,0.0,0.0,0.0,0.0,0.0,0.0,0.0,0.0,0.0,0.0,0.0,0.0,0.0,0.0,0.0,0.0,0.0,0.0,0.0,0.0,0.0,0.0,0.0,0.0,0.0,0.0,0.0,0.0,0.0,0.0,0.0,0.0,0.0,0.0,0.0,0.0,0.0,0.0,0.0,0.0,0.0,0.0,0.0,0.0,0.0,0.0,0.0,0.0,0.0,0.0,0.0,0.0,0.0,0.0,0.0,0.0,0.0,0.0,0.0,0.0,0.0,0.0,0.0,0.0,0.0,0.0,0.0,0.0,0.0,0.0,0.0,0.0,0.0,0.0,0.0,0.0,0.0,0.0,0.0,0.0,0.0,0.0,0.0,0.0,0.0,0.0,0.0,0.0,4.0529,4.022,3.9819,3.8779,3.8038,3.7795,0.0,0.0,0.0,0.0,0.0,0.0,0.0,0.0,0.0,0.0,0.0,0.0,0.0,0.0,0.0,0.0,0.0,0.0,0.0,0.0,0.0,0.0,0.0,0.0,0.0,0.0,0.0,0.0,0.0,0.0,0.0,0.0,0.0,0.0,0.0,0.0,0.0,0.0,0.0,0.0,0.0,0.0,0.0,0.0,0.0,0.0,0.0,0.0,0.0,0.0,0.0,0.0,0.0,0.0,0.0,0.0,0.0,0.0,0.0,0.0,0.0,0.0,0.0,0.0,0.0,0.0,0.0,0.0,0.0,0.0,0.0,0.0,0.0,0.0,0.0,0.0,0.0,0.0,0.0,0.0,0.0,0.0,0.0,0.0,0.0,0.0,0.0,0.0,0.0,0.0,0.0,0.0,0.0,0.0,0.0,0.0,0.0,0.0,0.0,0.0,0.0,0.0,0.0,0.0,0.0,0.0,0.0,0.0,4.0176,4.0325,3.9996,3.9156,3.8449,3.7909,0.0,0.0,0.0,0.0,0.0,0.0,0.0,0.0,0.0,0.0,0.0,0.0,0.0,0.0,0.0,0.0,0.0,0.0,0.0,0.0,0.0,0.0,0.0,0.0,0.0,0.0,0.0,0.0,0.0,0.0,0.0,0.0,0.0,0.0,0.0,0.0,0.0,0.0,0.0,0.0,0.0,0.0,0.0,0.0,0.0,0.0,0.0,0.0,0.0,0.0,0.0,0.0,0.0,0.0,0.0,0.0,0.0,0.0,0.0,0.0,0.0,0.0,0.0,0.0,0.0,0.0,0.0,0.0,0.0,0.0,0.0,0.0,0.0,0.0,0.0,0.0,0.0,0.0,0.0,0.0,0.0,0.0,0.0,0.0,0.0,0.0,0.0,0.0,0.0,0.0,0.0,0.0,0.0,0.0,0.0,0.0,0.0,0.0,0.0,0.0,0.0,0.0,0.0,0.0,0.0,0.0,0.0,0.0,0.0,4.0916,4.0407,3.9707,3.8789,3.8152,3.7611,0.0,0.0,0.0,0.0,0.0,0.0,0.0,0.0,0.0,0.0,0.0,0.0,0.0,0.0,0.0,0.0,0.0,0.0,0.0,0.0,0.0,0.0,0.0,0.0,0.0,0.0,0.0,0.0,0.0,0.0,0.0,0.0,0.0,0.0,0.0,0.0,0.0,0.0,0.0,0.0,0.0,0.0,0.0,0.0,0.0,0.0,0.0,0.0,0.0,0.0,0.0,0.0,0.0,0.0,0.0,0.0,0.0,0.0,0.0,0.0,0.0,0.0,0.0,0.0,0.0,0.0,0.0,0.0,0.0,0.0,0.0,0.0,0.0,0.0,0.0,0.0,0.0,0.0,0.0,0.0,0.0,0.0,0.0,0.0,0.0,0.0,0.0,0.0,0.0,0.0,0.0,0.0,0.0,0.0,0.0,0.0,0.0,0.0,0.0,0.0,0.0,0.0,0.0,0.0,0.0,0.0,0.0,0.0,0.0,4.0473,0.0,3.9114,3.8258,3.7844,3.7427,0.0,0.0,0.0,0.0,0.0,0.0,0.0,0.0,0.0,0.0,0.0,0.0,0.0,0.0,0.0,0.0,0.0,0.0,0.0,0.0,0.0,0.0,0.0,0.0,0.0,0.0,0.0,0.0,0.0,0.0,0.0,0.0,0.0,0.0,0.0,0.0,0.0,0.0,0.0,0.0,0.0,0.0,0.0,0.0,0.0,0.0,0.0,0.0,0.0,0.0,0.0,0.0,0.0,0.0,0.0,0.0,0.0,0.0,0.0,0.0,0.0,0.0,0.0,0.0,0.0,0.0,0.0,0.0,0.0,0.0,0.0,0.0,0.0,0.0,0.0,0.0,0.0,0.0,0.0,0.0,0.0,0.0,0.0,0.0,0.0,0.0,0.0,0.0,0.0,0.0,0.0,0.0,0.0,0.0,0.0,0.0,0.0,0.0,0.0,0.0,0.0,0.0,0.0,0.0,0.0,0.0,0.0,0.0,3.9733,3.8674,3.8655,3.8319,3.7531,3.7531,3.7366,0.0,0.0,0.0,0.0,0.0,0.0,0.0,0.0,0.0,0.0,0.0,0.0,0.0,0.0,0.0,0.0,0.0,0.0,0.0,0.0,0.0,0.0,0.0,0.0,0.0,0.0,0.0,0.0,0.0,0.0,0.0,0.0,0.0,0.0,0.0,0.0,0.0,0.0,0.0,0.0,0.0,0.0,0.0,0.0,0.0,0.0,0.0,0.0,0.0,0.0,0.0,0.0,0.0,0.0,0.0,0.0,0.0,0.0,0.0,0.0,0.0,0.0,0.0,0.0,0.0,0.0,0.0,0.0,0.0,0.0,0.0,0.0,0.0,0.0,0.0,0.0,0.0,0.0,0.0,0.0,0.0,0.0,0.0,0.0,0.0,0.0,0.0,0.0,0.0,0.0,0.0,0.0,0.0,0.0,0.0,0.0,0.0,0.0,0.0,0.0,0.0,0.0,0.0,0.0,0.0,0.0,0.0,0.0,0.0,3.8977,3.8929,3.8692,3.8143,3.776,3.7413,0.0,0.0,0.0,0.0,0.0,0.0,0.0,0.0,0.0,0.0,0.0,0.0,0.0,0.0,0.0,0.0,0.0,0.0,0.0,0.0,0.0,0.0,0.0,0.0,0.0,0.0,0.0,0.0,0.0,0.0,0.0,0.0,0.0,0.0,0.0,0.0,0.0,0.0,0.0,0.0,0.0,0.0,0.0,0.0,0.0,0.0,0.0,0.0,0.0,0.0,0.0,0.0,0.0,0.0,0.0,0.0,0.0,0.0,0.0,0.0,0.0,0.0,0.0,0.0,0.0,0.0,0.0,0.0,0.0,0.0,0.0,0.0,0.0,0.0,0.0,0.0,0.0,0.0,0.0,0.0,0.0,0.0,0.0,0.0,0.0,0.0,0.0,0.0,0.0,0.0,0.0,0.0,0.0,0.0,0.0,0.0,0.0,0.0,0.0,0.0,0.0,0.0,0.0,0.0,0.0,0.0,0.0,0.0,0.0,3.9121,3.8737,3.8334,3.799,3.7639,3.7266,3.6895,0.0,0.0,0.0,0.0,0.0,0.0,0.0,0.0,0.0,0.0,0.0,0.0,0.0,0.0,0.0,0.0,0.0,0.0,0.0,0.0,0.0,0.0,0.0,0.0,0.0,0.0,0.0,0.0,0.0,0.0,0.0,0.0,0.0,0.0,0.0,0.0,0.0,0.0,0.0,0.0,0.0,0.0,0.0,0.0,0.0,0.0,0.0,0.0,0.0,0.0,0.0,0.0,0.0,0.0,0.0,0.0,0.0,0.0,0.0,0.0,0.0,0.0,0.0,0.0,0.0,0.0,0.0,0.0,0.0,0.0,0.0,0.0,0.0,0.0,0.0,0.0,0.0,0.0,0.0,0.0,0.0,0.0,0.0,0.0,0.0,0.0,0.0,0.0,0.0,0.0,0.0,0.0,0.0,0.0,0.0,0.0,0.0,0.0,0.0,0.0,0.0,0.0,0.0,0.0,0.0,0.0,0.0,0.0,3.9194,3.815,3.7516,3.734,3.7315,3.6946,0.0,0.0,0.0,0.0,0.0,0.0,0.0,0.0,0.0,0.0,0.0,0.0,0.0,0.0,0.0,0.0,0.0,0.0,0.0,0.0,0.0,0.0,0.0,0.0,0.0,0.0,0.0,0.0,0.0,0.0,0.0,0.0,0.0,0.0,0.0,0.0,0.0,0.0,0.0,0.0,0.0,0.0,0.0,0.0,0.0,0.0,0.0,0.0,0.0,0.0,0.0,0.0,0.0,0.0,0.0,0.0,0.0,0.0,0.0,0.0,0.0,0.0,0.0,0.0,0.0,0.0,0.0,0.0,0.0,0.0,0.0,0.0,0.0,0.0,0.0,0.0,0.0,0.0,0.0,0.0,0.0,0.0,0.0,0.0,0.0,0.0,0.0,0.0,0.0,0.0,0.0,0.0,0.0,0.0,0.0,0.0,0.0,0.0,0.0,0.0,0.0,0.0,0.0,0.0,0.0,0.0,0.0,0.0,0.0,3.9077,3.8413,3.8143,3.8273,3.7939,3.7481,0.0,0.0,0.0,0.0,0.0,0.0,0.0,0.0,0.0,0.0,0.0,0.0,0.0,0.0,0.0,0.0,0.0,0.0,0.0,0.0,0.0,0.0,0.0,0.0,0.0,0.0,0.0,0.0,0.0,0.0,0.0,0.0,0.0,0.0,0.0,0.0,0.0,0.0,0.0,0.0,0.0,0.0,0.0,0.0,0.0,0.0,0.0,0.0,0.0,0.0,0.0,0.0,0.0,0.0,0.0,0.0,0.0,0.0,0.0,0.0,0.0,0.0,0.0,0.0,0.0,0.0,0.0,0.0,0.0,0.0,0.0,0.0,0.0,0.0,0.0,0.0,0.0,0.0,0.0,0.0,0.0,0.0,0.0,0.0,0.0,0.0,0.0,0.0,0.0,0.0,0.0,0.0,0.0,0.0,0.0,0.0,0.0,0.0,0.0,0.0,0.0,0.0,0.0,0.0,0.0,0.0,0.0,0.0,3.9268,3.8964,3.8263,3.7988,3.8124,3.7722,3.7268,0.0,0.0,0.0,0.0,0.0,0.0,0.0,0.0,0.0,0.0,0.0,0.0,0.0,0.0,0.0,0.0,0.0,0.0,0.0,0.0,0.0,0.0,0.0,0.0,0.0,0.0,0.0,0.0,0.0,0.0,0.0,0.0,0.0,0.0,0.0,0.0,0.0,0.0,0.0,0.0,0.0,0.0,0.0,0.0,0.0,0.0,0.0,0.0,0.0,0.0,0.0,0.0,0.0,0.0,0.0,0.0,0.0,0.0,0.0,0.0,0.0,0.0,0.0,0.0,0.0,0.0,0.0,0.0,0.0,0.0,0.0,0.0,0.0,0.0,0.0,0.0,0.0,0.0,0.0,0.0,0.0,0.0,0.0,0.0,0.0,0.0,0.0,0.0,0.0,0.0,0.0,0.0,0.0,0.0,0.0,0.0,0.0,0.0,0.0,0.0,0.0,0.0,0.0,0.0,0.0,0.0,0.0,0.0,3.8964,3.8679,3.7881,3.7405,3.7236,3.7036,3.6698,0.0,0.0,0.0,0.0,0.0,0.0,0.0,0.0,0.0,0.0,0.0,0.0,0.0,0.0,0.0,0.0,0.0,0.0,0.0,0.0,0.0,0.0,0.0,0.0,0.0,0.0,0.0,0.0,0.0,0.0,0.0,0.0,0.0,0.0,0.0,0.0,0.0,0.0,0.0,0.0,0.0,0.0,0.0,0.0,0.0,0.0,0.0,0.0,0.0,0.0,0.0,0.0,0.0,0.0,0.0,0.0,0.0,0.0,0.0,0.0,0.0,0.0,0.0,0.0,0.0,0.0,0.0,0.0,0.0,0.0,0.0,0.0,0.0,0.0,0.0,0.0,0.0,0.0,0.0,0.0,0.0,0.0,0.0,0.0,0.0,0.0,0.0,0.0,0.0,0.0,0.0,0.0,0.0,0.0,0.0,0.0,0.0,0.0,0.0,0.0,0.0,0.0,0.0,0.0,0.0,0.0,0.0,0.0,3.8944,3.8531,3.7957,3.7356,3.6789,3.6736,3.6302,0.0,0.0,0.0,0.0,0.0,0.0,0.0,0.0,0.0,0.0,0.0,0.0,0.0,0.0,0.0,0.0,0.0,0.0,0.0,0.0,0.0,0.0,0.0,0.0,0.0,0.0,0.0,0.0,0.0,0.0,0.0,0.0,0.0,0.0,0.0,0.0,0.0,0.0,0.0,0.0,0.0,0.0,0.0,0.0,0.0,0.0,0.0,0.0,3.6006,0.0,0.0,0.0,0.0,0.0,0.0,0.0,0.0,0.0,0.0,0.0,0.0,0.0,0.0,0.0,0.0,0.0,0.0,0.0,0.0,0.0,0.0,0.0,0.0,0.0,0.0,0.0,0.0,0.0,0.0,0.0,0.0,0.0,0.0,0.0,0.0,0.0,0.0,0.0,0.0,0.0,0.0,0.0,0.0,0.0,0.0,0.0,0.0,0.0,0.0,0.0,0.0,0.0,0.0,0.0,0.0,0.0,0.0,0.0,3.8642,3.8226,3.7594,3.704,3.6529,3.6102,3.561,0.0,0.0,0.0,0.0,0.0,0.0,0.0,0.0,0.0,0.0,0.0,0.0,0.0,0.0,0.0,0.0,0.0,0.0,0.0,0.0,0.0,0.0,0.0,0.0,0.0,0.0,0.0,0.0,0.0,0.0,0.0,0.0,0.0,0.0,0.0,0.0,0.0,0.0,0.0,0.0,0.0,0.0,0.0,0.0,0.0,0.0,0.0,0.0,0.0,0.0,0.0,0.0,0.0,0.0,0.0,0.0,0.0,0.0,0.0,0.0,0.0,0.0,0.0,0.0,0.0,0.0,0.0,0.0,0.0,0.0,0.0,0.0,0.0,0.0,0.0,0.0,0.0,0.0,0.0,0.0,0.0,0.0,0.0,0.0,0.0,0.0,0.0,0.0,0.0,0.0,0.0,0.0,0.0,0.0,0.0,0.0,0.0,0.0,0.0,0.0,0.0,0.0,0.0,0.0,0.0,0.0,0.0,3.862,3.8204,3.7817,3.7091,3.6636,3.6308,3.5561,3.5012,3.4595,0.0,0.0,0.0,0.0,0.0,0.0,0.0,0.0,0.0,0.0,0.0,0.0,0.0,0.0,0.0,0.0,0.0,0.0,0.0,0.0,0.0,0.0,0.0,0.0,0.0,0.0,0.0,0.0,0.0,0.0,0.0,0.0,0.0,0.0,0.0,0.0,0.0,0.0,3.5683,3.6182,0.0,0.0,0.0,0.0,0.0,0.0,0.0,0.0,3.799,0.0,0.0,0.0,0.0,0.0,0.0,0.0,0.0,0.0,0.0,0.0,0.0,0.0,0.0,0.0,0.0,0.0,0.0,0.0,0.0,0.0,0.0,0.0,0.0,0.0,0.0,0.0,0.0,0.0,0.0,0.0,0.0,0.0,0.0,0.0,0.0,0.0,0.0,0.0,0.0,0.0,0.0,0.0,0.0,0.0,0.0,0.0,0.0,0.0,0.0,0.0,0.0,0.0,0.0,0.0,0.0,3.8576,3.8207,3.7842,3.7467,3.6896,3.6363,3.5951,3.5567,3.4962,3.427,0.0,0.0,0.0,0.0,0.0,0.0,0.0,0.0,0.0,0.0,0.0,0.0,0.0,0.0,0.0,0.0,0.0,0.0,0.0,0.0,0.0,0.0,0.0,0.0,0.0,0.0,0.0,0.0,0.0,0.0,0.0,0.0,0.0,0.0,0.0,0.0,0.0,0.0,0.0,3.6985,3.7211,0.0,0.0,0.0,0.0,0.0,0.0,0.0,0.0,3.7965,0.0,0.0,0.0,0.0,0.0,0.0,0.0,0.0,0.0,0.0,0.0,0.0,0.0,0.0,0.0,0.0,0.0,0.0,0.0,0.0,0.0,0.0,0.0,0.0,0.0,0.0,0.0,0.0,0.0,0.0,0.0,0.0,0.0,0.0,0.0,0.0,0.0,0.0,0.0,0.0,0.0,0.0,0.0,0.0,0.0,0.0,0.0,0.0,0.0,0.0,0.0,0.0,0.0,0.0,0.0,3.7779,3.7503,3.7242,3.6936,3.6622,3.6285,3.5973,3.5575,3.5078,0.0,0.0,0.0,0.0,0.0,0.0,0.0,0.0,0.0,0.0,0.0,0.0,0.0,0.0,0.0,0.0,0.0,0.0,0.0,0.0,0.0,0.0,0.0,0.0,0.0,0.0,0.0,0.0,0.0,0.0,0.0,0.0,0.0,0.0,0.0,0.0,0.0,0.0,0.0,0.0,3.7437,3.7713,3.799,0.0,0.0,0.0,0.0,0.0,0.0,3.8868,3.8793,0.0,0.0,0.0,0.0,0.0,0.0,0.0,0.0,0.0,0.0,0.0,0.0,0.0,0.0,0.0,0.0,0.0,0.0,0.0,0.0,0.0,0.0,0.0,0.0,0.0,0.0,0.0,0.0,0.0,0.0,0.0,0.0,0.0,0.0,0.0,0.0,0.0,0.0,0.0,0.0,0.0,0.0,0.0,0.0,0.0,0.0,0.0,0.0,0.0,0.0,0.0,0.0,0.0,0.0,0.0,3.704,3.6865,3.6716,3.6499,3.6451,3.6268,3.6016,3.5684,3.5254,0.0,0.0,0.0,0.0,0.0,0.0,0.0,0.0,0.0,0.0,0.0,0.0,0.0,0.0,0.0,0.0,0.0,0.0,0.0,0.0,0.0,0.0,0.0,0.0,0.0,0.0,0.0,0.0,0.0,0.0,0.0,0.0,0.0,0.0,0.0,0.0,0.0,0.0,0.0,0.0,0.0,3.8216,3.8341,3.8442,0.0,0.0,0.0,0.0,3.9948,4.0023,0.0,0.0,0.0,0.0,0.0,0.0,0.0,0.0,0.0,0.0,0.0,0.0,0.0,0.0,0.0,0.0,0.0,0.0,0.0,0.0,0.0,0.0,0.0,0.0,0.0,0.0,0.0,0.0,0.0,0.0,0.0,0.0,0.0,0.0,0.0,0.0,0.0,0.0,0.0,0.0,0.0,0.0,0.0,0.0,0.0,0.0,0.0,0.0,0.0,0.0,0.0,0.0,0.0,0.0,0.0,0.0,3.6439,3.6509,3.6527,3.6519,3.62,3.6016,3.6035,3.5976,3.5566,0.0,0.0,0.0,0.0,0.0,0.0,0.0,0.0,0.0,0.0,0.0,0.0,0.0,0.0,0.0,0.0,0.0,0.0,0.0,0.0,0.0,0.0,0.0,0.0,0.0,0.0,0.0,0.0,0.0,0.0,0.0,0.0,0.0,0.0,0.0,0.0,0.0,0.0,0.0,0.0,0.0,3.8944,3.9421,3.9923,4.0249,0.0,0.0,4.1,4.11,4.11,0.0,0.0,0.0,0.0,0.0,0.0,0.0,0.0,0.0,0.0,0.0,0.0,0.0,0.0,0.0,0.0,0.0,0.0,0.0,0.0,0.0,0.0,0.0,0.0,0.0,0.0,0.0,0.0,0.0,0.0,0.0,0.0,0.0,0.0,0.0,0.0,0.0,0.0,0.0,0.0,0.0,0.0,0.0,0.0,0.0,0.0,0.0,0.0,0.0,0.0,0.0,0.0,0.0,0.0,0.0,3.5826,3.6042,3.6412,3.6642,3.6642,3.6455,3.6387,3.6387,3.6152,3.5605,0.0,0.0,0.0,0.0,0.0,0.0,0.0,0.0,0.0,0.0,0.0,0.0,0.0,0.0,0.0,0.0,0.0,0.0,0.0,0.0,0.0,0.0,0.0,0.0,0.0,0.0,0.0,0.0,0.0,0.0,0.0,0.0,0.0,0.0,0.0,0.0,0.0,0.0,0.0,0.0,0.0,0.0,4.0287,4.0401,0.0,0.0,0.0,4.1139,4.1275,0.0,0.0,0.0,0.0,0.0,0.0,0.0,0.0,0.0,0.0,0.0,0.0,0.0,0.0,0.0,0.0,0.0,0.0,0.0,0.0,0.0,0.0,0.0,0.0,0.0,0.0,0.0,0.0,0.0,0.0,0.0,0.0,0.0,0.0,0.0,0.0,0.0,0.0,0.0,0.0,0.0,0.0,0.0,0.0,0.0,0.0,0.0,0.0,0.0,0.0,0.0,0.0,0.0,0.0,0.0,0.0,0.0,3.5681,3.6132,3.6441,3.6538,3.6677,3.6638,3.6521,3.6279,0.0,0.0,0.0,0.0,0.0,0.0,0.0,0.0,0.0,0.0,0.0,0.0,0.0,0.0,0.0,0.0,0.0,0.0,0.0,0.0,0.0,0.0,0.0,0.0,0.0,0.0,0.0,3.7563,0.0,0.0,0.0,0.0,0.0,0.0,0.0,0.0,0.0,0.0,0.0,0.0,0.0,0.0,4.0426,4.0715,4.0695,4.0715,0.0,0.0,4.135,4.1568,4.1593,4.1543,0.0,0.0,0.0,0.0,0.0,0.0,0.0,0.0,0.0,0.0,0.0,0.0,0.0,0.0,0.0,0.0,0.0,0.0,0.0,0.0,0.0,0.0,0.0,0.0,0.0,0.0,0.0,0.0,3.2229,0.0,0.0,0.0,0.0,0.0,0.0,0.0,0.0,0.0,0.0,0.0,0.0,0.0,0.0,0.0,0.0,0.0,0.0,0.0,0.0,0.0,0.0,0.0,0.0,0.0,3.4602,3.4952,3.537,3.5806,3.6114,3.654,3.656,3.6193,3.6502,3.623,0.0,0.0,0.0,0.0,0.0,0.0,0.0,0.0,0.0,0.0,0.0,0.0,0.0,0.0,0.0,0.0,0.0,0.0,0.0,0.0,0.0,0.0,0.0,0.0,0.0,0.0,0.0,0.0,0.0,0.0,0.0,0.0,0.0,0.0,0.0,0.0,0.0,0.0,0.0,0.0,0.0,4.074,4.0439,4.0906,4.125,0.0,0.0,4.2413,4.2413,4.2413,4.2239,4.1743,0.0,0.0,0.0,0.0,0.0,0.0,0.0,0.0,0.0,0.0,0.0,0.0,0.0,0.0,0.0,0.0,0.0,0.0,0.0,0.0,0.0,0.0,0.0,0.0,0.0,3.293,0.0,0.0,3.2949,0.0,0.0,0.0,0.0,0.0,0.0,0.0,0.0,0.0,0.0,0.0,0.0,0.0,0.0,0.0,0.0,0.0,0.0,0.0,0.0,0.0,0.0,0.0,0.0,3.4637,3.5281,3.5698,3.6133,3.655,3.6909,3.7028,3.6874,3.6976,3.666,0.0,0.0,0.0,0.0,0.0,0.0,0.0,0.0,0.0,0.0,0.0,0.0,0.0,0.0,0.0,0.0,0.0,0.0,0.0,0.0,0.0,0.0,0.0,0.0,0.0,0.0,0.0,0.0,4.0074,4.04,4.0375,0.0,0.0,0.0,0.0,0.0,0.0,0.0,0.0,0.0,0.0,4.0554,4.0612,4.0602,0.0,0.0,4.1371,4.1745,4.1948,4.1948,4.1874,4.1678,4.1103,0.0,0.0,0.0,0.0,0.0,0.0,0.0,0.0,0.0,0.0,0.0,0.0,0.0,0.0,0.0,0.0,0.0,0.0,0.0,0.0,0.0,0.0,0.0,0.0,0.0,0.0,0.0,0.0,0.0,0.0,0.0,0.0,0.0,0.0,0.0,0.0,0.0,0.0,0.0,0.0,0.0,0.0,0.0,0.0,0.0,0.0,0.0,0.0,0.0,0.0,0.0,0.0,3.4325,3.4993,3.5473,3.5901,3.6456,3.6821,3.7055,3.7066,3.7209,3.7008,0.0,0.0,0.0,0.0,0.0,0.0,0.0,0.0,0.0,0.0,0.0,0.0,0.0,0.0,0.0,0.0,0.0,0.0,0.0,0.0,0.0,0.0,0.0,0.0,0.0,0.0,0.0,0.0,4.105,4.1275,4.1275,0.0,0.0,0.0,0.0,0.0,0.0,0.0,0.0,0.0,0.0,4.033,4.0481,4.0142,4.006,4.0411,4.0748,4.0976,4.1148,4.1206,4.1206,4.1206,0.0,0.0,0.0,0.0,0.0,0.0,0.0,0.0,0.0,0.0,0.0,0.0,0.0,0.0,0.0,0.0,0.0,0.0,0.0,0.0,0.0,0.0,0.0,0.0,0.0,0.0,0.0,3.3418,0.0,0.0,3.3457,0.0,0.0,0.0,0.0,0.0,0.0,0.0,0.0,0.0,0.0,0.0,0.0,0.0,0.0,0.0,0.0,0.0,0.0,0.0,0.0,0.0,0.0,3.3536,3.3944,3.4318,3.4839,3.5587,3.6052,3.6257,3.6271,3.6994,3.7215,3.6701,0.0,0.0,0.0,0.0,0.0,0.0,0.0,0.0,0.0,0.0,0.0,0.0,0.0,0.0,0.0,0.0,0.0,0.0,0.0,0.0,0.0,0.0,0.0,0.0,0.0,0.0,4.1275,4.13,4.1326,0.0,0.0,0.0,0.0,0.0,0.0,0.0,0.0,0.0,0.0,4.0067,4.0153,3.9988,3.9607,3.9469,3.9928,4.014,4.0246,4.0246,4.0246,4.0223,0.0,0.0,0.0,0.0,0.0,0.0,0.0,0.0,0.0,0.0,0.0,0.0,0.0,0.0,0.0,0.0,0.0,0.0,0.0,0.0,0.0,0.0,0.0,0.0,0.0,0.0,0.0,3.4277,3.4277,0.0,0.0,0.0,0.0,0.0,0.0,0.0,0.0,0.0,0.0,0.0,3.3472,3.271,0.0,0.0,0.0,0.0,0.0,0.0,0.0,0.0,0.0,0.0,0.0,0.0,3.3176,3.3724,3.3863,3.447,3.5539,3.594,3.6403,3.6975,3.7539,3.7709,3.7501,0.0,0.0,0.0,0.0,0.0,0.0,0.0,0.0,0.0,0.0,0.0,0.0,0.0,0.0,0.0,0.0,0.0,0.0,0.0,0.0,0.0,0.0,0.0,0.0,0.0,4.1428,0.0,0.0,0.0,0.0,0.0,0.0,0.0,0.0,0.0,0.0,0.0,4.0402,3.9593,3.9147,3.8911,3.8764,3.8576,3.8592,0.0,0.0,0.0,0.0,0.0,0.0,0.0,0.0,0.0,0.0,0.0,0.0,0.0,0.0,3.7797,3.754,3.7754,3.7976,3.7976,0.0,0.0,0.0,0.0,0.0,0.0,0.0,0.0,0.0,0.0,0.0,0.0,0.0,0.0,3.4687,0.0,3.4687,0.0,0.0,0.0,0.0,0.0,0.0,0.0,0.0,3.3644,3.3363,3.3294,3.228,3.1909,0.0,3.1688,3.122,0.0,0.0,0.0,0.0,0.0,0.0,0.0,0.0,3.2409,3.2816,3.3066,3.3741,3.4759,3.5245,3.585,3.6736,3.7535,3.8006,3.7967,3.7273,3.6777,0.0,0.0,0.0,0.0,0.0,0.0,0.0,0.0,0.0,0.0,0.0,0.0,0.0,0.0,0.0,0.0,0.0,0.0,0.0,0.0,0.0,0.0,0.0,4.1379,0.0,0.0,0.0,0.0,0.0,0.0,0.0,0.0,0.0,4.1115,4.0597,3.9952,3.9098,3.8596,3.8275,3.822,0.0,0.0,0.0,0.0,0.0,0.0,0.0,3.8982,3.8982,3.8417,3.7974,3.7974,3.7974,3.7848,3.7296,0.0,0.0,3.7183,3.7374,3.7588,3.7588,3.7609,3.7421,3.7086,3.6478,3.581,0.0,0.0,0.0,0.0,0.0,0.0,0.0,0.0,3.4627,3.4824,0.0,3.4844,0.0,0.0,0.0,0.0,0.0,3.4258,0.0,0.0,3.3858,3.3744,3.3564,3.2103,3.1384,3.1326,3.0585,3.0005,2.9797,3.075,0.0,0.0,0.0,0.0,0.0,0.0,3.1241,3.1304,3.1999,3.2745,3.3585,3.4025,3.4637,3.5609,3.714,3.8066,3.8032,3.8375,3.8184,3.7363,3.6543,0.0,0.0,0.0,0.0,0.0,0.0,0.0,0.0,0.0,0.0,0.0,0.0,0.0,0.0,0.0,0.0,0.0,0.0,0.0,0.0,4.1081,0.0,0.0,0.0,0.0,0.0,0.0,0.0,0.0,0.0,0.0,4.0259,3.9767,3.9219,3.8547,0.0,0.0,0.0,0.0,3.789,3.84,3.8359,3.8335,3.8335,3.8039,3.7742,3.7806,0.0,0.0,3.6738,3.6758,3.6714,3.633,3.6326,3.6309,3.6632,3.674,3.672,3.674,3.6761,3.6632,3.6395,3.6391,3.6111,3.0472,0.0,0.0,0.0,0.0,3.3613,3.4527,3.5585,3.5924,3.6128,3.6128,3.6109,0.0,0.0,0.0,0.0,0.0,0.0,3.3965,3.3911,3.2934,3.2416,3.2416,3.101,3.0499,3.0732,2.9879,2.9453,2.9295,2.9611,2.9526,2.9002,0.0,0.0,0.0,0.0,3.0581,3.1117,3.1557,3.2355,3.3499,3.3661,3.4578,3.6307,3.7696,3.8535,3.8838,3.8957,3.8769,3.8223,3.7676,0.0,0.0,0.0,0.0,0.0,0.0,0.0,0.0,0.0,0.0,0.0,0.0,0.0,0.0,0.0,0.0,0.0,0.0,0.0,4.0778,4.0824,4.0824,0.0,0.0,0.0,0.0,0.0,0.0,0.0,0.0,0.0,3.898,3.913,3.8909,0.0,0.0,3.7143,3.7012,3.6885,3.7033,3.7682,3.8042,0.0,0.0,3.8569,3.8594,3.8527,3.8208,3.7935,3.7935,3.7935,3.7698,3.7037,3.6909,3.6761,3.6289,3.6369,3.6496,3.6496,3.6719,3.7064,3.7213,3.7092,3.6921,2.909,2.9682,3.0688,3.1667,3.265,3.3462,3.4492,3.567,3.6058,3.6295,3.6437,3.6437,3.6242,3.5815,3.5534,0.0,0.0,0.0,3.3506,3.3449,3.2141,3.1536,3.1474,3.0263,2.9765,2.9863,2.9225,2.8925,2.8882,2.8734,2.8514,2.8259,0.0,0.0,2.8712,2.9283,2.9792,3.0238,3.0548,3.1287,3.2391,3.3148,3.4343,3.6119,3.7388,3.8383,3.8975,3.9335,3.9304,3.8848,3.8418,3.7754,0.0,0.0,0.0,0.0,0.0,0.0,0.0,0.0,0.0,0.0,0.0,3.8807,3.8807,0.0,0.0,0.0,3.9466,3.9601,3.9893,3.9916,0.0,0.0,0.0,0.0,0.0,0.0,0.0,3.9765,3.9904,3.9693,3.8933,3.8977,3.8763,3.771,3.7456,3.7386,3.7179,0.0,3.7368,3.7766,3.8118,3.8369,3.8575,3.8503,3.8406,3.8267,3.8077,3.7937,3.7937,3.7957,3.7768,3.7411,3.7262,3.7114,3.6651,3.6631,3.6586,3.6289,3.6634,3.7032,3.7291,3.7282,3.7341,2.7824,2.8656,3.0442,3.1712,3.2526,3.3308,3.4125,3.4938,3.5316,3.5712,3.6108,3.6108,3.5912,3.5445,3.4607,0.0,3.4228,3.3236,3.2855,3.2793,3.1587,3.0942,3.0861,2.9668,2.9048,2.9048,2.8655,2.8506,2.852,2.8139,2.7976,2.7948,2.8343,2.8479,2.8437,2.8797,2.8951,2.8979,2.9327,2.99,3.0832,3.2572,3.4049,3.5302,3.6609,3.7726,3.8635,3.947,3.97,3.9297,3.8887,3.8457,3.7949,0.0,0.0,0.0,0.0,0.0,0.0,0.0,0.0,0.0,0.0,0.0,0.0,0.0,0.0,3.8673,3.8738,0.0,3.8781,3.8781,0.0,0.0,0.0,3.8781,3.8781,3.9563,4.004,3.9667,0.0,0.0,3.953,3.9155,3.88,3.8274,3.8328,3.8357,3.8307,3.8287,3.8367,3.8387,3.8447,3.8487,3.8628,3.8345,3.8062,3.772,3.7441,3.7571,3.7532,3.7512,3.7422,3.7344,3.7344,3.7305,3.7305,3.7277,3.7051,3.6269,3.6445,3.6808,3.6905,3.7179,3.7383,2.8482,2.8718,2.9487,3.0359,3.131,3.2093,3.3248,3.4553,3.4969,3.5497,3.6178,3.616,3.589,3.5416,3.4273,3.3764,3.3687,3.2205,3.1492,3.1523,3.0491,2.9987,2.9905,2.9159,2.8855,2.8869,2.8683,2.8538,2.8551,2.8681,2.8596,2.8466,2.8538,2.8379,2.7946,2.8331,2.8648,2.8882,2.9286,2.99,3.0817,3.2226,3.3608,3.4913,3.6448,3.7852,3.9045,3.9888,4.0125,3.9785,3.9629,3.9082,3.7988,3.7734,0.0,0.0,0.0,0.0,0.0,0.0,0.0,0.0,0.0,3.7065,3.7001,0.0,3.744,0.0,3.8862,3.926,3.926,3.9192,0.0,0.0,3.926,3.926,3.9192,3.9448,3.9458,3.9117,3.9453,3.9613,3.9212,3.9441,3.9565,3.9398,3.8556,3.7867,3.7656,3.7862,3.8177,3.8511,3.8826,3.9087,3.9456,3.95,3.9195,3.8809,3.873,3.8652,3.832,3.8281,3.8164,3.7851,3.7773,3.7656,3.7383,3.7305,3.7246,3.7031,3.709,3.7246,3.7559,3.7695,3.7871,2.8802,2.8962,2.9188,2.9833,3.0715,3.1201,3.2274,3.3603,3.3964,3.4637,3.5305,3.5173,3.49,3.4558,3.3462,3.289,3.2586,3.1437,3.0862,3.0632,2.9739,2.9299,2.9453,2.8947,2.8757,2.8893,2.881,2.8791,2.8804,2.8965,2.8965,2.8804,2.8804,2.8631,2.8297,2.8295,2.8408,2.8571,2.9116,2.9846,3.0636,3.1766,3.3006,3.4326,3.597,3.749,3.8938,3.9805,4.0221,4.0139,4.0176,3.9668,3.8555,3.832,3.8027,0.0,0.0,0.0,0.0,0.0,0.0,0.0,0.0,0.0,0.0,0.0,3.7697,3.8187,3.8677,3.9044,3.9179,3.9199,3.9281,3.9484,3.9575,3.9505,3.9505,3.9668,3.9719,3.9505,3.9746,3.9863,3.9685,3.9736,3.983,3.981,3.92,3.8655,3.8549,3.8672,3.8887,3.9141,3.9355,3.959,3.9863,3.9883,3.9824,3.957,3.9512,3.9434,3.9199,3.916,3.9004,3.8594,3.8496,3.8359,3.7969,3.7871,3.7871,3.7871,3.7871,3.7891,3.791,3.8086,3.8301,2.9034,2.9277,2.9277,2.9777,3.0459,3.062,3.1352,3.2523,3.2757,3.3387,3.4058,3.3661,3.343,3.3383,3.2469,3.1798,3.1405,3.0783,3.0346,3.0069,2.9131,2.8958,2.9244,2.8829,2.8791,2.9032,2.9085,2.9098,2.9098,2.9125,2.9125,2.9098,2.9085,2.9085,2.9018,2.8524,2.8341,2.8341,2.8951,2.9625,3.0391,3.1335,3.251,3.387,3.539,3.6902,3.8524,3.9411,4.0103,4.047,4.0527,4.0137,3.9336,3.8945,3.8574,0.0,3.7773,0.0,0.0,0.0,0.0,0.0,0.0,0.0,0.0,3.8117,3.8417,3.8457,3.8537,3.8717,3.9097,3.9117,3.9278,3.9658,3.9718,3.9718,3.9718,4.0038,4.0258,4.0258,4.04,4.0472,4.0452,4.0269,4.0215,4.0293,4.0273,4.0215,4.0195,4.0039,3.9922,3.998,4.0019,4.0117,4.0137,4.0098,4.0078,4.0,3.998,3.9961,3.9863,3.9844,3.9746,3.9375,3.9258,3.9121,3.873,3.8652,3.8613,3.8535,3.8516,3.8418,3.8144,3.8301,3.8555,3.0165,2.966,2.992,3.0001,2.9905,2.9998,3.0794,3.1905,3.1968,3.2396,3.3162,3.3046,3.278,3.2273,3.1445,3.0827,3.0412,2.9551,2.9284,2.9448,2.8866,2.8757,2.9038,2.8951,2.8991,2.8971,2.9285,2.9406,2.9406,2.9633,2.9633,2.9406,2.9406,2.9285,2.9045,0.0,0.0,0.0,2.9011,2.9499,3.0405,3.1296,3.2499,3.3886,3.5558,0.0,3.8542,3.9411,4.0103,4.047,4.0527,0.0,0.0,0.0,0.0,0.0,0.0,0.0,0.0,0.0,0.0,0.0,3.8837,3.84,3.7516,3.8105,3.8694,3.9028,3.9401,3.9676,3.9735,3.9755,3.9794,3.9853,3.9873,3.9873,3.9873,3.9951,3.9991,4.001,4.0602,4.1072,4.1112,4.1504,4.1914,4.1836,4.1933,4.1953,4.1894,4.1035,4.0449,4.043,4.0723,4.0918,4.0937,4.0918,4.0762,4.0527,4.041,4.0293,4.0019,3.9922,3.9902,3.9766,3.9766,3.9629,3.918,3.9082,3.8965,3.8633,3.8574,3.8555,3.8476,3.8516,3.8574,3.1653,0.0,3.1242,3.1093,0.0,3.0736,3.1055,3.1543,3.1199,3.1483,3.2242,3.2333,3.2153,3.1637,3.1143,3.0552,2.9957,2.9446,2.9186,2.9149,2.8904,2.8978,2.9259,2.9259,2.9339,2.9472,2.9619,2.97,2.97,2.9847,2.9847,2.97,2.97,2.9619,2.9486,2.9619,2.9553,2.9259,2.9259,2.9764,3.0839,3.1323,3.2461,3.407,0.0,0.0,0.0,0.0,0.0,0.0,0.0,0.0,0.0,0.0,0.0,3.9902,3.9668,3.9551,3.9531,3.9355,3.9316,3.9531,3.9746,3.9492,3.8633,3.8984,3.9394,3.9824,4.0078,4.0371,4.0781,4.084,4.0918,4.1113,4.1152,4.1152,4.1152,4.1133,4.1152,4.1172,4.1523,4.1797,4.1797,4.2129,4.2402,4.2422,4.2422,4.2441,4.2383,4.1894,4.1465,4.1465,4.1621,4.1699,4.1523,4.1484,4.1328,4.0957,4.084,4.0762,4.0566,4.0527,4.0469,4.0273,4.0215,4.0059,3.9648,3.9375,3.9141,3.8926,3.8711,3.8594,3.8574,3.8574,3.8574,3.323,3.3148,3.2799,3.2514,3.2349,3.2062,3.1744,3.1464,0.0,0.0,0.0,3.1678,3.1572,3.0993,3.0909,3.0419,2.964,2.9553,2.9406,2.9125,2.9112,2.9272,2.9553,2.9566,2.9686,2.99,2.9913,2.9913,2.9913,2.9967,2.9993,2.9993,3.0047,3.006,3.0087,3.0314,3.0194,2.974,2.9659,3.0185,3.1296,3.1547,3.2412,3.4259,3.5342,3.6525,3.7976,3.9256,4.0151,4.0681,4.1152,4.123,4.0898,4.0859,4.0703,4.0371,4.0351,4.0332,4.0351,4.0351,4.0351,4.0351,4.0664,4.0644,4.0156,4.0195,4.041,4.082,4.0859,4.1152,4.1836,4.1914,4.2051,4.2383,4.2422,4.2402,4.2402,4.2422,4.2344,4.2422,4.2441,4.2539,4.2519,4.2617,4.2656,4.2656,4.2715,4.2656,4.2617,4.248,4.2305,4.2305,4.2285,4.2266,4.2012,4.1914,4.1738,4.1367,4.1289,4.1269,4.1191,4.1172,4.1035,4.0684,4.0644,4.0449,4.0098,3.9746,3.9394,3.9238,3.8926,3.8652,3.8594,3.8574,3.8574,3.4865,3.4539,3.4356,3.3905,3.3187,3.3482,3.2844,3.1722,3.1315,3.1029,3.0764,3.108,3.078,2.9918,2.9872,2.964,2.9132,2.9132,2.9179,0.0,2.9419,2.9579,2.9847,2.986,2.9873,2.9913,2.9913,2.9913,2.994,3.0167,3.0301,3.0327,3.0541,3.0662,3.0675,3.0715,3.0688,3.0608,3.0354,3.07,3.1721,3.1859,3.2705,3.4275,3.5601,3.6913,3.8365,3.9677,4.0796,4.1545,4.2026,4.2226,4.2168,4.2129,4.2129,4.207,4.207,4.207,4.207,4.207,4.207,4.207,4.2129,4.1836,4.1094,4.1328,4.1699,4.2109,4.2109,4.2207,4.2344,4.2363,4.2402,4.2441,4.2441,4.2422,4.25,4.2519,4.2539,4.2558,4.2754,4.3008,4.3047,4.3281,4.3437,4.3496,4.3379,4.3476,4.334,4.2891,4.248,4.2422,4.2422,4.2402,4.2363,4.2344,4.2148,4.1777,4.168,4.1543,4.1211,4.1172,4.1133,4.1074,4.1035,4.0879,4.0508,4.041,4.0,3.9434,3.9141,3.8984,3.8672,3.8574,3.8574,3.6637,3.6433,3.619,3.5692,3.5041,3.453,3.3762,3.291,3.2427,3.1568,3.0581,3.1138,3.0845,2.9973,3.0137,2.9941,2.9513,2.9513,2.9579,2.9713,2.9726,2.9793,2.99,2.9913,3.0007,3.0154,3.0154,3.0234,3.0394,3.0528,3.0595,3.0608,3.0728,3.0875,3.1022,3.1022,3.1116,3.1249,3.0822,3.0961,3.1587,3.198,3.2829,3.4286,3.5699,3.7198,3.8628,4.0018,4.1062,4.1738,4.2156,4.2422,4.2422,4.2422,4.2422,4.2422,4.2422,4.2422,4.2422,4.2422,4.2422,4.2422,4.2637,4.2637,4.2246,4.2168,4.2324,4.2734,4.2773,4.2871,4.3086,4.3125,4.3125,4.3125,4.334,4.3496,4.3535,4.3711,4.3828,4.3828,4.3808,4.3789,4.3789,4.375,4.3711,4.3691,4.3691,4.3691,4.3691,4.3379,4.3125,4.3125,4.3125,4.3008,4.2832,4.2793,4.2519,4.1914,4.1797,4.1621,4.1269,4.1172,4.1172,4.1172,4.1172,4.1094,4.0879,4.0664,4.0254,3.9785,3.9336,3.9062,3.8711,3.8574,3.8496,3.848,3.8271,3.8027,3.7615,3.703,3.5766,3.5003,3.4523,3.3843,3.2671,3.1266,3.1407,3.1067,3.0287,3.0342,3.0272,2.9913,2.9913,2.9913,2.9913,2.998,3.002,3.0034,3.0074,3.0234,3.0434,3.0461,3.0568,3.0782,3.0862,3.0929,3.0982,3.0982,3.1102,3.133,3.133,3.1436,3.1623,3.1223,3.1234,3.1614,3.202,3.2971,3.4336,3.5856,3.7354,3.8904,4.0439,4.1508,4.211,4.2693,4.2969,4.2871,4.2871,4.2832,4.2734,4.2715,4.2715,4.2715,4.2715,4.2715,4.2734,4.3125,4.3379,4.334,4.3164,4.3047,4.3203,4.3203,4.3379,4.375,4.3848,4.3887,4.4004,4.4316,4.4492,4.457,4.4824,4.5039,4.498,4.4726,4.4531,4.4473,4.4141,4.3848,4.373,4.3691,4.3691,4.3691,4.3691,4.3691,4.3691,4.3691,4.3555,4.3281,4.3223,4.291,4.2187,4.2012,4.1816,4.1465,4.1269,4.1172,4.1172,4.1172,4.1152,4.1133,4.0918,4.0488,3.998,3.9609,3.9219,3.8691,3.8476,3.8281,4.004,3.9723,3.9573,3.9263,3.868,3.7673,3.7055,3.6555,3.5771,3.4535,3.316,3.188,3.1109,3.0575,3.0169,3.0016,2.9927,2.9913,2.9927,2.9967,3.0194,3.0327,3.0341,3.0581,3.0728,3.0755,3.0755,3.0782,3.0849,3.1076,3.1316,3.1557,3.1583,3.1583,3.1623,3.1623,3.1637,3.1677,3.1623,3.1746,3.1822,3.2117,3.2971,3.4321,3.5782,3.7468,3.9243,4.1083,4.2518,4.3377,4.4238,4.459,4.4258,4.4199,4.4023,4.3633,4.3594,4.3574,4.3594,4.3574,4.3594,4.3613,4.4004,4.4258,4.4258,4.4551,4.4414,4.3887,4.3672,4.3867,4.4258,4.4336,4.4453,4.4746,4.4902,4.4961,4.498,4.5,4.5039,4.5039,4.5039,4.4961,4.4922,4.457,4.416,4.3828,4.373,4.3691,4.3691,4.3691,4.3691,4.3691,4.3691,4.3691,4.3613,4.3633,4.3359,4.2949,4.2598,4.2187,4.1777,4.1387,4.1172,4.1172,4.1172,4.1172,4.1133,4.1094,4.0781,4.0,3.9668,3.9512,3.8789,3.8301,3.791,4.1562,4.1395,4.1314,4.0895,4.0095,3.8905,3.8306,3.8049,3.6843,3.6002,3.5316,3.3901,3.2287,3.0643,3.0627,3.0438,3.0194,3.0354,3.0434,3.0434,3.0568,3.0608,3.0635,3.0728,3.0875,3.1036,3.1049,3.1142,3.1303,3.1436,3.1557,3.1664,3.1677,3.1677,3.1677,3.1677,3.1677,3.1677,3.1677,3.1705,3.1854,3.2495,3.325,3.4178,3.5838,3.7499,3.9188,4.086,4.232,4.3435,4.4195,4.4621,4.4785,4.4766,4.4687,4.4492,4.4492,4.4492,4.4473,4.4492,4.4492,4.4492,4.4668,4.4766,4.4766,4.4941,4.4844,4.457,4.4492,4.457,4.4746,4.4766,4.4844,4.5019,4.5234,4.541,4.541,4.5625,4.5781,4.5762,4.5566,4.541,4.5312,4.4824,4.4355,4.4101,4.3906,4.3711,4.3691,4.3691,4.3691,4.3691,4.3691,4.3691,4.3691,4.3691,4.3516,4.3144,4.2715,4.2285,4.1894,4.1445,4.1172,4.1172,4.1133,4.1035,4.0801,4.0742,4.0527,3.9805,3.9219,3.8984,3.8633,3.8223,3.7812,4.2697,4.255,4.2485,4.1984,4.1313,4.022,3.9745,3.9507,3.8218,3.7463,3.7182,3.5854,3.4023,3.2072,3.1729,3.1281,3.0775,3.0872,3.0887,3.0795,3.0862,3.0902,3.0915,3.1009,3.1142,3.1316,3.1343,3.1463,3.165,3.1677,3.1677,3.1677,3.1677,3.1677,3.1677,3.1677,3.1677,3.1677,3.1677,3.1677,3.1853,3.2705,3.354,3.4197,3.6065,3.7823,3.9474,4.1101,4.2562,4.3796,4.4491,4.497,4.5215,4.5195,4.5156,4.5039,4.5039,4.5039,4.5039,4.5039,4.5039,4.5039,4.5117,4.5215,4.5215,4.5312,4.5371,4.5371,4.5371,4.5351,4.5215,4.5195,4.5234,4.5371,4.5683,4.584,4.5859,4.6133,4.6269,4.6269,4.5996,4.5781,4.5605,4.5058,4.4551,4.4375,4.3984,4.3691,4.3691,4.3691,4.3691,4.3691,4.3691,4.3691,4.3691,4.3691,4.3535,4.3262,4.2851,4.2324,4.1973,4.1562,4.1172,4.1172,4.1094,4.0937,4.0664,4.0469,4.0137,3.9434,3.8906,3.8633,3.8594,3.8144,3.7695,4.3443,4.3068,4.2569,4.244,4.2273,4.17,4.1421,4.1287,4.0001,3.9137,3.8624,3.7201,3.593,3.4939,3.37,3.2408,3.1597,3.1546,3.1297,3.0968,3.1089,3.1209,3.1223,3.149,3.1623,3.161,3.161,3.1637,3.1677,3.1677,3.1677,3.1677,3.1677,3.1677,3.1677,3.1677,3.1677,3.1677,3.1677,3.1677,3.1853,3.2705,3.3634,3.4666,3.6514,3.8359,4.0385,4.2246,4.3763,4.4775,4.5598,4.5948,4.5703,4.5644,4.5469,4.5137,4.5058,4.5058,4.5078,4.5098,4.5098,4.5117,4.5449,4.5644,4.5664,4.5937,4.6113,4.6211,4.6133,4.6016,4.5723,4.5644,4.5801,4.6094,4.6211,4.625,4.625,4.625,4.6289,4.6308,4.625,4.6074,4.5742,4.5293,4.4824,4.4453,4.4023,4.3711,4.3691,4.3691,4.3691,4.3691,4.3691,4.3691,4.3691,4.3691,4.3691,4.3398,4.2871,4.2383,4.2109,4.1816,4.1426,4.1074,4.084,4.0644,4.0488,4.0156,3.9707,3.9199,3.8848,3.8613,3.8437,3.7812,3.7383,4.3804,4.391,4.3472,4.3354,4.3537,4.3178,4.2806,4.2395,4.1659,4.0983,4.0312,3.9261,3.8408,3.7622,3.6801,3.5119,3.2931,3.2929,3.2654,3.1919,3.1921,3.1786,3.153,3.1623,3.1677,3.1677,3.1677,3.1677,3.1677,3.1677,3.1677,3.1677,3.1677,3.1677,3.1677,3.1677,3.1677,3.1677,3.1677,3.1677,3.1772,3.2705,3.3634,3.4666,3.6251,3.7915,3.9565,4.1454,4.3069,4.444,4.5324,4.5881,4.6094,4.6074,4.6016,4.5859,4.584,4.584,4.584,4.584,4.584,4.5859,4.5976,4.6074,4.6094,4.6211,4.6308,4.6308,4.6308,4.6211,4.6133,4.6074,4.6133,4.6269,4.6308,4.6308,4.6308,4.6308,4.6308,4.6308,4.6308,4.623,4.5976,4.5469,4.498,4.4766,4.418,4.3769,4.3691,4.3691,4.3691,4.3691,4.3691,4.3691,4.3691,4.3691,4.3613,4.3242,4.2812,4.2344,4.1992,4.1601,4.1211,4.1035,4.0742,4.0312,4.0117,3.9551,3.9141,3.8965,3.8613,3.8496,3.8203,3.7676,3.7266,4.4316,4.4486,4.4233,4.4303,4.4489,4.4214,4.3927,4.3601,4.3106,4.2609,4.1942,4.1069,4.0327,3.9805,3.9291,3.7787,3.5376,3.4936,3.401,3.2974,3.288,3.2516,3.2043,3.1948,3.1867,3.1772,3.1677,3.1677,3.1677,3.1677,3.1677,3.1677,3.1677,3.1677,3.1677,3.1677,3.1677,3.1677,3.1677,3.1677,3.1853,3.2705,3.3648,3.4759,3.6251,3.7915,3.9565,4.1454,4.3069,4.4333,4.5324,4.5958,4.6308,4.6308,4.6308,4.6308,4.6289,4.6308,4.6308,4.6308,4.6289,4.6308,4.6308,4.6308,4.6308,4.6308,4.6308,4.6308,4.6308,4.6308,4.6308,4.6289,4.6308,4.6308,4.6308,4.6308,4.6308,4.6308,4.6308,4.6308,4.6308,4.6308,4.6211,4.5508,4.5117,4.5019,4.4258,4.373,4.3691,4.3691,4.3691,4.3691,4.3691,4.3613,4.3496,4.3418,4.3398,4.3086,4.2715,4.2266,4.1836,4.1426,4.1113,4.0937,4.0586,4.0098,3.957,3.8984,3.873,3.8613,3.8555,3.8476,3.8066,3.7617,3.7187,4.5,4.5019,4.5019,4.4973,4.5005,4.4991,4.4972,4.4788,4.4392,4.3885,4.3282,4.2407,4.1779,4.1381,4.0929,4.0021,3.8801,3.7254,3.56,3.4103,3.3916,3.3351,3.2516,3.2421,3.2138,3.1772,3.1772,3.1758,3.1758,3.1853,3.1867,3.1772,3.1853,3.1962,3.1772,3.1758,3.1758,3.1758,3.1772,3.1677,3.1867,3.2705,3.3648,3.4759,3.6514,3.8451,4.0493,4.2353,4.38,4.4794,4.5783,4.6308,4.6308,4.6308,4.6308,4.6308,4.6308,4.6308,4.6308,4.6308,4.6308,4.6308,4.6308,4.6308,4.6308,4.6308,4.6308,4.6308,4.6308,4.6308,4.6308,4.6308,4.6308,4.6308,4.6308,4.6308,4.6308,4.6308,4.6308,4.6308,4.6308,4.6308,4.6133,4.5566,4.5058,4.4883,4.4277,4.3691,4.3691,4.3691,4.3691,4.3652,4.3574,4.3437,4.3242,4.3066,4.3066,4.2949,4.2578,4.2168,4.1738,4.1348,4.1016,4.0781,4.0195,3.9707,3.918,3.8672,3.8652,3.8574,3.8516,3.834,3.7871,3.7402,3.7031,4.4941,4.5449,4.5469,4.5644,4.5898,4.588,4.5677,4.5414,4.5197,4.4883,4.444,4.38,4.3426,4.3177,4.2712,4.1994,4.1093,4.0351,3.8526,3.5879,3.5133,3.4385,3.3445,3.2691,3.2138,3.1853,3.2043,3.2232,3.2232,3.2516,3.2705,3.2705,3.2705,3.2705,3.2705,3.2421,3.2232,3.2138,3.1853,3.1677,3.1758,3.2705,3.3742,3.4759,3.6606,3.8543,4.0493,4.2461,4.3889,4.4902,4.5783,4.6308,4.6308,4.6308,4.6308,4.6308,4.6308,4.6308,4.6308,4.6308,4.6308,4.6308,4.6308,4.6308,4.6308,4.6308,4.6308,4.6308,4.6308,4.6308,4.6308,4.6308,4.6308,4.6308,4.6308,4.6308,4.6308,4.6308,4.6308,4.6308,4.6308,4.6308,4.6152,4.5547,4.5039,4.4922,4.4238,4.3711,4.3691,4.3672,4.3555,4.3359,4.3281,4.3125,4.2812,4.2598,4.2519,4.248,4.2226,4.1973,4.1601,4.123,4.0898,4.041,3.9824,3.9316,3.8789,3.8574,3.8574,3.8457,3.834,3.8008,3.7578,3.7207,3.6836,4.5176,4.5683,4.584,4.6055,4.6289,4.6308,4.6133,4.587,4.587,4.5607,4.5147,4.4883,4.4617,4.4422,4.4067,4.3533,4.2891,4.2801,4.1256,3.8451,3.6977,3.5879,3.4759,3.354,3.2691,3.2421,3.2516,3.28,3.2974,3.3257,3.354,3.3728,3.3742,3.3728,3.3728,3.3257,3.2974,3.288,3.2516,3.2232,3.2421,3.3271,3.4197,3.5413,3.7177,3.9017,4.0838,4.2712,4.4067,4.4883,4.5783,4.6308,4.6308,4.6308,4.6308,4.6308,4.6308,4.6308,4.6308,4.6308,4.6308,4.6308,4.6308,4.6308,4.6308,4.6308,4.6308,4.6308,4.6308,4.6308,4.6308,4.6308,4.6308,4.6308,4.6308,4.6308,4.6308,4.6308,4.6308,4.6308,4.6308,4.623,4.5957,4.5527,4.4961,4.4746,4.418,4.3691,4.3672,4.3555,4.332,4.3086,4.293,4.2676,4.2305,4.2109,4.1992,4.1914,4.1777,4.1621,4.1367,4.1016,4.0684,3.9961,3.9336,3.9062,3.8594,3.8574,3.8574,3.8379,3.8184,3.7832,3.7461,3.7031,3.666,4.5644,4.5723,4.6133,4.6289,4.6308,4.6308,4.6308,4.6308,4.6308,4.6046,4.5695,4.5588,4.5412,4.5078,4.4971,4.4706,4.4333,4.4156,4.3389,4.1456,3.9647,3.7712,3.5805,3.449,3.365,3.3225,3.3239,3.3534,3.3931,3.4038,3.4248,3.4872,3.4872,3.4932,3.4838,3.4385,3.4103,3.401,3.354,3.3271,3.3365,3.4291,3.5226,3.6251,3.8099,3.9839,4.1471,4.3266,4.451,4.5078,4.587,4.6308,4.6308,4.6308,4.6308,4.6308,4.6308,4.6308,4.6308,4.6308,4.6308,4.6308,4.6308,4.6308,4.6308,4.6308,4.6308,4.6308,4.6308,4.6308,4.6308,4.6308,4.6308,4.6308,4.6308,4.6308,4.6308,4.6308,4.6308,4.6308,4.6289,4.6152,4.5781,4.5312,4.4902,4.4473,4.4023,4.375,4.3535,4.3359,4.3125,4.2851,4.2519,4.2246,4.1855,4.1758,4.1641,4.1582,4.1484,4.1367,4.1133,4.0781,4.0332,3.959,3.9023,3.875,3.8594,3.8574,3.8496,3.832,3.8066,3.7734,3.7305,3.6816,3.6484,4.5391,4.5703,4.6133,4.6308,4.6308,4.6308,4.6308,4.6308,4.6308,4.6221,4.6133,4.6133,4.6046,4.5958,4.587,4.5675,4.5324,4.5216,4.4498,4.3111,4.1817,3.8858,3.5986,3.5046,3.4345,3.3717,3.4036,3.433,3.4772,3.5197,3.5761,3.6434,3.6434,3.6559,3.6653,3.6019,3.56,3.5428,3.4666,3.4385,3.4478,3.532,3.6251,3.7254,3.8818,4.0549,4.2281,4.4174,4.5431,4.587,4.6133,4.6308,4.6308,4.6308,4.6308,4.6308,4.6308,4.6308,4.6308,4.6308,4.6308,4.6308,4.6308,4.6308,4.6308,4.6308,4.6308,4.6308,4.6308,4.6308,4.6308,4.6308,4.6308,4.6308,4.6308,4.6308,4.6308,4.6308,4.6308,4.6308,4.6289,4.6055,4.5683,4.5254,4.4824,4.4414,4.3965,4.3574,4.3359,4.3066,4.2812,4.2305,4.1953,4.1719,4.1504,4.1387,4.1308,4.1289,4.125,4.1211,4.0898,4.0488,3.9961,3.9336,3.8926,3.8613,3.8574,3.8574,3.8418,3.8262,3.7812,3.7441,3.6953,3.6484,3.6289,4.5176,4.5469,4.6055,4.6308,4.6308,4.6308,4.6308,4.6308,4.6308,4.6308,4.6308,4.6308,4.6308,4.6308,4.6308,4.6133,4.5939,4.5764,4.5116,4.4065,4.2472,3.9823,3.7022,3.6321,3.5766,3.497,3.515,3.5707,3.6247,3.659,3.7167,3.7941,3.808,3.8178,3.8219,3.7467,3.7015,3.6926,3.6236,3.5727,3.5942,3.69,3.7731,3.8726,4.0095,4.1904,4.38,4.5059,4.5783,4.6201,4.6308,4.6308,4.6308,4.6308,4.6308,4.6308,4.6308,4.6308,4.6308,4.6308,4.6308,4.6308,4.6308,4.6308,4.6308,4.6308,4.6308,4.6308,4.6308,4.6308,4.6308,4.6308,4.6308,4.6308,4.6308,4.6308,4.6308,4.6308,4.6308,4.6269,4.6133,4.5879,4.5469,4.5039,4.4609,4.416,4.3672,4.3379,4.3125,4.2812,4.2441,4.1973,4.1621,4.1426,4.1348,4.1269,4.1191,4.1133,4.0879,4.0898,4.0508,4.0098,3.959,3.9082,3.8769,3.8574,3.8574,3.8535,3.8359,3.8086,3.7598,3.7148,3.6719,3.6328,3.6113,4.5039,4.5098,4.5957,4.6308,4.6308,4.6308,4.6308,4.6308,4.6308,4.6308,4.6308,4.6308,4.6308,4.6308,4.6308,4.6308,4.6269,4.5831,4.528,4.431,4.2806,4.0517,3.8636,3.7931,3.7418,3.6724,3.6642,3.7128,3.7683,3.7998,3.8628,3.928,3.9561,3.9683,3.9645,3.8796,3.8485,3.8555,3.7873,3.7563,3.7939,3.8768,3.964,4.0368,4.2084,4.3623,4.4971,4.5695,4.587,4.6308,4.6308,4.6308,4.6308,4.6308,4.6308,4.6308,4.6308,4.6308,4.6308,4.6308,4.6308,4.6308,4.6308,4.6308,4.6308,4.6308,4.6308,4.6308,4.6308,4.6308,4.6308,4.6308,4.6308,4.6308,4.6308,4.6289,4.625,4.6269,4.6289,4.623,4.5879,4.5508,4.5039,4.4629,4.4238,4.375,4.334,4.3086,4.2754,4.2363,4.2051,4.1719,4.1445,4.1211,4.1191,4.1191,4.1094,4.0996,4.0605,4.0391,3.998,3.957,3.9141,3.8769,3.8633,3.8574,3.8574,3.8476,3.832,3.7949,3.7461,3.707,3.668,3.6309,3.6035,4.5039,4.5098,4.5957,4.6308,4.6308,4.6308,4.6308,4.6308,4.6308,4.6308,4.6308,4.6308,4.6308,4.6308,4.6308,4.6308,4.6211,4.5781,4.5075,4.3895,4.3304,4.2134,4.0704,3.9544,3.8494,3.8078,3.7975,3.8218,3.8752,3.927,3.9753,4.0449,4.0916,4.1215,4.1293,4.0473,4.0158,4.0209,3.9635,3.934,3.9689,4.0649,4.1526,4.2174,4.3889,4.4971,4.55,4.5958,4.6221,4.6308,4.6308,4.6308,4.6308,4.6308,4.6308,4.6308,4.6308,4.6308,4.6308,4.6308,4.6308,4.6308,4.6308,4.6308,4.6308,4.6308,4.6308,4.6308,4.6308,4.6308,4.6308,4.6308,4.6308,4.6308,4.6269,4.6152,4.5957,4.6094,4.6133,4.5879,4.5683,4.5371,4.4668,4.4492,4.4023,4.3398,4.3027,4.2754,4.2363,4.1953,4.1699,4.1465,4.1348,4.1172,4.1133,4.1055,4.0859,4.0664,4.0273,3.9883,3.9473,3.9258,3.8926,3.873,3.8613,3.8574,3.8574,3.8457,3.8301,3.7832,3.7324,3.6894,3.6504,3.6191,3.6035,4.5039,4.5117,4.5957,4.6308,4.6308,4.6308,4.6308,4.6308,4.6308,4.6308,4.6308,4.6308,4.6308,4.6308,4.6289,4.6211,4.5879,4.5332,4.4622,4.3704,4.3228,4.2818,4.2383,4.1192,4.0264,3.9671,3.9604,3.9841,4.0264,4.0536,4.0917,4.1523,4.188,4.1955,4.2159,4.1617,4.1346,4.1337,4.1014,4.086,4.1178,4.2136,4.3279,4.3941,4.5059,4.5695,4.5958,4.6133,4.6308,4.6308,4.6308,4.6308,4.6308,4.6308,4.6308,4.6308,4.6308,4.6308,4.6308,4.6308,4.6308,4.6308,4.6308,4.6308,4.6308,4.6308,4.6308,4.6308,4.6308,4.6308,4.6308,4.6308,4.6308,4.625,4.6113,4.5918,4.5762,4.5879,4.584,4.5449,4.5176,4.4883,4.4531,4.4219,4.3808,4.3164,4.2773,4.248,4.209,4.1699,4.1465,4.1289,4.123,4.1152,4.1113,4.0937,4.0586,4.0273,3.9844,3.9434,3.9004,3.8887,3.8809,3.8672,3.8574,3.8574,3.8555,3.8418,3.8144,3.7617,3.7109,3.668,3.6348,3.6113,3.6035,4.5039,4.5098,4.5937,4.6308,4.6308,4.6308,4.6308,4.6308,4.6308,4.6308,4.6308,4.6308,4.6308,4.6308,4.6308,4.6035,4.5488,4.4844,4.4155,4.3745,4.3419,4.3214,4.2965,4.255,4.2049,4.1444,4.121,4.1378,4.1612,4.1863,4.1984,4.2421,4.2588,4.2664,4.2523,4.217,4.2106,4.2217,4.194,4.1953,4.2265,4.3069,4.4159,4.5201,4.5568,4.5939,4.6133,4.6308,4.6308,4.6308,4.6308,4.6308,4.6308,4.6308,4.6308,4.6308,4.6308,4.6308,4.6308,4.6308,4.6308,4.6308,4.6308,4.6308,4.6308,4.6308,4.6308,4.6308,4.6308,4.6308,4.6308,4.6308,4.6269,4.6152,4.5859,4.5644,4.5488,4.5488,4.5254,4.5,4.4746,4.4492,4.4121,4.3769,4.3379,4.2988,4.2578,4.2187,4.1777,4.1504,4.1308,4.1211,4.1172,4.0976,4.0918,4.0801,4.0449,3.9922,3.9473,3.9121,3.873,3.8691,3.8691,3.8652,3.8574,3.8574,3.8476,3.8262,3.791,3.7383,3.6973,3.6601,3.6309,3.6074,3.6035,4.5039,4.5098,4.5937,4.6308,4.6308,4.6308,4.6308,4.6308,4.6308,4.6308,4.6308,4.6308,4.6308,4.6308,4.6308,4.5879,4.5215,4.457,4.4121,4.3769,4.3546,4.3546,4.3463,4.338,4.3214,4.3131,4.255,4.2216,4.2383,4.2652,4.2799,4.3048,4.3214,4.338,4.3297,4.3048,4.2838,4.2926,4.2799,4.2754,4.2989,4.369,4.4597,4.5541,4.5919,4.6162,4.6201,4.6308,4.6308,4.6308,4.6308,4.6308,4.6308,4.6308,4.6308,4.6308,4.6308,4.6308,4.6308,4.6308,4.6308,4.6308,4.6308,4.6308,4.6308,4.6308,4.6308,4.6308,4.6308,4.6308,4.6308,4.623,4.6094,4.5879,4.5625,4.5351,4.4863,4.4668,4.4609,4.4414,4.4277,4.4141,4.373,4.332,4.291,4.2558,4.2226,4.1855,4.1484,4.1328,4.123,4.1172,4.1172,4.0918,4.0664,4.0547,4.0293,3.9648,3.9219,3.9043,3.873,3.8633,3.8574,3.8574,3.8574,3.8574,3.8418,3.8164,3.7793,3.7344,3.6934,3.6523,3.6269,3.6035,3.6035,4.5039,4.5117,4.5957,4.6308,4.6308,4.6308,4.6308,4.6308,4.6308,4.6308,4.6308,4.6308,4.6308,4.6308,4.6308,4.582,4.5058,4.4297,4.3945,4.3711,4.3691,4.3691,4.3691,4.3691,4.3691,4.3628,4.3214,4.3048,4.3131,4.3297,4.338,4.3463,4.3628,4.3711,4.3711,4.3463,4.338,4.3355,4.3343,4.3356,4.3395,4.4052,4.483,4.548,4.5859,4.6074,4.6289,4.6308,4.6308,4.6308,4.6308,4.6308,4.6308,4.6308,4.6308,4.6308,4.6308,4.6308,4.6308,4.6308,4.6308,4.6308,4.6308,4.6308,4.6308,4.6308,4.6308,4.6308,4.6289,4.6211,4.5996,4.5976,4.5762,4.541,4.5176,4.4863,4.4473,4.4199,4.4004,4.3828,4.3633,4.3457,4.3301,4.2871,4.2441,4.2109,4.1836,4.1543,4.1211,4.1172,4.1172,4.1152,4.1113,4.082,4.0488,4.0234,4.0,3.9394,3.9023,3.8828,3.873,3.8613,3.8574,3.8574,3.8574,3.8574,3.834,3.8086,3.7695,3.7285,3.6738,3.6309,3.6152,3.6035,3.6035,4.5039,4.5098,4.5957,4.6308,4.6308,4.6308,4.6308,4.6308,4.6308,4.6308,4.6308,4.6308,4.6308,4.6269,4.6133,4.5742,4.498,4.4199,4.3887,4.3711,4.3691,4.3691,4.3691,4.3691,4.3691,4.3691,4.3628,4.3691,4.3609,4.3628,4.3691,4.3691,4.3691,4.3691,4.3711,4.3628,4.3691,4.3691,4.3691,4.3691,4.3808,4.418,4.4687,4.5351,4.5508,4.5723,4.6074,4.6113,4.6211,4.6269,4.6308,4.6308,4.6308,4.6308,4.6308,4.6308,4.6308,4.6308,4.6308,4.6308,4.6308,4.6308,4.6308,4.6308,4.6308,4.6308,4.6308,4.6308,4.6172,4.6035,4.5781,4.5605,4.5332,4.498,4.4629,4.4336,4.4141,4.3867,4.3516,4.3281,4.3008,4.2773,4.2617,4.25,4.207,4.1797,4.1523,4.1484,4.1191,4.1172,4.1152,4.1113,4.1016,4.0723,4.0371,3.9902,3.957,3.9082,3.8828,3.8672,3.8633,3.8594,3.8574,3.8574,3.8574,3.8535,3.8262,3.7969,3.7578,3.709,3.6484,3.6152,3.6055,3.6035,3.6035,4.5039,4.5098,4.5957,4.6308,4.6308,4.6308,4.6308,4.6308,4.6308,4.6308,4.6308,4.6308,4.6308,4.623,4.5918,4.5508,4.498,4.4512,4.4043,4.375,4.3691,4.3691,4.3691,4.3691,4.3691,4.3691,4.3691,4.3691,4.3691,4.3691,4.3691,4.3691,4.3691,4.3691,4.3691,4.3691,4.3691,4.3691,4.3691,4.3691,4.3769,4.4141,4.4414,4.4668,4.4941,4.5312,4.5683,4.5801,4.5937,4.623,4.6289,4.6308,4.6308,4.6308,4.6308,4.6308,4.6308,4.6308,4.6308,4.6308,4.6308,4.6308,4.6308,4.6308,4.6308,4.6289,4.6289,4.6289,4.6016,4.5703,4.5508,4.5293,4.4941,4.4609,4.4297,4.4062,4.3828,4.3418,4.3066,4.2793,4.2519,4.2207,4.1953,4.1875,4.1738,4.1465,4.125,4.123,4.1211,4.1191,4.1055,4.0976,4.082,4.0547,4.0098,3.9648,3.9297,3.8809,3.8691,3.8574,3.8574,3.8574,3.8574,3.8574,3.8574,3.8496,3.8281,3.793,3.748,3.7012,3.6523,3.623,3.6035,3.6035,3.6035,4.5039,4.5098,4.5957,4.6308,4.6308,4.6308,4.6308,4.6308,4.6308,4.6308,4.6308,4.6308,4.6308,4.6211,4.5859,4.543,4.5,4.4609,4.4141,4.3808,4.3711,4.3691,4.3691,4.3691,4.3691,4.3691,4.3691,4.3691,4.3691,4.3691,4.3691,4.3691,4.3691,4.3691,4.3691,4.3691,4.3691,4.3691,4.3691,4.3691,4.375,4.3906,4.4141,4.4375,4.457,4.4902,4.5234,4.5586,4.5723,4.5996,4.6133,4.6308,4.6308,4.6308,4.6308,4.6308,4.6308,4.6308,4.6308,4.6289,4.6308,4.6308,4.6308,4.6308,4.6308,4.6269,4.6152,4.5957,4.5801,4.5488,4.5078,4.4785,4.4453,4.4141,4.3887,4.3652,4.3359,4.2969,4.2598,4.2324,4.2051,4.1797,4.1562,4.1504,4.1484,4.1348,4.1211,4.1191,4.1191,4.1172,4.0996,4.0762,4.0566,4.0312,3.9824,3.9336,3.9121,3.8769,3.8652,3.8574,3.8574,3.8574,3.8574,3.8574,3.8574,3.8457,3.8262,3.7851,3.7363,3.6973,3.6601,3.6309,3.6035,3.6035,3.6035,4.5176,4.5254,4.5996,4.6308,4.6308,4.6308,4.6308,4.6308,4.6308,4.6308,4.6308,4.6308,4.6308,4.625,4.5976,4.5644,4.5176,4.4746,4.4297,4.3984,4.3769,4.3711,4.3691,4.3691,4.3691,4.3691,4.3691,4.3691,4.3691,4.3691,4.3691,4.3691,4.3691,4.3691,4.3691,4.3691,4.3691,4.3691,4.3691,4.3691,4.3711,4.3711,4.3906,4.4101,4.4277,4.4433,4.4844,4.5117,4.5312,4.5566,4.5742,4.5859,4.5879,4.584,4.5859,4.5898,4.5957,4.6094,4.6133,4.6191,4.6269,4.6308,4.6269,4.625,4.6113,4.6133,4.5976,4.5547,4.5312,4.4961,4.457,4.4336,4.3984,4.3652,4.334,4.3105,4.2871,4.25,4.2226,4.2051,4.1797,4.1543,4.1348,4.125,4.1191,4.1191,4.1172,4.1172,4.1133,4.1113,4.0859,4.0586,4.0117,3.9902,3.9551,3.9121,3.8887,3.873,3.8633,3.8574,3.8574,3.8574,3.8574,3.8574,3.8574,3.8379,3.8144,3.7695,3.7246,3.6875,3.6504,3.623,3.6035,3.6035,3.6035,4.5625,4.5664,4.6113,4.6308,4.6308,4.6308,4.6308,4.6308,4.6308,4.6308,4.6308,4.6308,4.6308,4.6289,4.6211,4.5957,4.5586,4.5176,4.4707,4.4297,4.3945,4.3769,4.373,4.3691,4.3691,4.3691,4.3691,4.3691,4.3691,4.3691,4.3691,4.3691,4.3691,4.3691,4.3691,4.3691,4.3691,4.3691,4.3691,4.3691,4.3691,4.3691,4.375,4.375,4.3808,4.3965,4.4414,4.457,4.4766,4.5078,4.5234,4.5293,4.5351,4.5332,4.5332,4.5391,4.5586,4.5703,4.5762,4.6074,4.6269,4.6289,4.6191,4.5996,4.5742,4.5723,4.5488,4.5117,4.4883,4.459,4.4277,4.4023,4.3594,4.3301,4.2988,4.2695,4.2422,4.207,4.1836,4.1738,4.1562,4.1328,4.125,4.1191,4.1172,4.1172,4.1172,4.1172,4.1035,4.0957,4.0684,4.0332,3.9707,3.9394,3.9258,3.8965,3.873,3.8652,3.8594,3.8574,3.8574,3.8574,3.8574,3.8574,3.8555,3.8301,3.8008,3.7669,3.7308,3.6827,3.6475,3.6337,3.6219,3.6152,3.6084,4.582,4.6074,4.625,4.6308,4.6308,4.6308,4.6308,4.6308,4.6308,4.6308,4.6308,4.6308,4.6308,4.6308,4.6289,4.6074,4.5683,4.5527,4.5,4.4551,4.4199,4.3965,4.3848,4.3691,4.3691,4.3691,4.3691,4.3691,4.3691,4.3691,4.3691,4.3691,4.3691,4.3691,4.3691,4.3691,4.3691,4.3691,4.3691,4.3691,4.3691,4.3691,4.3691,4.3691,4.3691,4.3769,4.3984,4.4277,4.4453,4.4648,4.4844,4.4922,4.4941,4.4941,4.4941,4.4961,4.5176,4.5254,4.541,4.582,4.6172,4.5879,4.5683,4.5449,4.5293,4.5273,4.5058,4.4726,4.4492,4.4277,4.3926,4.3594,4.3223,4.2988,4.2695,4.2344,4.2012,4.168,4.1523,4.1465,4.1367,4.1211,4.1191,4.1172,4.1172,4.1172,4.1172,4.1133,4.0957,4.0723,4.043,4.0078,3.9473,3.9062,3.8926,3.875,3.8574,3.8574,3.8574,3.8574,3.8574,3.8574,3.8574,3.8574,3.8496,3.8242,3.7982,3.7732,3.737,3.6917,3.6739,3.6666,3.6539,3.6336,3.6287,4.6035,4.6289,4.6308,4.6308,4.6308,4.6308,4.6308,4.6308,4.6308,4.6308,4.6308,4.6308,4.6308,4.6308,4.6289,4.6191,4.5898,4.5683,4.5215,4.4785,4.4414,4.4141,4.3848,4.3691,4.3691,4.3691,4.3691,4.3691,4.3691,4.3691,4.3691,4.3691,4.3691,4.3691,4.3691,4.3691,4.3691,4.3691,4.3691,4.3691,4.3691,4.3691,4.3691,4.3691,4.3691,4.3711,4.3808,4.4004,4.4121,4.4258,4.4394,4.457,4.4609,4.4629,4.4629,4.4668,4.4766,4.4844,4.5039,4.5391,4.5762,4.5488,4.5273,4.5039,4.4883,4.4824,4.4648,4.4258,4.416,4.4004,4.3574,4.3262,4.2851,4.2578,4.2266,4.1933,4.168,4.1387,4.1308,4.123,4.1172,4.1172,4.1172,4.1172,4.1172,4.1172,4.1172,4.1035,4.0762,4.0488,4.0098,3.9707,3.9238,3.8906,3.8633,3.8594,3.8574,3.8574,3.8574,3.8574,3.8574,3.8574,3.8574,3.8574,3.8437,3.8164,3.7994,3.7873,3.752,3.7074,3.6981,3.7011,3.6876,3.6674,3.6606,4.6289,4.6308,4.6308,4.6308,4.6308,4.6308,4.6308,4.6308,4.6308,4.6308,4.6308,4.6308,4.6308,4.6308,4.6308,4.625,4.6152,4.5859,4.543,4.498,4.4629,4.4199,4.3848,4.3691,4.3691,4.3691,4.3691,4.3691,4.3691,4.3691,4.3691,4.3691,4.3691,4.3691,4.3691,4.3691,4.3691,4.3691,4.3691,4.3691,4.3691,4.3652,4.3594,4.3594,4.3496,4.3437,4.3476,4.3633,4.373,4.3769,4.3867,4.3965,4.3945,4.3926,4.3906,4.3906,4.4219,4.4375,4.4453,4.4844,4.498,4.5019,4.4844,4.4668,4.4473,4.4375,4.4219,4.3808,4.3711,4.3516,4.3262,4.2988,4.2519,4.2187,4.1894,4.1621,4.1367,4.125,4.1191,4.1172,4.1172,4.1172,4.1172,4.1172,4.1172,4.1172,4.1172,4.0976,4.0644,4.0293,3.9922,3.9473,3.9062,3.8828,3.8613,3.8594,3.8574,3.8574,3.8574,3.8574,3.8574,3.8574,3.8574,3.8574,3.8476,3.8373,3.8236,3.8125,3.7926,3.7665,3.7395,3.728,3.7146,3.7079,3.7079,4.6308,4.6308,4.6308,4.6308,4.6308,4.6308,4.6308,4.6308,4.6308,4.6308,4.6308,4.6308,4.6308,4.6308,4.6308,4.6308,4.6269,4.6211,4.5781,4.5058,4.4824,4.4336,4.3926,4.3691,4.3691,4.3691,4.3691,4.3691,4.3691,4.3691,4.3691,4.3691,4.3691,4.3691,4.3691,4.3691,4.3691,4.3691,4.3691,4.3691,4.3672,4.3457,4.3281,4.3262,4.3047,4.293,4.2969,4.3144,4.3281,4.332,4.3437,4.3594,4.3613,4.3613,4.3633,4.3672,4.3906,4.3926,4.3945,4.4141,4.4316,4.4375,4.4316,4.4121,4.3945,4.3945,4.3691,4.3418,4.3301,4.3066,4.2754,4.2363,4.1992,4.1875,4.1621,4.1406,4.1211,4.1191,4.1172,4.1172,4.1172,4.1172,4.1172,4.1152,4.1133,4.1074,4.1055,4.0859,4.0547,4.0176,3.9785,3.9336,3.8945,3.873,3.8574,3.8574,3.8574,3.8574,3.8574,3.8574,3.8574,3.8574,3.8574,3.8574,3.8588,3.851,3.8501,3.8437,3.8596,3.8398,3.8233,3.8017,3.795,3.775,3.7569,4.6308,4.6308,4.6308,4.6308,4.6308,4.6308,4.6308,4.6308,4.6308,4.6308,4.6308,4.6308,4.6308,4.6308,4.6308,4.6308,4.6289,4.6113,4.5781,4.5058,4.4844,4.4336,4.3887,4.3691,4.3691,4.3691,4.3691,4.3691,4.3691,4.3691,4.3691,4.3691,4.3691,4.3691,4.3691,4.3691,4.3691,4.3652,4.3594,4.3437,4.334,4.3125,4.2851,4.2773,4.2637,4.2461,4.2519,4.2656,4.2851,4.2949,4.3086,4.3281,4.3281,4.3281,4.3262,4.3262,4.3262,4.3262,4.3242,4.3242,4.3398,4.3574,4.3496,4.3496,4.3437,4.332,4.3125,4.293,4.2851,4.2598,4.2246,4.1855,4.1719,4.1621,4.1426,4.1211,4.1172,4.1172,4.1172,4.1172,4.1172,4.1172,4.1172,4.1133,4.1113,4.1016,4.0918,4.0644,4.0371,3.998,3.957,3.9141,3.8848,3.8672,3.8574,3.8574,3.8574,3.8574,3.8574,3.8574,3.8574,3.8574,3.8574,3.8574,3.8608,3.8649,3.8717,3.8832,3.9005,3.9238,3.9339,3.9078,3.8769,3.8549,3.8416,4.6308,4.6308,4.6308,4.6308,4.6308,4.6308,4.6308,4.6308,4.6308,4.6308,4.6308,4.6308,4.6308,4.6308,4.6308,4.6269,4.6172,4.5879,4.541,4.498,4.4648,4.4141,4.3867,4.3691,4.3691,4.3691,4.3691,4.3691,4.3691,4.3691,4.3691,4.3691,4.3691,4.3652,4.3613,4.3574,4.3574,4.3476,4.3223,4.3086,4.2969,4.2656,4.2461,4.2344,4.2246,4.2187,4.2226,4.2324,4.2402,4.2461,4.2519,4.2519,4.248,4.2461,4.2461,4.2461,4.2519,4.2558,4.2598,4.2617,4.2598,4.2832,4.2871,4.2969,4.2988,4.2812,4.2637,4.25,4.2402,4.2129,4.1836,4.1699,4.1562,4.1426,4.125,4.1172,4.1172,4.1172,4.1172,4.1172,4.1172,4.1172,4.1172,4.1133,4.1016,4.0762,4.0586,4.0254,3.9961,3.9648,3.9258,3.8887,3.8652,3.8633,3.8574,3.8574,3.8574,3.8574,3.8574,3.8574,3.8574,3.8574,3.8574,3.8574,3.8647,3.8642,3.8648,3.906,3.96,3.9851,4.0062,4.0062,3.9735,3.967,3.9451,4.6308,4.6308,4.6308,4.6308,4.6308,4.6308,4.6308,4.6308,4.6308,4.6308,4.6308,4.6308,4.6289,4.6308,4.6308,4.6113,4.5898,4.5644,4.5176,4.4766,4.4433,4.4101,4.3848,4.3691,4.3691,4.3691,4.3691,4.3691,4.3691,4.3691,4.3691,4.3691,4.3633,4.3516,4.334,4.3262,4.3223,4.3125,4.2793,4.2676,4.25,4.2187,4.2051,4.1953,4.1738,4.168,4.168,4.1875,4.1953,4.2031,4.2578,4.2754,4.2441,4.2676,4.2832,4.2461,4.2441,4.2441,4.2422,4.2402,4.2363,4.2246,4.2285,4.2363,4.2441,4.2422,4.2207,4.207,4.1973,4.1758,4.1582,4.1445,4.1367,4.1289,4.1172,4.1172,4.1172,4.1172,4.1172,4.1172,4.1172,4.1172,4.1172,4.1074,4.0918,4.0586,4.0234,3.9863,3.957,3.9258,3.9043,3.8672,3.8574,3.8574,3.8574,3.8574,3.8574,3.8574,3.8574,3.8574,3.8574,3.8574,3.8574,3.8647,3.872,3.8628,3.8538,3.9117,3.9888,4.0363,4.0647,4.0712,4.069,4.0625,4.0495,4.6308,4.6308,4.6308,4.6308,4.6308,4.6308,4.6308,4.6308,4.6308,4.6308,4.6308,4.6308,4.6211,4.6055,4.6016,4.582,4.541,4.5156,4.4805,4.457,4.4238,4.3965,4.3769,4.3691,4.3691,4.3691,4.3691,4.3691,4.3691,4.3672,4.3672,4.3437,4.3457,4.3183,4.2891,4.2637,4.2539,4.2461,4.2344,4.2207,4.2031,4.1777,4.1621,4.1523,4.1269,4.1211,4.1191,4.1484,4.1601,4.1758,4.2441,4.2461,4.2129,4.2285,4.2246,4.1875,4.1855,4.1855,4.1836,4.1875,4.1914,4.1875,4.1719,4.1738,4.1797,4.1816,4.1699,4.1601,4.1543,4.1465,4.1308,4.1172,4.1172,4.1172,4.1172,4.1172,4.1172,4.1172,4.1172,4.1172,4.1172,4.1172,4.1113,4.1016,4.0762,4.0293,3.9844,3.9414,3.916,3.8945,3.8809,3.8613,3.8574,3.8574,3.8574,3.8574,3.8574,3.8574,3.8574,3.8574,3.8574,3.8574,3.8574,3.872,3.8958,3.8823,3.8769,3.944,4.0108,4.0627,4.1189,4.1421,4.1591,4.1783,4.1527,4.6191,4.6172,4.6211,4.6133,4.6191,4.6152,4.6152,4.6191,4.6133,4.6211,4.6211,4.625,4.5976,4.5683,4.5605,4.5371,4.5019,4.4707,4.4512,4.4336,4.3984,4.375,4.373,4.3691,4.3691,4.3691,4.3691,4.3691,4.3691,4.3594,4.3379,4.3086,4.3027,4.2793,4.2402,4.2129,4.1992,4.1855,4.1816,4.1738,4.166,4.1406,4.1172,4.1211,4.1172,4.1172,4.1172,4.125,4.1367,4.166,4.1816,4.1875,4.1777,4.1543,4.1367,4.1308,4.1367,4.1367,4.1387,4.1387,4.1328,4.1289,4.1172,4.1269,4.1387,4.1445,4.1367,4.1348,4.1328,4.1328,4.1211,4.1172,4.1172,4.1172,4.1172,4.1172,4.1172,4.1172,4.1172,4.1172,4.1172,4.1133,4.0918,4.0801,4.043,3.9961,3.957,3.9141,3.8867,3.8691,3.8633,3.8574,3.8574,3.8574,3.8574,3.8574,3.8574,3.8574,3.8574,3.8574,3.8574,3.8574,3.8574,3.872,3.8865,3.9114,3.9303,3.9667,4.0171,4.0934,4.1499,4.213,4.2443,4.2696,4.257,4.5332,4.5332,4.5332,4.5332,4.5332,4.5332,4.5351,4.5332,4.5332,4.5527,4.5781,4.5781,4.5586,4.5215,4.5176,4.4941,4.457,4.4375,4.418,4.4004,4.373,4.3711,4.3691,4.3691,4.3691,4.3691,4.3691,4.3633,4.3574,4.3398,4.3183,4.3008,4.2773,4.2363,4.1973,4.1738,4.1641,4.1426,4.1387,4.1387,4.1348,4.1289,4.1172,4.1172,4.1172,4.1172,4.1172,4.1191,4.1426,4.1719,4.1777,4.1816,4.1797,4.1406,4.1211,4.1172,4.1172,4.1172,4.1172,4.1172,4.1172,4.1172,4.1172,4.1172,4.1172,4.1172,4.1172,4.1172,4.1172,4.1172,4.1172,4.1172,4.1172,4.1172,4.1172,4.1172,4.1172,4.1172,4.1172,4.1172,4.1172,4.0976,4.0762,4.043,4.0078,3.9746,3.9434,3.9082,3.8809,3.8613,3.8613,3.8574,3.8574,3.8574,3.8574,3.8574,3.8574,3.8574,3.8574,3.8574,3.8574,3.8574,3.8574,3.8574,3.8734,3.9062,3.9262,3.9409,3.9967,4.0998,4.1739,4.2362,4.32,4.3639,4.3514,4.5039,4.5039,4.5039,4.5039,4.5039,4.5039,4.5039,4.5039,4.5039,4.5058,4.5137,4.5254,4.5156,4.4785,4.4746,4.4512,4.418,4.4082,4.3945,4.3769,4.3691,4.3691,4.3691,4.3691,4.3691,4.3691,4.3476,4.3379,4.3359,4.3008,4.2734,4.2558,4.2226,4.1953,4.1601,4.1504,4.1426,4.1191,4.1172,4.1172,4.1172,4.1172,4.1172,4.1172,4.1172,4.1172,4.1172,4.1191,4.1426,4.168,4.1797,4.1797,4.1699,4.1406,4.1211,4.1172,4.1172,4.1172,4.1172,4.1172,4.1172,4.1172,4.1172,4.1172,4.1172,4.1172,4.1172,4.1172,4.1172,4.1172,4.1172,4.1172,4.1172,4.1172,4.1172,4.1172,4.1172,4.1172,4.1172,4.1172,4.1055,4.0762,4.0469,3.9961,3.9648,3.9453,3.916,3.8965,3.8691,3.8574,3.8574,3.8574,3.8574,3.8574,3.8574,3.8574,3.8574,3.8574,3.8574,3.8574,3.8574,3.8574,3.8574,3.8574,3.87,3.8912,3.9149,3.9321,4.0082,4.1169,4.1875,4.2546,4.349,4.4323,4.4261,4.4824,4.4863,4.4844,4.4844,4.4863,4.4844,4.4824,4.4824,4.4824,4.4629,4.4414,4.4687,4.459,4.4414,4.4297,4.4004,4.3848,4.3848,4.373,4.3711,4.3691,4.3691,4.3691,4.3691,4.3633,4.3437,4.3183,4.3047,4.2969,4.2578,4.2187,4.1855,4.168,4.1543,4.1269,4.1172,4.1172,4.1172,4.1172,4.1172,4.1172,4.1172,4.1172,4.1172,4.1172,4.1172,4.1172,4.123,4.1426,4.1621,4.1777,4.1719,4.1601,4.1348,4.125,4.1172,4.1172,4.1172,4.1172,4.1172,4.1172,4.1172,4.1172,4.1172,4.1172,4.1172,4.1172,4.1172,4.1172,4.1172,4.1172,4.1172,4.1172,4.1172,4.1172,4.1172,4.1172,4.1172,4.1172,4.1152,4.0879,4.0586,4.0117,3.9629,3.9316,3.9101,3.8926,3.873,3.8574,3.8574,3.8574,3.8574,3.8574,3.8574,3.8574,3.8574,3.8574,3.8574,3.8574,3.8574,3.8574,3.8574,3.8574,3.8574,3.8773,3.8951,3.9238,3.9475,4.0333,4.1204,4.1815,4.2482,4.3365,4.4199,4.4816,4.3945,4.3945,4.3945,4.3965,4.3965,4.3965,4.3965,4.3965,4.3965,4.3887,4.3848,4.3867,4.3867,4.3848,4.3848,4.3711,4.3652,4.3594,4.3652,4.3691,4.3535,4.3613,4.3594,4.3437,4.3437,4.3164,4.2793,4.2598,4.25,4.2148,4.1894,4.1758,4.1406,4.1269,4.123,4.1172,4.1172,4.1172,4.1172,4.1172,4.1172,4.1172,4.1172,4.1172,4.1172,4.1172,4.1172,4.1172,4.1426,4.166,4.1758,4.1582,4.1426,4.125,4.1191,4.1172,4.1172,4.1172,4.1172,4.1172,4.1172,4.1172,4.1172,4.1172,4.1172,4.1172,4.1172,4.1172,4.1172,4.1172,4.1172,4.1172,4.1172,4.1172,4.1172,4.1172,4.1172,4.1152,4.1152,4.0996,4.0742,4.0371,3.9922,3.9473,3.9062,3.8887,3.875,3.8574,3.8574,3.8574,3.8574,3.8574,3.8574,3.8574,3.8574,3.8574,3.8574,3.8574,3.8574,3.8574,3.8574,3.8574,3.8574,3.8574,3.872,3.8918,3.9238,3.9637,4.0209,4.0997,4.1595,4.235,4.3222,4.4051,4.4755]}]]